[[{"header":{"parameterUnit":"m.s-1","parameterCategory":1,"la1":30.6,"la2":28.766,"lo1":-90.7593,"lo2":-88.6598,"dy":0.0162,"dx":0.0183,"nx":116,"ny":114,"refTime":"2023-10-05T12:00:00:Z","depth":0,"parameterNumber":2,"parameterNumberName":"U-component_of_WINDS"},"data":[0.0,0.0,0.0,0.0,0.0,0.0,0.0,0.0,0.0,0.0,0.0,0.0,0.0,0.0,0.0,0.0,0.0,0.0,0.0,0.0,0.0,0.0,0.0,0.0,0.0,0.0,0.0,0.0,0.0,0.0,0.0,0.0,0.0,0.0,0.0,0.0,0.0,0.0,0.0,0.0,0.0,0.0,0.0,0.0,0.0,0.0,0.0,0.0,0.0,0.0,0.0,0.0,0.0,0.0,0.0,0.0,0.0,0.0,0.0,0.0,0.0,0.0,0.0,0.0,0.0,0.0,0.0,0.0,0.0,0.0,0.0,0.0,0.0,0.0,0.0,0.0,0.0,0.0,0.0,0.0,0.0,0.0,0.0,0.0,0.0,0.0,0.0,0.0,0.0,0.0,0.0,0.0,0.0,0.0,0.0,0.0,0.0,0.0,0.0,0.0,0.0,0.0,0.0,0.0,0.0,0.0,0.0,0.0,0.0,0.0,0.0,0.0,0.0,0.0,0.0,0.0,0.0,0.0,0.0,0.0,0.0,0.0,0.0,0.0,0.0,0.0,0.0,0.0,0.0,0.0,0.0,0.0,0.0,0.0,0.0,0.0,0.0,0.0,0.0,0.0,0.0,0.0,0.0,0.0,0.0,0.0,0.0,0.0,0.0,0.0,0.0,0.0,0.0,0.0,0.0,0.0,0.0,0.0,0.0,0.0,0.0,0.0,0.0,0.0,0.0,0.0,0.0,0.0,0.0,0.0,0.0,0.0,0.0,0.0,0.0,0.0,0.0,0.0,0.0,0.0,0.0,0.0,0.0,0.0,0.0,0.0,0.0,0.0,0.0,0.0,0.0,0.0,0.0,0.0,0.0,0.0,0.0,0.0,0.0,0.0,0.0,0.0,0.0,0.0,0.0,0.0,0.0,0.0,0.0,0.0,0.0,0.0,0.0,0.0,0.0,0.0,0.0,0.0,0.0,0.0,0.0,0.0,0.0,0.0,0.0,0.0,0.0,0.0,0.0,0.0,0.0,0.0,0.0,0.0,0.0,0.0,0.0,0.0,0.0,0.0,0.0,0.0,0.0,0.0,0.0,0.0,0.0,0.0,0.0,0.0,0.0,0.0,0.0,0.0,0.0,0.0,0.0,0.0,0.0,0.0,0.0,0.0,0.0,0.0,0.0,0.0,0.0,0.0,0.0,0.0,0.0,0.0,0.0,0.0,0.0,0.0,0.0,0.0,0.0,0.0,0.0,0.0,0.0,0.0,0.0,0.0,0.0,0.0,0.0,0.0,0.0,0.0,0.0,0.0,0.0,0.0,0.0,0.0,0.0,0.0,0.0,0.0,0.0,0.0,0.0,0.0,0.0,0.0,0.0,0.0,0.0,0.0,0.0,0.0,0.0,0.0,0.0,0.0,0.0,0.0,0.0,0.0,0.0,0.0,0.0,0.0,0.0,0.0,0.0,0.0,0.0,0.0,0.0,0.0,0.0,0.0,0.0,0.0,0.0,0.0,0.0,0.0,0.0,0.0,0.0,0.0,0.0,0.0,0.0,0.0,0.0,0.0,0.0,0.0,0.0,0.0,0.0,0.0,0.0,0.0,0.0,0.0,0.0,0.0,0.0,0.0,0.0,0.0,0.0,0.0,0.0,0.0,0.0,0.0,0.0,0.0,0.0,0.0,0.0,0.0,0.0,0.0,0.0,0.0,0.0,0.0,0.0,0.0,0.0,0.0,0.0,0.0,0.0,0.0,0.0,0.0,0.0,0.0,0.0,0.0,0.0,0.0,0.0,0.0,0.0,0.0,0.0,0.0,0.0,0.0,0.0,0.0,0.0,0.0,0.0,0.0,0.0,0.0,0.0,0.0,0.0,0.0,0.0,0.0,0.0,0.0,0.0,0.0,0.0,0.0,0.0,0.0,0.0,0.0,0.0,0.0,0.0,0.0,0.0,0.0,0.0,0.0,0.0,0.0,0.0,0.0,0.0,0.0,0.0,0.0,0.0,0.0,0.0,0.0,0.0,0.0,0.0,0.0,0.0,0.0,0.0,0.0,0.0,0.0,0.0,0.0,0.0,0.0,0.0,0.0,0.0,0.0,0.0,0.0,0.0,0.0,0.0,0.0,0.0,0.0,0.0,0.0,0.0,0.0,0.0,0.0,0.0,0.0,0.0,0.0,0.0,0.0,0.0,0.0,0.0,0.0,0.0,0.0,0.0,0.0,0.0,0.0,0.0,0.0,0.0,0.0,0.0,0.0,0.0,0.0,0.0,0.0,0.0,0.0,0.0,0.0,0.0,0.0,0.0,0.0,0.0,0.0,0.0,0.0,0.0,0.0,0.0,0.0,0.0,0.0,0.0,0.0,0.0,0.0,0.0,0.0,0.0,0.0,0.0,0.0,0.0,0.0,0.0,0.0,0.0,0.0,0.0,0.0,0.0,0.0,0.0,0.0,0.0,0.0,0.0,0.0,0.0,0.0,0.0,0.0,0.0,0.0,0.0,0.0,0.0,0.0,0.0,0.0,0.0,0.0,0.0,0.0,0.0,0.0,0.0,0.0,0.0,0.0,0.0,0.0,0.0,0.0,0.0,0.0,0.0,0.0,0.0,0.0,0.0,0.0,0.0,0.0,0.0,0.0,0.0,0.0,0.0,0.0,0.0,0.0,0.0,0.0,0.0,0.0,0.0,0.0,0.0,0.0,0.0,0.0,0.0,0.0,0.0,0.0,0.0,0.0,0.0,0.0,0.0,0.0,0.0,0.0,0.0,0.0,0.0,0.0,0.0,0.0,0.0,0.0,0.0,0.0,0.0,0.0,0.0,0.0,0.0,0.0,0.0,0.0,0.0,0.0,0.0,0.0,0.0,0.0,0.0,0.0,0.0,0.0,0.0,0.0,0.0,0.0,0.0,0.0,0.0,0.0,0.0,0.0,0.0,0.0,0.0,0.0,0.0,0.0,0.0,0.0,0.0,0.0,0.0,0.0,0.0,0.0,0.0,0.0,0.0,0.0,0.0,0.0,0.0,0.0,0.0,0.0,0.0,0.0,0.0,0.0,0.0,0.0,0.0,0.0,0.0,0.0,0.0,0.0,0.0,0.0,0.0,0.0,0.0,0.0,0.0,0.0,0.0,0.0,0.0,0.0,0.0,0.0,0.0,0.0,0.0,0.0,0.0,0.0,0.0,0.0,0.0,0.0,0.0,0.0,0.0,0.0,0.0,0.0,0.0,0.0,0.0,0.0,0.0,0.0,0.0,0.0,0.0,0.0,0.0,0.0,0.0,0.0,0.0,0.0,0.0,0.0,0.0,0.0,0.0,0.0,0.0,0.0,0.0,0.0,0.0,0.0,0.0,0.0,0.0,0.0,0.0,0.0,0.0,0.0,0.0,0.0,0.0,0.0,0.0,0.0,0.0,0.0,0.0,0.0,0.0,0.0,0.0,0.0,0.0,0.0,0.0,0.0,0.0,0.0,0.0,0.0,0.0,0.0,0.0,0.0,0.0,0.0,0.0,0.0,0.0,0.0,0.0,0.0,0.0,0.0,0.0,0.0,0.0,0.0,0.0,0.0,0.0,0.0,0.0,0.0,0.0,0.0,0.0,0.0,0.0,0.0,0.0,0.0,0.0,0.0,0.0,0.0,0.0,0.0,0.0,0.0,0.0,0.0,0.0,0.0,0.0,0.0,0.0,0.0,0.0,0.0,0.0,0.0,0.0,0.0,0.0,0.0,0.0,0.0,0.0,0.0,0.0,0.0,0.0,0.0,0.0,0.0,0.0,0.0,0.0,0.0,0.0,0.0,0.0,0.0,0.0,0.0,0.0,0.0,0.0,0.0,0.0,0.0,0.0,0.0,0.0,0.0,0.0,0.0,0.0,0.0,0.0,0.0,0.0,0.0,0.0,0.0,0.0,0.0,0.0,0.0,0.0,0.0,0.0,0.0,0.0,0.0,0.0,0.0,0.0,0.0,0.0,0.0,0.0,0.0,0.0,0.0,0.0,0.0,0.0,0.0,0.0,0.0,0.0,0.0,0.0,0.0,0.0,0.0,0.0,0.0,0.0,0.0,0.0,0.0,0.0,0.0,0.0,0.0,0.0,0.0,0.0,0.0,0.0,0.0,0.0,0.0,0.0,0.0,0.0,0.0,0.0,0.0,0.0,0.0,0.0,0.0,0.0,0.0,0.0,0.0,0.0,0.0,0.0,0.0,0.0,0.0,0.0,0.0,0.0,0.0,0.0,0.0,0.0,0.0,0.0,0.0,0.0,0.0,0.0,0.0,0.0,0.0,0.0,0.0,0.0,0.0,0.0,0.0,0.0,0.0,0.0,0.0,0.0,0.0,0.0,0.0,0.0,0.0,0.0,0.0,0.0,0.0,0.0,0.0,0.0,0.0,0.0,0.0,0.0,0.0,0.0,0.0,0.0,0.0,0.0,0.0,0.0,0.0,0.0,0.0,0.0,0.0,0.0,0.0,0.0,0.0,0.0,0.0,0.0,0.0,0.0,0.0,0.0,0.0,0.0,0.0,0.0,0.0,0.0,0.0,0.0,0.0,0.0,0.0,0.0,0.0,0.0,0.0,0.0,0.0,0.0,0.0,0.0,0.0,0.0,0.0,0.0,0.0,0.0,0.0,0.0,0.0,0.0,0.0,0.0,0.0,0.0,0.0,0.0,0.0,0.0,0.0,0.0,0.0,0.0,0.0,0.0,0.0,0.0,0.0,0.0,0.0,0.0,0.0,0.0,0.0,0.0,0.0,0.0,0.0,0.0,0.0,0.0,0.0,0.0,0.0,0.0,0.0,0.0,0.0,0.0,0.0,0.0,0.0,0.0,0.0,0.0,0.0,0.0,0.0,0.0,0.0,0.0,0.0,0.0,0.0,0.0,0.0,0.0,0.0,0.0,0.0,0.0,0.0,0.0,0.0,0.0,0.0,0.0,0.0,0.0,0.0,0.0,0.0,0.0,0.0,0.0,0.0,0.0,0.0,0.0,0.0,0.0,0.0,0.0,0.0,0.0,0.0,0.0,0.0,0.0,0.0,0.0,0.0,0.0,0.0,0.0,0.0,0.0,0.0,0.0,0.0,0.0,0.0,0.0,0.0,0.0,0.0,0.0,0.0,0.0,0.0,0.0,0.0,0.0,0.0,0.0,0.0,0.0,0.0,0.0,0.0,0.0,0.0,0.0,0.0,0.0,0.0,0.0,0.0,0.0,0.0,0.0,0.0,0.0,0.0,0.0,0.0,0.0,0.0,0.0,0.0,0.0,0.0,0.0,0.0,0.0,0.0,0.0,0.0,0.0,0.0,0.0,0.0,0.0,0.0,0.0,0.0,0.0,0.0,0.0,0.0,0.0,0.0,0.0,0.0,0.0,0.0,0.0,0.0,0.0,0.0,0.0,0.0,0.0,0.0,0.0,0.0,0.0,0.0,0.0,0.0,0.0,0.0,0.0,0.0,0.0,0.0,0.0,0.0,0.0,0.0,0.0,0.0,0.0,0.0,0.0,0.0,0.0,0.0,0.0,0.0,0.0,0.0,0.0,0.0,0.0,0.0,0.0,0.0,0.0,0.0,0.0,0.0,0.0,0.0,0.0,0.0,0.0,0.0,0.0,0.0,0.0,0.0,0.0,0.0,0.0,0.0,0.0,0.0,0.0,0.0,0.0,0.0,0.0,0.0,0.0,0.0,0.0,0.0,0.0,0.0,0.0,0.0,0.0,0.0,0.0,0.0,0.0,0.0,0.0,0.0,0.0,0.0,0.0,0.0,0.0,0.0,0.0,0.0,0.0,0.0,0.0,0.0,0.0,0.0,0.0,0.0,0.0,0.0,0.0,0.0,0.0,0.0,0.0,0.0,0.0,0.0,0.0,0.0,0.0,0.0,0.0,0.0,0.0,0.0,0.0,0.0,0.0,0.0,0.0,0.0,0.0,0.0,0.0,0.0,0.0,0.0,0.0,0.0,0.0,0.0,0.0,0.0,0.0,0.0,0.0,0.0,0.0,0.0,0.0,0.0,0.0,0.0,0.0,0.0,0.0,0.0,0.0,0.0,0.0,0.0,0.0,0.0,0.0,0.0,0.0,0.0,0.0,0.0,0.0,0.0,0.0,0.0,0.0,0.0,-4.5044,0.0,0.0,0.0,0.0,0.0,0.0,0.0,0.0,0.0,0.0,0.0,0.0,0.0,0.0,0.0,0.0,0.0,0.0,0.0,0.0,0.0,0.0,0.0,0.0,0.0,0.0,0.0,0.0,0.0,0.0,0.0,0.0,0.0,0.0,0.0,0.0,0.0,0.0,0.0,-3.1012,-3.0959,-3.084,-3.1636,-3.2333,-3.2984,0.0,0.0,0.0,0.0,0.0,0.0,0.0,0.0,0.0,0.0,0.0,0.0,0.0,0.0,0.0,0.0,0.0,0.0,0.0,0.0,0.0,0.0,0.0,0.0,0.0,0.0,0.0,0.0,0.0,0.0,0.0,0.0,0.0,0.0,0.0,0.0,0.0,0.0,0.0,0.0,0.0,0.0,0.0,0.0,0.0,0.0,0.0,0.0,0.0,0.0,0.0,0.0,0.0,0.0,0.0,0.0,0.0,0.0,0.0,0.0,0.0,0.0,0.0,0.0,0.0,0.0,0.0,0.0,0.0,0.0,0.0,-4.5007,0.0,0.0,0.0,0.0,0.0,0.0,0.0,0.0,0.0,0.0,0.0,0.0,0.0,0.0,0.0,0.0,0.0,0.0,0.0,0.0,0.0,0.0,0.0,0.0,0.0,0.0,0.0,0.0,0.0,0.0,0.0,0.0,0.0,0.0,0.0,-2.9339,-2.9345,-2.9216,-2.9102,-2.9227,-2.9562,-3.0071,-3.0575,-3.1105,-3.2241,0.0,0.0,0.0,0.0,0.0,0.0,0.0,0.0,0.0,0.0,0.0,0.0,0.0,0.0,0.0,0.0,0.0,0.0,0.0,0.0,0.0,0.0,0.0,0.0,0.0,0.0,0.0,0.0,0.0,0.0,0.0,0.0,0.0,0.0,0.0,0.0,0.0,0.0,0.0,0.0,0.0,0.0,0.0,0.0,0.0,0.0,0.0,0.0,0.0,0.0,0.0,0.0,0.0,0.0,0.0,0.0,0.0,0.0,0.0,0.0,0.0,0.0,0.0,-4.5364,-4.546,-4.5594,-4.5594,-4.5594,-4.5586,-4.5312,-4.5191,-4.515,-4.4837,0.0,0.0,0.0,0.0,0.0,0.0,0.0,0.0,0.0,0.0,0.0,0.0,0.0,0.0,0.0,0.0,0.0,0.0,0.0,0.0,0.0,0.0,-2.7845,0.0,0.0,0.0,0.0,0.0,0.0,0.0,0.0,0.0,-2.863,-2.9134,-2.9094,-2.8428,-2.7923,-2.7694,-2.7762,-2.8474,-2.8833,-2.8979,-3.0413,-3.1351,-3.1916,0.0,0.0,0.0,0.0,0.0,0.0,0.0,0.0,0.0,0.0,0.0,0.0,0.0,0.0,0.0,0.0,0.0,0.0,0.0,0.0,0.0,0.0,0.0,0.0,0.0,0.0,0.0,0.0,0.0,0.0,0.0,0.0,0.0,0.0,0.0,0.0,0.0,0.0,0.0,0.0,0.0,-4.0793,-4.0796,0.0,0.0,0.0,0.0,0.0,0.0,0.0,0.0,0.0,0.0,0.0,0.0,0.0,-4.3143,-4.3258,-4.3258,-4.3662,-4.447,-4.447,-4.4874,-4.5594,-4.5594,-4.5594,-4.5594,-4.5559,0.0,-4.5504,-4.5161,0.0,0.0,0.0,0.0,0.0,0.0,0.0,0.0,0.0,0.0,0.0,0.0,0.0,0.0,0.0,0.0,0.0,0.0,0.0,0.0,0.0,0.0,-2.6375,0.0,0.0,0.0,0.0,0.0,0.0,0.0,0.0,-2.6753,-2.6753,-2.7019,-2.699,-2.6651,-2.6421,-2.6277,-2.6277,-2.6608,-2.6975,-2.7399,-2.8049,-2.9225,-3.0743,-3.1338,0.0,0.0,0.0,0.0,0.0,0.0,0.0,0.0,0.0,0.0,0.0,0.0,0.0,0.0,0.0,0.0,0.0,0.0,0.0,0.0,0.0,0.0,0.0,0.0,0.0,0.0,0.0,0.0,0.0,0.0,0.0,0.0,0.0,0.0,0.0,0.0,0.0,0.0,0.0,-4.0994,-4.0877,-4.0805,-4.0747,-4.0661,0.0,0.0,0.0,0.0,0.0,0.0,0.0,0.0,0.0,-4.1066,-4.1519,-4.1993,-4.2476,-4.2476,-4.2881,-4.3673,-4.3643,-4.3835,-4.4182,-4.4182,-4.4182,-4.4182,-4.4182,-4.4182,-4.425,-4.5054,-4.5263,-4.5006,0.0,0.0,0.0,0.0,-4.235,-4.2278,0.0,0.0,0.0,0.0,0.0,0.0,0.0,0.0,0.0,0.0,0.0,0.0,-2.5134,-2.4883,-2.4743,-2.4743,0.0,0.0,0.0,0.0,0.0,0.0,0.0,-2.4967,-2.4743,-2.4558,-2.4572,-2.4797,-2.4797,-2.4797,-2.4797,-2.5217,-2.5673,-2.6229,-2.6229,-2.7465,-2.9654,-3.0112,-3.0747,-3.1551,0.0,0.0,0.0,0.0,0.0,0.0,0.0,0.0,0.0,0.0,0.0,0.0,0.0,0.0,0.0,0.0,0.0,0.0,0.0,0.0,0.0,0.0,0.0,0.0,0.0,0.0,0.0,0.0,0.0,0.0,0.0,0.0,0.0,0.0,0.0,0.0,0.0,-4.1106,-4.1002,-4.0914,-4.0824,-4.0731,0.0,0.0,0.0,0.0,0.0,0.0,-4.0559,-4.0519,-4.0519,-4.0545,-4.0655,-4.1025,-4.1685,-4.1683,-4.2085,-4.2898,-4.2815,-4.2874,-4.3104,-4.3104,-4.3104,-4.3104,-4.3104,-4.3104,-4.3201,-4.4451,-4.4805,-4.4504,-4.3753,-4.3304,-4.2999,-4.2143,-4.181,-4.1744,0.0,0.0,0.0,0.0,0.0,0.0,0.0,0.0,0.0,0.0,0.0,-2.4222,-2.4165,-2.3421,-2.2942,-2.2942,-2.2942,-2.264,0.0,0.0,-2.3473,-2.1957,-2.3356,-2.378,-2.2942,-2.2256,-2.2274,-2.3119,-2.3119,-2.3119,-2.3136,-2.467,-2.5425,-2.5453,-2.5453,-2.6608,-2.8599,-2.9003,-2.9535,-3.0207,-3.1498,0.0,0.0,0.0,0.0,0.0,0.0,0.0,0.0,0.0,0.0,0.0,0.0,0.0,0.0,0.0,0.0,0.0,0.0,0.0,0.0,0.0,0.0,0.0,0.0,0.0,0.0,0.0,0.0,0.0,0.0,0.0,0.0,0.0,0.0,0.0,0.0,0.0,0.0,-4.1171,-4.1055,0.0,0.0,0.0,0.0,-4.0781,-4.0736,-4.0697,-4.0686,-4.0574,-4.0559,-4.068,-4.0692,-4.0745,-4.0867,-4.0809,-4.1201,-4.2066,-4.1928,-4.2297,-4.3104,-4.3104,-4.3104,-4.3104,-4.3104,-4.3104,-4.3104,-4.3181,-4.3212,-4.3158,-4.2727,-4.2559,-4.2443,-4.1632,-4.1346,-4.1254,0.0,0.0,0.0,0.0,0.0,0.0,0.0,0.0,0.0,-2.2354,-2.2469,-2.2384,-2.1913,-2.1572,-2.1374,-2.1374,-2.1374,-2.126,-2.1012,0.0,-2.1584,-2.1012,-2.1553,-2.1696,-2.1405,-2.1126,-2.1138,-2.1463,-2.1463,-2.1463,-2.1463,-2.2041,-2.2867,-2.3868,-2.3868,-2.4842,-2.6544,-2.7168,-2.8045,-2.9091,-2.9839,-3.0707,0.0,0.0,0.0,0.0,0.0,0.0,0.0,0.0,0.0,0.0,0.0,0.0,0.0,0.0,0.0,0.0,0.0,0.0,0.0,0.0,0.0,0.0,0.0,0.0,0.0,0.0,0.0,0.0,0.0,0.0,0.0,0.0,0.0,0.0,0.0,0.0,0.0,-4.108,-4.1026,0.0,-4.0874,-4.0911,-4.088,-4.0752,-4.0757,-4.0757,-4.0703,-4.0642,-4.0672,-4.0752,-4.0848,-4.0896,-4.0922,-4.1464,-4.1896,-4.2204,-4.2546,-4.2865,-4.3129,-4.2533,-4.2258,-4.2239,-4.1662,-4.1439,-4.1439,-4.1439,-4.2085,-4.3038,-4.2319,-4.2054,-4.1958,-4.1095,-4.0788,-4.0758,0.0,0.0,0.0,0.0,0.0,0.0,0.0,0.0,0.0,-2.0643,-2.079,-2.0703,-2.0193,-1.989,-1.9726,-1.9726,-1.9726,-1.9726,-1.9726,0.0,-2.0042,-1.9759,-1.9432,-1.9378,-1.9673,-1.9411,-1.9553,-2.0171,-2.0171,-2.0171,-2.0171,-2.0462,-2.1161,-2.2183,-2.2183,-2.3089,-2.4614,-2.5107,-2.6277,-2.7874,-2.8341,-2.9245,-3.0375,0.0,0.0,0.0,0.0,0.0,0.0,0.0,0.0,0.0,0.0,0.0,0.0,0.0,0.0,0.0,0.0,0.0,0.0,0.0,0.0,0.0,0.0,0.0,0.0,0.0,0.0,0.0,0.0,0.0,0.0,0.0,0.0,0.0,0.0,0.0,-4.1171,-4.108,-4.1076,-4.1026,-4.093,-4.1021,-4.1014,-4.089,-4.087,-4.0859,-4.0805,-4.0762,-4.0776,-4.0864,-4.0955,-4.114,-4.1468,-4.202,-4.2442,-4.2735,-4.3104,-4.3247,-4.3169,-4.2277,-4.1848,-4.175,-4.0873,-4.0496,-4.0496,-4.0496,-4.1189,-4.2162,-4.1585,-4.1354,-4.1296,-4.0708,-4.0496,-4.0496,0.0,0.0,0.0,0.0,0.0,0.0,0.0,0.0,0.0,-2.0451,-1.9716,-1.9166,-1.9166,-1.8418,-1.794,-1.7906,-1.794,-1.794,-1.7906,-1.871,-1.8811,-1.794,-1.7035,-1.6964,-1.7799,-1.6998,-1.7419,-1.9166,-1.9166,-1.9199,-1.9233,-2.0074,-2.0526,-2.0558,-2.0558,-2.1432,-2.294,-2.294,-2.4288,-2.6443,-2.7111,-2.804,-2.9185,0.0,0.0,0.0,0.0,0.0,0.0,0.0,0.0,0.0,0.0,0.0,0.0,0.0,0.0,0.0,0.0,0.0,0.0,0.0,0.0,0.0,0.0,0.0,0.0,0.0,0.0,0.0,0.0,0.0,0.0,0.0,0.0,0.0,-4.1171,-4.1191,-4.1191,-4.1191,-4.1191,-4.1191,-4.1191,-4.1191,-4.1191,-4.1191,-4.1078,-4.0996,-4.0996,-4.0874,-4.0867,-4.0996,-4.1017,-4.1448,-4.2383,-4.2367,-4.2778,-4.3636,-4.351,-4.3388,-4.3226,-4.2387,-4.1937,-4.1766,-4.0881,-4.0496,-4.0496,-4.0496,-4.0496,-4.0496,-4.0496,-4.0496,-4.0496,-4.0496,-4.0496,-4.0496,0.0,0.0,0.0,0.0,0.0,0.0,0.0,0.0,-1.7459,-1.6764,-1.6462,-1.6341,-1.6341,-1.6706,-1.6715,-1.6018,-1.6576,-1.6715,-1.6018,-1.621,-1.6201,-1.5983,-1.5728,-1.5685,-1.5957,-1.572,-1.5825,-1.6341,-1.6341,-1.6688,-1.7351,-1.758,-1.8392,-1.9661,-1.9661,-2.0246,-2.1255,-2.1255,-2.2293,-2.4131,-2.5983,-2.7198,-2.795,0.0,0.0,0.0,0.0,0.0,0.0,0.0,0.0,0.0,0.0,0.0,0.0,0.0,0.0,0.0,0.0,0.0,0.0,0.0,0.0,0.0,0.0,0.0,0.0,0.0,0.0,0.0,0.0,0.0,0.0,0.0,0.0,-4.1051,-4.1171,-4.1191,-4.1191,-4.1191,-4.1191,-4.1191,-4.1191,-4.1191,-4.1151,-4.1055,-4.1023,-4.0996,-4.0996,-4.0962,-4.1017,-4.1149,-4.1149,-4.1542,-4.2383,-4.3006,-4.3747,-4.4607,-4.4475,-4.4395,-4.4309,-4.2722,-4.197,-4.1899,-4.0923,-4.0496,-4.0496,-4.0496,-4.0496,-4.0496,-4.0496,-4.0496,-4.0496,-4.0496,-4.0496,-4.0496,0.0,0.0,0.0,0.0,0.0,0.0,0.0,0.0,-1.5825,-1.5269,-1.5199,-1.5199,-1.5199,-1.5693,-1.579,-1.5234,-1.5685,-1.579,-1.5234,-1.5199,-1.5021,-1.4593,-1.4557,-1.4557,-1.4557,-1.4557,-1.4772,-1.5199,-1.5199,-1.5482,-1.6,-1.6,-1.6584,-1.7614,-1.7997,-1.8649,-1.9498,-1.9901,-2.0812,-2.2152,-2.3832,-2.5328,-2.6631,-2.7309,-2.8134,-2.8942,-2.9188,-2.9653,-3.022,-3.0743,0.0,0.0,0.0,0.0,0.0,0.0,0.0,0.0,0.0,0.0,0.0,0.0,0.0,0.0,0.0,0.0,0.0,0.0,0.0,0.0,0.0,0.0,0.0,0.0,-4.0832,-4.0912,-4.1021,-4.1128,-4.1191,-4.1191,-4.1191,-4.1191,-4.1191,-4.1191,-4.1171,-4.1082,-4.1081,-4.1081,-4.1081,-4.1081,-4.1126,-4.1191,-4.1191,-4.1582,-4.2383,-4.2891,-4.3594,-4.4453,-4.4388,-4.4312,-4.425,-4.2794,-4.2102,0.0,-4.1033,-4.0629,-4.0629,-4.0629,-4.0604,0.0,0.0,0.0,0.0,0.0,-4.0496,-4.0496,0.0,0.0,0.0,0.0,0.0,0.0,0.0,0.0,-1.4985,-1.4879,-1.4879,-1.4879,-1.4879,-1.4985,-1.4985,-1.4879,-1.4985,-1.4985,-1.4879,-1.4764,-1.4299,-1.3411,-1.3266,-1.3186,-1.3186,-1.3186,-1.365,-1.4534,-1.4649,-1.4756,-1.4863,-1.4977,-1.5092,-1.5234,-1.607,-1.6876,-1.7658,-1.8593,-1.9508,-2.0375,-2.1123,-2.2907,-2.5204,-2.5818,-2.6533,-2.7244,-2.7893,-2.8513,-2.9155,-2.9648,0.0,0.0,0.0,0.0,0.0,0.0,0.0,0.0,0.0,0.0,0.0,0.0,0.0,0.0,0.0,0.0,0.0,0.0,0.0,0.0,0.0,0.0,0.0,0.0,-4.0736,-4.0724,-4.0784,-4.0994,-4.1151,-4.1171,-4.1171,-4.1172,-4.1191,-4.1191,-4.1191,-4.1191,-4.1191,-4.1191,-4.1191,0.0,0.0,0.0,0.0,-4.1582,-4.2383,-4.2402,-4.2832,-4.3691,-4.3594,-4.3511,-4.3422,-4.254,-4.2073,-4.1902,-4.1135,-4.0773,-4.076,-4.076,-4.0732,-4.0681,-4.0545,-4.0496,-4.0496,-4.0496,-4.0496,-4.0496,0.0,0.0,0.0,0.0,0.0,0.0,0.0,0.0,-1.3702,-1.2952,-1.2879,-1.2879,-1.2879,-1.3528,-1.3709,-1.2908,-1.3557,-1.3665,-1.2915,-1.2117,-1.1551,-1.1378,-1.0596,-1.0153,-1.0153,-1.0153,-1.026,-1.0435,-1.1255,-1.2024,-1.2809,-1.3614,-1.4414,-1.5199,-1.5376,-1.5579,-1.5773,-1.6722,-1.7629,-1.8499,-1.94,-2.126,-2.355,-2.4251,-2.5038,-2.589,-2.6596,-2.6923,-2.7232,-2.8401,-2.8802,-2.9011,-3.0168,-3.1016,0.0,0.0,0.0,0.0,0.0,0.0,0.0,0.0,0.0,0.0,0.0,0.0,0.0,0.0,0.0,0.0,0.0,0.0,0.0,-4.057,-4.0636,-4.0709,-4.0718,-4.082,-4.0917,-4.1025,-4.1049,-4.108,-4.1191,-4.1191,-4.1191,-4.1191,-4.1191,-4.1191,-4.1191,-4.1191,-4.1191,-4.1191,-4.1191,-4.1582,-4.2383,-4.2402,-4.2832,-4.3691,0.0,0.0,-4.2596,-4.1677,-4.1176,-4.1046,-4.081,-4.0654,-4.0568,-4.0568,-4.0547,-4.0549,-4.0512,-4.0496,-4.0496,-4.0496,-4.0496,-4.0496,0.0,0.0,0.0,0.0,0.0,0.0,0.0,0.0,-1.1341,-1.087,-1.0801,-1.0801,-1.0801,-1.1236,-1.1304,-1.0832,-1.1236,-1.1304,-1.0838,-1.0346,-1.004,-1.004,-0.9556,-0.9296,-0.9296,-0.9296,-0.9296,-0.9296,-0.982,-1.0297,-1.0765,-1.1255,-1.2031,-1.3012,-1.3476,-1.3996,-1.4522,-1.5473,-1.6158,-1.6617,-1.758,-1.893,-2.0581,-2.1865,-2.3124,-2.4244,-2.4615,-2.5259,-2.6054,-2.6727,-2.7181,-2.7635,-2.8436,-2.9243,-3.0192,0.0,0.0,0.0,0.0,0.0,0.0,0.0,0.0,0.0,0.0,0.0,0.0,0.0,0.0,-4.0372,0.0,0.0,-4.0588,-4.0512,-4.0559,-4.0596,-4.0596,-4.0636,-4.0708,-4.0874,-4.0959,-4.1025,-4.1083,-4.1151,-4.1191,-4.1191,-4.1191,-4.1191,-4.1191,-4.1191,-4.1191,-4.1191,-4.1191,-4.1387,-4.1797,-4.1797,-4.2012,-4.2441,-4.2012,-4.1797,-4.1777,-4.1304,-4.1056,-4.0994,-4.0964,-4.0903,-4.0832,-4.0707,-4.0636,-4.0589,-4.0534,-4.0496,-4.0496,-4.0496,-4.0496,-4.0496,0.0,0.0,0.0,0.0,0.0,0.0,0.0,0.0,0.0,-0.9296,-0.9296,-0.9296,-0.9296,-0.9296,-0.9296,-0.9296,-0.9296,-0.9296,-0.9296,-0.9107,-0.8998,-0.8998,-0.8808,-0.8732,-0.8732,-0.8732,-0.8732,-0.8732,-0.8917,-0.8998,-0.8998,-0.9221,-0.9744,-1.0559,-1.1501,-1.2391,-1.3222,-1.4406,-1.4914,-1.4985,-1.593,-1.6842,-1.7803,-1.9269,-2.0968,-2.2548,-2.2687,-2.368,-2.4952,-2.5106,-2.5645,-2.6375,-2.6854,-2.753,-2.8414,-3.0068,-3.0995,0.0,0.0,0.0,0.0,0.0,0.0,0.0,0.0,-3.8939,-3.9383,-3.9383,-3.9712,-4.0002,-4.0002,-4.0232,-4.0414,-4.0414,-4.0465,-4.0496,-4.0496,-4.0496,-4.0556,-4.0728,-4.087,-4.0944,-4.0957,-4.1055,-4.1129,-4.1151,-4.1151,-4.1171,-4.1191,-4.1191,-4.1191,-4.1191,-4.1191,-4.1191,-4.1191,-4.1191,-4.1191,-4.1191,-4.1191,-4.1191,-4.1191,-4.1191,-4.1191,-4.1151,-4.1129,-4.1126,-4.1104,-4.088,-4.0767,-4.0686,-4.0568,-4.0527,-4.0496,-4.0496,-4.0496,-4.0496,0.0,0.0,0.0,0.0,0.0,0.0,0.0,0.0,0.0,-0.9296,-0.9296,-0.9296,0.0,0.0,-0.9296,-0.9296,-0.9296,-0.9296,-0.9296,-0.8466,-0.7974,-0.7974,-0.7099,-0.6644,-0.6644,-0.6644,-0.6644,-0.6644,-0.7518,-0.7974,-0.7974,-0.8879,-0.9372,-0.9523,-1.0522,-1.1007,-1.123,-1.3077,-1.3882,-1.3954,-1.495,-1.5895,-1.6766,-1.6964,-1.8629,-2.0939,-2.1611,-2.2469,-2.3373,-2.4006,-2.4799,-2.5536,-2.5605,-2.6135,-2.689,-2.761,-2.8343,-2.9294,-3.111,-3.281,-3.429,-3.506,-3.5789,-3.6488,0.0,-3.7985,-3.8531,-3.8531,-3.9124,-3.9656,-3.9656,-3.9922,-4.0139,-4.0139,-4.0347,-4.0496,-4.0496,-4.0496,-4.0512,-4.0537,-4.0655,-4.0762,-4.0828,-4.0847,-4.0883,-4.1,-4.1023,-4.1078,-4.1191,-4.1191,-4.1191,-4.1191,-4.1191,-4.1191,-4.1191,-4.1191,-4.1191,-4.1191,-4.1191,-4.1191,-4.1191,-4.1191,-4.1148,-4.1021,-4.0905,-4.0831,-4.0831,-4.0809,-4.0767,-4.0697,-4.068,-4.0603,-4.0496,-4.0496,-4.0496,-4.0496,0.0,0.0,0.0,0.0,0.0,0.0,0.0,0.0,0.0,0.0,0.0,0.0,0.0,-0.7003,-0.6374,-0.5745,-0.6255,-0.6371,-0.5745,-0.5877,-0.5726,-0.5101,-0.4681,-0.4453,-0.4453,-0.4453,-0.4727,-0.5354,-0.5774,-0.6318,-0.6945,-0.7365,-0.7859,-0.8466,-0.948,-1.0265,-1.0895,-1.2278,-1.2879,-1.2989,-1.3954,-1.4557,-1.4977,-1.5544,-1.6817,-1.8439,-1.9803,-2.1201,0.0,0.0,-2.369,-2.4766,-2.4766,-2.5259,-2.6,-2.6689,-2.7329,-2.8216,-2.9775,-3.1057,-3.2126,-3.2795,-3.4018,-3.5258,-3.5935,-3.6931,-3.77,-3.77,-3.8334,-3.8892,-3.8892,-3.94,-3.9808,0.0,-3.9903,-4.0034,-4.0241,-4.0278,-4.033,-4.0481,-4.0545,-4.0623,-4.0736,-4.0779,-4.0816,-4.0874,-4.0877,-4.0911,-4.0962,-4.1049,-4.1081,-4.1081,-4.1151,-4.1191,-4.1191,-4.1191,-4.1191,-4.1191,-4.1191,-4.1191,-4.1191,-4.1191,-4.1171,-4.1106,-4.1054,-4.099,-4.0917,-4.0917,-4.0847,-4.0762,-4.0762,-4.0713,-4.0663,-4.054,-4.0496,-4.0496,0.0,0.0,0.0,0.0,0.0,0.0,0.0,0.0,0.0,0.0,0.0,0.0,0.0,-0.4727,-0.3943,-0.3163,-0.3826,-0.3943,-0.3163,-0.3826,-0.3904,-0.3124,-0.3085,-0.3085,-0.3085,-0.3085,-0.3474,-0.4256,-0.4569,-0.5079,-0.5867,-0.618,-0.6834,-0.7859,-0.8841,-0.9857,-1.0858,-1.1879,-1.2305,-1.2372,-1.3025,-1.3455,-1.3781,-1.4522,-1.5544,-1.6766,-1.8075,-1.9694,0.0,-2.1175,-2.2274,-2.3623,-2.3623,-2.4323,-2.5203,-2.5728,-2.6359,-2.7107,-2.8275,-2.9124,-2.984,-3.0687,-3.2249,-3.3808,-3.4643,-3.5774,-3.6735,-3.6946,-3.756,-3.8118,-3.823,-3.8809,-3.9314,-3.9438,-3.9541,-3.9679,-3.9922,-4.0032,-4.0167,-4.0364,-4.0457,-4.0453,-4.0333,-4.0563,-4.0738,-4.077,-4.077,-4.0784,-4.0797,-4.0883,-4.0959,-4.0996,-4.1083,-4.1151,-4.1191,-4.1191,-4.1074,-4.084,-4.084,-4.0723,-4.0488,-4.0488,-4.0488,-4.0488,-4.0488,-4.0427,-4.033,-4.033,-4.0262,-4.0133,-4.0133,-4.0139,-4.0092,-3.9952,-4.0163,-4.0526,0.0,0.0,0.0,0.0,0.0,0.0,0.0,0.0,0.0,0.0,0.0,0.0,0.0,-0.3163,-0.3124,-0.3085,-0.3124,-0.3124,-0.3085,-0.3124,-0.3124,-0.3085,-0.3085,-0.3085,-0.3085,-0.3085,-0.3124,-0.3163,-0.4178,-0.4727,-0.4766,-0.5825,-0.6834,-0.7859,-0.8841,-0.9857,-1.0858,-1.1879,-1.2305,-1.2305,-1.2342,-1.2879,-1.3709,-1.3745,-1.4942,-1.6602,-1.6671,0.0,-1.9365,-1.9365,-2.0526,-2.197,-2.197,-2.3058,-2.435,-2.435,-2.4908,-2.5618,-2.639,-2.7027,-2.784,-2.9277,-3.0578,-3.1863,-3.333,-3.4533,-3.5555,-3.6281,-3.6862,-3.7378,-3.7825,-3.8184,-3.8597,-3.9039,-3.9377,-3.9599,-3.9611,-3.9901,-4.0101,-4.011,-4.0347,-4.0208,0.0,-4.005,-4.0554,-4.0692,-4.0703,-4.0731,-4.0793,-4.0801,-4.0867,-4.0994,-4.0998,-4.1077,-4.1191,-4.1191,-4.0781,-3.9941,-3.9941,-3.9492,-3.8672,-3.8672,-3.8672,-3.8672,-3.8672,-3.8672,-3.8672,-3.8672,-3.8586,-3.8471,-3.8471,-3.843,-3.8385,-3.8377,-3.936,-4.0551,0.0,0.0,0.0,0.0,0.0,0.0,0.0,0.0,0.0,0.0,0.0,0.0,0.0,0.0,0.0,0.0,-0.1683,-0.1801,-0.1097,-0.1722,-0.1801,-0.1058,-0.1058,-0.1058,-0.1058,-0.1058,-0.1409,-0.2113,-0.2465,-0.3361,-0.4727,-0.5079,-0.578,-0.6872,-0.8542,-0.9485,-0.9933,-1.1589,-1.2305,-1.2305,-1.2305,-1.2482,-1.2769,-1.2769,-1.3983,-1.5685,0.0,0.0,-1.9299,-1.9299,-2.0074,-2.1049,-2.1049,-2.1404,-2.2065,-2.3114,-2.4357,-2.5563,-2.6283,-2.664,-2.7137,-2.8532,-2.9548,-3.0558,-3.1845,-3.3178,-3.4363,-3.5015,-3.5966,-3.6724,-3.6884,-3.7542,-3.8107,-3.8287,-3.8696,-3.9059,-3.9244,-3.9383,-3.9529,-3.9742,-3.9528,0.0,0.0,0.0,0.0,-3.8947,-3.8915,-3.8923,-3.8942,-3.9032,-3.9102,-3.9146,-3.9195,-3.9238,-3.9282,-3.9282,-3.9142,-3.8911,-3.8983,-3.8887,-3.8594,-3.8594,-3.8594,-3.8594,-3.8594,-3.8594,-3.8594,-3.8594,-3.8573,-3.8531,-3.8531,-3.8526,-3.8494,-3.84,-3.8717,-3.9103,0.0,0.0,0.0,0.0,0.0,0.0,0.0,0.0,0.0,0.0,0.0,0.0,0.0,0.0,0.0,0.0,0.0,-0.0157,0.051,0.0274,0.0391,0.1096,0.1096,0.1096,0.1096,0.0745,0.0235,-0.047,-0.1214,-0.2465,-0.4139,-0.453,-0.5657,-0.7442,-0.8727,-0.9712,-1.0458,-1.1737,-1.2305,-1.2305,-1.2305,-1.2305,-1.2335,-1.2659,-1.381,0.0,0.0,-1.7042,-1.8854,-1.8854,-1.9398,-2.0139,-2.0139,-2.0365,-2.0867,-2.2207,-2.3323,-2.437,-2.5412,-2.5701,-2.604,-2.7449,-2.8301,-2.9171,-3.0443,-3.1671,-3.2728,-3.3606,-3.4646,-3.5506,-3.5918,-3.6749,-3.7433,-3.7614,-3.8083,-3.8473,-3.8641,-3.8656,-3.8743,-3.8969,-3.8539,-3.8108,0.0,0.0,0.0,-3.8,-3.8007,-3.8007,-3.8007,-3.8074,-3.8141,-3.8202,-3.8233,-3.8276,-3.8293,-3.8293,-3.8159,-3.791,-3.7668,-3.7587,-3.7632,-3.7632,-3.7654,-3.7676,-3.7676,-3.7676,-3.7676,-3.7676,-3.7676,-3.7676,-3.7676,-3.7676,-3.7656,-3.7568,-3.7541,-3.7569,0.0,0.0,0.0,0.0,0.0,0.0,0.0,0.0,0.0,0.0,0.0,0.0,0.0,0.0,0.0,0.0,0.0,0.0,0.1528,0.2425,0.2968,0.3007,0.3007,0.3046,0.3085,0.2113,0.1607,0.1607,-0.0509,-0.2035,-0.3046,-0.41,-0.6224,-0.9069,-0.9183,-1.0308,-1.215,-1.2187,-1.2261,-1.2305,-1.2305,-1.2305,-1.2409,-1.328,-1.4243,0.0,-1.6175,-1.7104,-1.7872,-1.7974,-1.8563,-1.9243,-1.9243,-1.9814,-2.0687,-2.1522,-2.1815,-2.2175,-2.38,-2.4221,-2.4582,-2.6054,-2.6868,-2.7675,-2.9147,-2.9951,-3.0785,-3.2173,-3.3034,-3.3895,0.0,0.0,-3.6522,-3.7058,-3.7524,-3.7805,-3.7805,-3.7764,-3.7761,0.0,0.0,0.0,0.0,0.0,0.0,-3.7725,0.0,-3.7851,-3.7858,-3.7858,-3.7912,-3.805,-3.8056,-3.8084,-3.8162,-3.8166,-3.7757,-3.6913,-3.6096,-3.5764,-3.5898,-3.5898,-3.5919,-3.5976,-3.5976,-3.5996,-3.5996,-3.5996,-3.5996,-3.5996,-3.5996,-3.5996,-3.5996,-3.5996,-3.5996,-3.6092,0.0,0.0,0.0,0.0,0.0,0.0,0.0,0.0,0.0,0.0,0.0,0.0,0.0,0.0,0.0,0.0,0.0,0.0,0.0392,0.0666,0.1136,0.1957,0.1996,0.2347,0.3085,0.2113,0.1607,0.1607,0.0235,-0.0941,-0.1996,-0.3047,-0.4368,-0.5957,-0.7502,-0.8879,-1.0121,-1.0864,-1.162,-1.2305,-1.2305,-1.2305,-1.2342,-1.2556,-1.3237,-1.4207,-1.5199,-1.5693,-1.6123,-1.7545,-1.8144,-1.8337,-1.8337,-1.8921,-1.9694,-1.989,-2.043,-2.1279,-2.2892,-2.3323,-2.3706,-2.5287,-2.5796,-2.6267,-2.766,-2.8505,-2.954,-3.1382,-3.2337,-3.325,-3.4532,-3.5251,0.0,-3.6484,-3.6528,0.0,-3.6488,-3.6018,0.0,-3.6131,0.0,-3.5459,-3.5593,-3.5238,0.0,0.0,-3.5543,-3.5626,-3.5829,-3.5837,-3.596,-3.619,-3.6196,-3.6196,-3.6207,-3.626,-3.6173,-3.5955,-3.5788,-3.5717,-3.5755,-3.5755,-3.5766,-3.5785,-3.5785,-3.583,-3.5938,-3.5938,-3.595,-3.5996,-3.5996,-3.5996,-3.5996,-3.5996,-3.5996,-3.6015,0.0,0.0,0.0,0.0,0.0,0.0,0.0,0.0,0.0,0.0,0.0,0.0,0.0,0.0,0.0,0.0,0.0,0.0,0.0,0.043,0.1173,0.2229,0.2268,0.2735,0.3787,0.2348,0.1802,0.2268,0.0745,-0.0784,-0.2268,-0.2852,-0.4174,-0.6118,-0.7276,-0.8613,-1.0008,-1.0565,-1.1391,0.0,0.0,-1.2305,-1.2372,-1.3237,-1.3918,-1.4486,-1.5473,-1.5825,-1.5974,-1.7035,-1.7647,-1.8008,-1.8008,-1.8337,-1.8821,-1.9177,-1.9661,-2.0386,-2.2053,-2.2524,-2.2917,-2.4511,-2.4922,-2.5189,-2.6277,-2.7091,-2.8032,-2.9416,-3.053,-3.1676,-3.2991,-3.3501,-3.4039,0.0,0.0,0.0,-3.5161,-3.473,-3.4478,0.0,-3.4184,0.0,-3.4448,-3.4221,-3.4116,0.0,-3.4559,-3.4773,-3.4917,-3.4926,-3.5053,-3.5312,-3.532,-3.5376,-3.55,-3.554,-3.557,-3.557,-3.5595,-3.5626,-3.5659,-3.5659,-3.5663,-3.5707,0.0,-3.5732,-3.5807,-3.5807,-3.5861,-3.597,-3.597,-3.5974,-3.5996,-3.5996,-3.5996,-3.5996,0.0,0.0,0.0,0.0,0.0,0.0,0.0,0.0,0.0,0.0,0.0,0.0,0.0,0.0,0.0,0.0,0.0,0.0,0.0,0.0,0.1439,0.2417,0.2457,0.2963,0.4055,0.2188,0.1602,0.2457,0.0548,-0.1409,-0.3315,-0.3431,-0.5057,-0.7812,-0.7931,-0.9021,-1.0783,-1.0783,-1.1391,-1.2305,-1.2305,-1.2305,-1.2482,0.0,0.0,-1.5128,-1.593,-1.6463,-1.674,-1.6498,-1.7104,-1.8008,-1.8008,-1.8008,-1.8144,-1.8911,-1.9144,-1.9497,-2.1239,-2.1721,-2.2113,-2.3754,-2.4147,-2.4337,-2.5091,-2.5755,-2.6443,-2.724,-2.842,-2.9738,-3.1125,-3.1438,-3.1863,-3.3065,0.0,-3.323,-3.3758,-3.3577,-3.3388,-3.344,-3.2823,-3.2599,-3.306,-3.3124,-3.3273,-3.3694,-3.4213,-3.454,-3.4632,-3.4643,-3.4764,-3.5044,-3.5088,-3.5215,-3.5446,-3.5486,-3.55,-3.55,-3.55,-3.5522,-3.5579,-3.5579,-3.5626,-3.5667,-3.5667,0.0,-3.5686,-3.5686,-3.5758,-3.5873,-3.59,-3.5942,-3.5995,-3.5996,-3.5996,-3.5996,0.0,0.0,0.0,0.0,0.0,0.0,0.0,0.0,0.0,0.0,-1.0387,-0.8358,0.0,0.0,0.0,0.0,0.0,0.0,0.0,0.0,0.0,-0.0816,-0.0777,-0.0272,0.0775,-0.0388,-0.0972,-0.0777,-0.1988,-0.3156,-0.4344,-0.5239,-0.6391,-0.7766,-0.8632,-0.9707,-1.0783,-1.0783,-1.1391,-1.2305,-1.2305,-1.2305,-1.2335,0.0,0.0,0.0,-1.4135,-1.5728,-1.7501,-1.5983,-1.6576,-1.8008,-1.8008,-1.8008,-1.8042,-1.8168,-1.8236,-1.863,-2.0365,-2.0814,-2.1227,-2.2902,-2.3305,-2.3514,-2.4308,-2.4595,-2.5199,-2.709,-2.7671,-2.8471,-3.0396,-3.0763,-3.102,-3.179,-3.181,-3.1767,-3.1874,-3.1725,-3.177,0.0,-3.2002,-3.2109,-3.2583,-3.2616,0.0,0.0,0.0,-3.371,-3.4265,-3.43,-3.4434,-3.4754,-3.4981,-3.5122,-3.5174,-3.5383,-3.55,-3.55,-3.55,-3.5514,-3.5528,-3.5528,-3.5528,-3.5534,-3.5534,0.0,-3.5626,-3.5626,-3.5659,-3.5752,-3.5867,-3.5907,-3.5917,-3.5975,-3.5996,-3.5996,0.0,0.0,0.0,0.0,0.0,0.0,0.0,-1.435,-1.3709,-1.3709,-1.205,-1.0484,-0.9439,-0.8836,-0.8116,0.0,0.0,0.0,0.0,0.0,0.0,0.0,0.0,0.0,-0.2418,-0.3429,-0.3701,-0.3154,0.0,-0.5222,-0.6218,-0.6725,-0.7537,-0.8543,-0.9059,-0.9857,-1.0783,-1.0783,-1.1391,-1.2305,-1.2305,-1.2586,0.0,0.0,0.0,0.0,-1.4494,-1.5693,-1.7139,-1.6219,-1.6862,-1.8008,-1.8008,-1.8008,-1.8008,-1.8008,-1.8008,-1.8269,-1.9562,-2.0236,-2.091,-2.2156,-2.2793,-2.3198,-2.3603,-2.4002,-2.4589,-2.563,-2.6452,-2.7387,-2.8752,-2.902,-2.9371,-3.0357,-3.0156,-3.0113,-3.0739,-3.0775,-3.0922,-3.1432,-3.1488,-3.1658,-3.2092,-3.2144,-3.2315,-3.2793,0.0,-3.3174,-3.3943,-3.4123,-3.4258,-3.4423,-3.4725,-3.4898,-3.4898,-3.5166,-3.5289,-3.5297,-3.5432,-3.5432,-3.5289,-3.5289,-3.5289,-3.5289,-3.5289,0.0,-3.5546,-3.5546,-3.5585,-3.5646,-3.5717,-3.5765,-3.5805,-3.5834,-3.5843,-3.5846,0.0,0.0,0.0,0.0,0.0,0.0,0.0,-1.495,-1.4307,-1.4307,-1.3484,-1.2609,-1.1846,-1.0671,-0.9933,0.0,0.0,0.0,0.0,0.0,0.0,0.0,0.0,0.0,0.0,0.0,0.0,-0.5913,-0.6742,0.0,0.0,0.0,0.0,0.0,-1.0548,-1.0995,-1.1736,-1.1736,-1.2191,0.0,0.0,-1.3339,0.0,0.0,0.0,0.0,0.0,-1.6114,-1.6888,-1.6671,-1.7207,-1.8008,-1.8008,-1.8008,-1.8008,-1.8008,-1.8008,-1.8202,-1.9077,-1.9814,-2.0526,-2.1396,-2.2249,-2.2854,-2.2854,-2.3471,-2.4089,-2.4263,-2.5342,-2.6467,-2.7158,-2.7465,-2.7926,-2.8943,-2.8771,-2.8826,-2.9783,-3.0038,-3.033,-3.0955,-3.1015,0.0,-3.1623,-3.1678,0.0,0.0,0.0,0.0,-3.3476,-3.3821,-3.3994,-3.3994,-3.4379,-3.4582,-3.4582,-3.487,-3.5008,-3.5008,-3.5223,-3.5215,-3.5008,-3.5008,-3.5008,-3.5008,-3.5008,0.0,0.0,-3.5405,-3.547,-3.5588,-3.5595,-3.5635,-3.5678,-3.5696,-3.5707,-3.5717,0.0,0.0,0.0,0.0,0.0,0.0,0.0,-1.6932,-1.6315,-1.6315,-1.5508,-1.4914,-1.4799,-1.315,-1.1983,0.0,0.0,0.0,0.0,0.0,0.0,0.0,0.0,0.0,0.0,0.0,0.0,-1.0133,-1.0256,0.0,0.0,0.0,0.0,0.0,0.0,-1.472,-1.4799,-1.4799,0.0,0.0,0.0,0.0,0.0,0.0,0.0,0.0,0.0,-1.707,-1.7759,-1.6888,-1.7207,-1.8008,-1.8008,-1.8008,-1.8008,-1.8008,-1.8008,-1.8202,-1.9077,-1.9365,-1.9628,-2.0494,-2.1365,-2.2002,-2.2002,-2.2628,-2.3424,-2.4147,-2.4922,-2.5715,-2.6449,-2.713,-2.764,-2.775,-2.8171,-2.8535,-2.8654,-2.9134,-2.9695,-3.0314,0.0,0.0,-3.1193,-3.1269,0.0,0.0,0.0,0.0,-3.2616,-3.3042,-3.3284,-3.3284,-3.39,-3.4253,-3.4253,-3.4572,-3.4753,-3.4734,-3.4754,-3.4754,-3.4753,-3.4753,-3.4753,-3.4753,-3.4753,0.0,0.0,-3.513,-3.5278,-3.5521,-3.5577,-3.5596,-3.5621,-3.5671,-3.5707,-3.5707,0.0,0.0,0.0,0.0,0.0,0.0,-1.8008,-1.7207,-1.6602,-1.6602,-1.579,-1.5199,-1.5199,-1.4522,-1.4047,-1.4024,0.0,0.0,0.0,0.0,0.0,0.0,0.0,0.0,0.0,0.0,-1.3027,-1.3418,-1.3418,0.0,0.0,0.0,0.0,0.0,0.0,-1.5199,-1.5199,-1.5199,0.0,0.0,0.0,0.0,0.0,0.0,0.0,0.0,0.0,0.0,-1.794,-1.7569,-1.7681,-1.8008,-1.8008,-1.8008,-1.8008,-1.8008,-1.8008,-1.8076,-1.8428,-1.8888,-1.9365,-1.9716,-2.0878,-2.1908,-2.1908,-2.2506,-2.3198,-2.3514,-2.4192,-2.4823,-2.5119,-2.6135,-2.693,-2.693,-2.7519,-2.8091,-2.8439,-2.8724,-2.9065,-2.9695,-2.9761,0.0,0.0,0.0,-3.0339,0.0,0.0,0.0,-3.1712,-3.2384,-3.2777,-3.2777,-3.3321,-3.3588,-3.3588,-3.4128,-3.4401,-3.4401,-3.4593,-3.4582,-3.4401,-3.4401,-3.4401,-3.4401,-3.4401,0.0,0.0,-3.487,-3.5008,-3.5254,-3.528,-3.5398,-3.5534,-3.556,-3.5582,-3.5599,0.0,0.0,0.0,0.0,0.0,-1.8008,-1.8008,-1.7432,-1.6991,-1.6991,-1.6437,-1.6018,-1.6018,-1.6245,-1.6401,-1.6401,-1.5922,0.0,0.0,0.0,0.0,0.0,0.0,0.0,0.0,0.0,-1.534,-1.5614,-1.5878,-1.6158,0.0,0.0,-1.6789,-1.6789,0.0,0.0,0.0,0.0,0.0,0.0,0.0,0.0,0.0,0.0,0.0,0.0,0.0,0.0,0.0,0.0,0.0,-1.8008,-1.8008,-1.8008,-1.8008,-1.8008,-1.8008,-1.8008,-1.8008,-1.8462,-1.8921,-1.8921,-2.0042,-2.1207,-2.1459,-2.2156,-2.2823,-2.3047,-2.3738,-2.4292,-2.4292,-2.5315,-2.6176,-2.6176,-2.68,-2.7418,-2.7839,-2.81,-2.8463,-2.9042,0.0,-2.9203,0.0,-2.9406,0.0,0.0,0.0,0.0,-3.119,-3.1769,-3.2161,-3.2299,-3.2745,-3.2999,-3.2999,-3.3597,-3.3887,-3.3918,-3.4253,-3.4242,-3.3918,-3.4025,-3.4025,-3.3918,-3.4037,0.0,0.0,-3.4551,-3.4715,-3.4981,-3.4981,-3.5096,-3.5254,-3.5254,-3.5254,-3.527,0.0,0.0,0.0,0.0,0.0,0.0,-1.8008,-1.7974,-1.7974,-1.7974,-1.7974,-1.7974,-1.7974,-1.8754,-1.9266,-1.9266,-1.7624,0.0,0.0,0.0,0.0,0.0,0.0,0.0,0.0,0.0,-1.5649,-1.6602,-1.744,-1.8362,-1.9266,-2.0139,-2.0558,-2.0558,0.0,0.0,0.0,0.0,0.0,0.0,0.0,0.0,0.0,0.0,0.0,0.0,0.0,0.0,0.0,0.0,0.0,0.0,0.0,-1.8008,-1.8008,-1.8008,-1.8008,-1.8008,-1.8008,-1.8008,-1.8008,-1.8008,-1.8687,-1.9562,-2.043,-2.1302,-2.2125,-2.2944,-2.3738,-2.4292,-2.4292,-2.4894,-2.5398,-2.5398,-2.6041,-2.651,-2.651,-2.7152,-2.7835,0.0,0.0,-2.8732,-2.9339,-2.9406,0.0,0.0,0.0,0.0,-3.1171,-3.121,-3.1408,-3.1789,-3.2247,-3.2517,-3.2517,-3.2983,-3.3214,-3.3214,-3.3606,-3.3592,-3.3229,-3.362,-3.3578,0.0,0.0,0.0,0.0,-3.42,-3.4401,-3.4694,-3.4694,-3.4723,-3.4704,-3.4704,-3.4704,-3.4704,0.0,0.0,0.0,0.0,0.0,0.0,0.0,-1.8877,-1.8654,-1.8076,-1.8008,-1.8008,-1.8008,-1.8787,-1.9299,-1.9299,-1.9333,0.0,0.0,0.0,0.0,0.0,0.0,0.0,0.0,0.0,-1.9038,-1.9345,-1.9607,-1.9912,-2.0204,-2.0462,-2.059,-2.059,-2.059,-2.0462,0.0,0.0,0.0,0.0,0.0,0.0,0.0,0.0,0.0,0.0,0.0,0.0,0.0,0.0,0.0,0.0,0.0,0.0,0.0,-1.8008,-1.8008,-1.8008,-1.8008,-1.8008,-1.8008,-1.8008,-1.8664,-1.9365,-1.9661,-2.0398,-2.1259,-2.2094,-2.2494,-2.2816,-2.3382,-2.4105,-2.4652,-2.4652,-2.5259,-2.5933,0.0,0.0,0.0,-2.7795,-2.787,-2.7968,0.0,0.0,0.0,0.0,0.0,0.0,-3.0539,-3.058,-3.0825,-3.1372,-3.1806,-3.2022,-3.2022,-3.2501,-3.2713,-3.2713,-3.2856,-3.284,-3.2729,-3.2856,-3.284,0.0,0.0,0.0,0.0,-3.38,-3.4093,-3.4357,-3.4357,-3.4508,-3.4694,-3.4694,-3.4694,-3.4694,0.0,0.0,0.0,0.0,0.0,0.0,0.0,-1.9299,-1.9233,-1.9011,-1.8977,-1.8977,-1.8977,-1.9748,-2.0268,-2.0268,-2.1069,0.0,0.0,0.0,0.0,0.0,0.0,0.0,0.0,-2.1012,-2.1012,-2.1012,-2.1338,-2.135,-2.1112,-2.1385,-2.1542,-2.1542,-2.1542,-2.1353,0.0,0.0,0.0,0.0,0.0,0.0,-1.8008,0.0,0.0,0.0,0.0,0.0,0.0,0.0,0.0,0.0,0.0,0.0,0.0,0.0,-1.8008,-1.8008,-1.8008,-1.8008,-1.8008,-1.8008,-1.8395,-1.8888,-1.9243,-1.9726,-2.0365,-2.1227,-2.1659,-2.2032,-2.2537,-2.3292,-2.3855,-2.3855,-2.4481,-2.5147,0.0,0.0,0.0,-2.71,0.0,0.0,0.0,0.0,0.0,0.0,0.0,0.0,-2.993,-2.9957,-3.0145,-3.0497,-3.1203,-3.1454,-3.123,-3.1915,-3.2248,-3.223,-3.2417,-3.2417,-3.223,-3.2417,-3.2401,0.0,0.0,0.0,0.0,-3.3211,-3.3407,-3.3574,-3.3758,-3.3938,-3.4152,-3.4307,-3.4353,-3.4353,0.0,0.0,0.0,0.0,0.0,0.0,0.0,-1.9431,-1.9661,-2.0398,-2.0462,-2.043,-2.0494,-2.1302,-2.1815,-2.1877,0.0,0.0,0.0,0.0,0.0,0.0,0.0,0.0,0.0,-2.1926,-2.1957,-2.1957,-2.2782,-2.2815,-2.2175,-2.2902,-2.3245,-2.3198,-2.3198,-2.2689,0.0,0.0,0.0,0.0,-1.8168,-1.8168,0.0,0.0,0.0,0.0,0.0,0.0,0.0,0.0,0.0,0.0,0.0,0.0,0.0,0.0,0.0,0.0,0.0,-1.8008,-1.8008,-1.8008,-1.8008,-1.8202,-1.9011,-1.9199,0.0,-2.0333,-2.1144,-2.171,-2.1815,-2.2476,-2.3005,-2.3005,-2.3679,-2.4234,0.0,-2.4922,0.0,0.0,-2.7034,0.0,-2.7433,0.0,0.0,0.0,0.0,0.0,-2.9293,-2.9339,-2.9339,-2.9339,-3.0477,-3.0801,-3.0251,-3.1155,-3.1643,-3.1626,-3.2074,-3.2074,-3.1699,-3.2144,-3.2127,0.0,0.0,0.0,0.0,-3.2484,-3.2501,-3.2534,-3.2983,-3.3154,-3.3199,-3.3564,-3.3707,-3.3707,0.0,0.0,0.0,0.0,0.0,0.0,0.0,0.0,0.0,0.0,-1.9011,-1.8844,-1.9529,-2.0365,-2.1164,0.0,0.0,0.0,0.0,0.0,0.0,0.0,0.0,0.0,-2.3673,-2.4229,-2.453,-2.453,-2.4727,-2.4741,-2.4584,-2.4768,-2.4553,-2.4031,-2.4031,-2.325,0.0,0.0,0.0,0.0,-1.9977,-1.9977,0.0,0.0,0.0,0.0,-1.8977,-1.8563,0.0,0.0,0.0,0.0,0.0,0.0,0.0,0.0,-1.8008,-1.8008,-1.8008,0.0,-1.8008,-1.8008,-1.8008,-1.8042,0.0,-1.8303,-1.8563,-1.9431,-1.9759,-2.0107,-2.0782,-2.1585,-2.2199,-2.2199,-2.2871,-2.359,-2.4205,0.0,0.0,-2.5646,-2.581,-2.5919,0.0,0.0,0.0,0.0,0.0,-2.8067,-2.8677,-2.8709,-2.8709,-2.8709,-2.9429,-2.9761,-2.9607,-2.9859,-2.9972,-2.9972,-3.0084,-3.0315,-3.067,-3.0774,-3.101,0.0,0.0,0.0,-3.1986,-3.235,-3.2501,-3.2517,-3.2616,-3.2665,-3.2681,-3.2777,-3.2809,-3.2809,0.0,0.0,0.0,0.0,0.0,0.0,0.0,0.0,0.0,0.0,0.0,0.0,0.0,0.0,0.0,0.0,0.0,0.0,0.0,0.0,0.0,0.0,0.0,-2.4624,-2.5287,-2.5701,-2.5906,-2.5906,-2.5906,-2.5728,-2.5398,-2.5398,-2.5175,-2.4794,-2.4452,-2.3581,0.0,0.0,0.0,0.0,-2.059,0.0,0.0,0.0,0.0,0.0,-1.9299,-1.8754,0.0,-1.8008,-1.8008,-1.8008,0.0,0.0,0.0,0.0,-1.8008,-1.8008,-1.8008,-1.8008,-1.8008,-1.8008,-1.8008,-1.8008,-1.8008,-1.8008,-1.8144,-1.863,-1.9011,-1.9431,-1.9911,-2.0719,-2.1302,-2.1302,-2.1678,0.0,0.0,0.0,-2.4908,-2.4908,-2.5175,-2.5398,0.0,0.0,0.0,0.0,0.0,-2.6875,-2.7565,-2.759,-2.774,-2.8091,-2.84,-2.8709,-2.8973,-2.9248,-2.9406,-2.9406,-2.9406,-2.9563,-2.9908,-2.9908,-3.0081,0.0,0.0,0.0,-3.0727,-3.1272,-3.1479,-3.1517,-3.1684,-3.1774,-3.1757,-3.1705,-3.1847,-3.2091,0.0,0.0,0.0,0.0,0.0,0.0,0.0,0.0,0.0,0.0,0.0,0.0,0.0,0.0,0.0,0.0,0.0,0.0,0.0,0.0,0.0,0.0,0.0,-2.5119,-2.6484,-2.6616,-2.6669,-2.6669,-2.6669,-2.6336,-2.5728,-2.5728,-2.5673,-2.5536,-2.4681,-2.3891,0.0,0.0,0.0,0.0,-2.0974,0.0,0.0,0.0,0.0,0.0,0.0,0.0,0.0,-1.8008,-1.8008,-1.8008,-1.8008,0.0,0.0,0.0,0.0,0.0,-1.8008,-1.7896,-1.7828,-1.7974,-1.8008,-1.8008,-1.8008,-1.8008,-1.8008,-1.8008,-1.8596,-1.911,-1.911,-1.9814,-2.0398,-2.0398,0.0,0.0,-2.1596,-2.2985,-2.393,-2.393,-2.4582,0.0,0.0,0.0,0.0,0.0,0.0,-2.5673,-2.6283,-2.6336,-2.6616,-2.724,-2.7265,-2.7504,-2.8021,-2.8764,-2.9134,-2.9134,-2.9134,-2.918,-2.9248,-2.9248,-2.9316,-2.9406,0.0,0.0,-2.9451,-2.9935,-3.0166,-3.0192,-3.0533,-3.068,-3.0663,-3.0549,-3.0842,-3.1253,0.0,0.0,0.0,0.0,0.0,0.0,0.0,0.0,0.0,0.0,0.0,0.0,0.0,0.0,0.0,0.0,0.0,0.0,0.0,0.0,0.0,-2.4263,-2.4908,-2.5618,-2.6484,-2.7111,-2.7433,-2.7433,-2.7433,-2.7382,-2.7265,-2.7265,-2.693,-2.6256,-2.4894,-2.4221,-2.4034,-2.3263,-2.2854,-2.272,-2.272,0.0,0.0,0.0,0.0,0.0,0.0,0.0,0.0,-1.8008,-1.8008,-1.8008,-1.8008,0.0,0.0,0.0,0.0,0.0,-1.8008,-1.7432,-1.7001,-1.7794,-1.8008,-1.8008,-1.8008,-1.8008,-1.8008,-1.8008,-1.811,-1.8202,-1.8202,-1.8911,-1.9497,-1.9497,0.0,-2.0655,0.0,0.0,-2.2267,-2.2267,0.0,0.0,0.0,0.0,0.0,0.0,0.0,-2.5453,-2.5563,-2.5563,-2.5618,-2.5728,-2.5728,-2.5769,-2.5863,-2.721,-2.787,-2.787,-2.787,-2.8125,-2.8654,-2.8654,-2.8919,-2.9406,0.0,-2.9406,-2.9406,-2.9496,-2.954,-2.954,-2.9597,-2.9641,-2.9625,-2.9609,-2.9674,-2.974,0.0,0.0,0.0,0.0,0.0,0.0,0.0,0.0,0.0,0.0,0.0,0.0,0.0,0.0,0.0,0.0,0.0,0.0,0.0,0.0,0.0,-2.4879,-2.5591,-2.6149,-2.6484,-2.7229,-2.76,-2.76,-2.76,-2.76,-2.76,-2.76,-2.7408,-2.7034,-2.555,-2.4908,-2.4823,-2.3619,-2.3108,-2.3108,0.0,0.0,0.0,0.0,0.0,0.0,0.0,0.0,0.0,0.0,-1.8008,-1.8008,-1.8008,0.0,0.0,0.0,0.0,0.0,-1.7398,-1.6922,-1.6567,-1.6515,-1.6481,-1.6481,-1.6481,-1.6481,-1.662,-1.7148,-1.7242,-1.7398,-1.7906,-1.8337,-1.8596,-1.8596,0.0,-1.989,-1.989,-2.0655,-2.1207,0.0,0.0,0.0,0.0,0.0,0.0,0.0,0.0,0.0,-2.4794,-2.4823,-2.4979,-2.5398,-2.5398,-2.5398,-2.5398,-2.6081,-2.6402,-2.6428,-2.6826,-2.6927,-2.6831,-2.7246,-2.7344,-2.7259,0.0,-2.7843,-2.7893,-2.8607,-2.8662,-2.8355,-2.8748,-2.8662,-2.8355,-2.8771,-2.8919,-2.8904,0.0,0.0,0.0,0.0,0.0,0.0,0.0,0.0,0.0,0.0,0.0,0.0,0.0,0.0,0.0,0.0,0.0,0.0,0.0,0.0,-2.4366,-2.5119,-2.5837,-2.639,-2.6747,-2.7306,-2.76,-2.76,-2.76,-2.76,-2.76,-2.76,-2.76,-2.7534,-2.6242,-2.5563,-2.5315,-2.3959,-2.3275,-2.3108,0.0,0.0,0.0,0.0,0.0,0.0,0.0,0.0,0.0,0.0,0.0,0.0,0.0,0.0,0.0,-1.7681,-1.751,-1.7182,-1.6463,-1.6105,-1.5755,-1.5021,-1.5021,-1.5199,-1.5199,-1.5199,-1.5411,-1.6105,-1.628,-1.6594,-1.7634,-1.7982,0.0,-1.812,-1.8623,-1.9011,-1.9011,-1.9759,-2.0301,-2.0301,0.0,0.0,0.0,0.0,0.0,0.0,0.0,0.0,-2.3682,-2.3551,-2.3803,-2.4555,-2.4385,-2.4385,-2.4584,-2.4584,-2.4867,-2.5398,-2.5987,-2.596,-2.5425,-2.5987,-2.5933,-2.5425,-2.6014,-2.6229,-2.6336,-2.7359,-2.7455,-2.6993,-2.7545,-2.743,-2.7004,-2.757,-2.776,-2.7769,0.0,0.0,0.0,0.0,0.0,0.0,0.0,0.0,0.0,0.0,0.0,0.0,0.0,0.0,0.0,0.0,0.0,0.0,0.0,0.0,-2.3531,-2.4337,-2.5091,-2.6135,-2.7484,-2.7575,-2.76,-2.76,-2.76,-2.76,-2.76,-2.76,-2.76,-2.7575,-2.6774,-2.6041,-2.5342,-2.4567,-2.3767,-2.3108,-2.3108,0.0,0.0,0.0,0.0,0.0,0.0,0.0,0.0,0.0,0.0,0.0,0.0,0.0,-1.6706,-1.6706,-1.6079,-1.5376,-1.5305,-1.4629,-1.3882,-1.381,-1.4522,-1.5199,-1.5199,-1.5199,-1.5234,-1.5305,-1.5305,-1.5698,-1.7036,-1.7974,-1.8559,-1.8559,-1.8296,-1.8076,-1.8076,0.0,-1.9398,0.0,0.0,0.0,0.0,0.0,0.0,0.0,0.0,0.0,-2.2032,-2.1322,-2.1247,-2.2113,-2.1373,-2.1342,-2.2144,-2.2144,-2.3229,-2.5398,-2.5453,-2.5453,-2.5398,-2.5453,-2.5453,-2.5398,-2.5453,-2.5481,-2.5481,-2.5577,-2.5577,-2.555,-2.5605,-2.5577,-2.555,-2.5605,-2.5605,-2.5605,0.0,0.0,0.0,0.0,0.0,0.0,0.0,0.0,0.0,0.0,0.0,0.0,0.0,0.0,0.0,0.0,0.0,0.0,0.0,-2.4018,-2.4667,-2.4951,-2.6135,-2.7034,-2.76,-2.76,-2.76,-2.76,-2.76,-2.76,-2.76,-2.76,-2.76,-2.7549,-2.6349,-2.5646,-2.5315,-2.4076,-2.3365,-2.3108,-2.3108,-2.3108,0.0,0.0,0.0,0.0,0.0,0.0,0.0,0.0,-1.8008,-1.7906,-1.7304,-1.6897,-1.6498,-1.5895,-1.5482,-1.5057,-1.4458,-1.3991,-1.3564,-1.2989,-1.3277,-1.366,-1.3455,-1.3411,-1.3616,-1.4404,-1.4426,-1.4668,-1.5962,0.0,-1.742,-1.7574,-1.7821,-1.8008,-1.8008,-1.8269,0.0,0.0,0.0,0.0,0.0,0.0,0.0,0.0,0.0,0.0,-2.1069,-2.0782,-2.0751,-2.108,-2.0782,-2.0751,-2.1101,-2.1101,-2.1549,-2.2427,-2.3445,-2.3677,-2.3229,-2.3153,-2.2842,-2.2457,-2.289,-2.3407,-2.3884,-2.3806,-2.3819,-2.3926,-2.3926,-2.4202,-2.4645,-2.5204,-2.5398,-2.5245,0.0,0.0,0.0,0.0,0.0,0.0,0.0,0.0,0.0,0.0,0.0,0.0,0.0,0.0,0.0,0.0,0.0,0.0,-2.3108,-2.4337,-2.5147,-2.5398,-2.6602,-2.7357,-2.76,-2.76,-2.76,-2.76,-2.76,-2.76,-2.76,-2.76,-2.76,-2.7575,-2.6534,-2.5837,-2.5315,-2.4266,-2.356,-2.3108,-2.3108,-2.3108,0.0,0.0,0.0,0.0,0.0,0.0,0.0,0.0,-1.8008,-1.7837,-1.6915,-1.6402,-1.5965,-1.5021,-1.4522,-1.4127,-1.3455,-1.3273,-1.3098,-1.2445,-1.2452,-1.2589,-1.2351,-1.2378,-1.2696,-1.3434,-1.3844,-1.4311,-1.5086,0.0,0.0,0.0,-1.7163,-1.7579,-1.7579,-1.7794,0.0,0.0,0.0,0.0,0.0,0.0,0.0,0.0,0.0,0.0,0.0,-1.9944,-1.9911,-2.0171,-1.9911,-1.9911,-2.0171,-2.0204,-2.0204,-2.0204,-2.1315,-2.1713,-2.1491,-2.1377,-2.1063,-2.0623,-2.1126,-2.1696,-2.2244,-2.2128,-2.2171,-2.2244,-2.2244,-2.2554,-2.3056,-2.3667,-2.3897,-2.3739,0.0,0.0,0.0,0.0,0.0,0.0,0.0,0.0,0.0,0.0,0.0,0.0,0.0,0.0,0.0,0.0,0.0,0.0,-2.3138,-2.3884,-2.4652,-2.537,-2.6122,-2.6852,-2.7575,-2.76,-2.76,-2.76,-2.76,-2.76,-2.76,-2.76,-2.76,-2.76,-2.76,-2.6785,-2.5398,-2.5398,-2.4525,-2.3108,-2.3108,-2.3108,-2.2914,0.0,0.0,0.0,0.0,0.0,0.0,0.0,-1.7974,-1.7828,-1.6888,-1.593,-1.4985,-1.3991,-1.3025,-1.2305,-1.2305,-1.2305,-1.2305,-1.2305,-1.2305,-1.2305,-1.2305,-1.2569,-1.2697,-1.2365,-1.3627,-1.4689,-1.4441,-1.5388,0.0,-1.5823,-1.6244,-1.6602,-1.6602,0.0,0.0,0.0,0.0,0.0,0.0,0.0,0.0,0.0,0.0,0.0,0.0,-1.8462,-1.8405,-1.9276,-1.8462,-1.8395,-1.9266,-1.9266,-1.9266,-1.9266,-1.9266,-1.9759,-2.059,-2.059,-2.059,-2.0558,-2.0558,-2.0558,-2.059,-2.059,-2.0558,-2.059,-2.059,-2.059,-2.059,-2.059,-2.059,-2.059,0.0,0.0,0.0,0.0,0.0,0.0,0.0,0.0,0.0,0.0,0.0,0.0,0.0,0.0,0.0,0.0,0.0,0.0,-2.4724,-2.5425,-2.596,-2.6149,-2.6878,-2.7382,-2.76,-2.76,-2.76,-2.76,-2.76,-2.76,-2.76,-2.76,-2.76,-2.7575,-2.706,-2.6575,-2.6122,-2.5063,-2.4366,-2.3884,-2.3335,-2.3108,-2.2914,0.0,0.0,0.0,0.0,0.0,0.0,0.0,0.0,0.0,-1.5904,-1.495,-1.3954,-1.2989,-1.2519,-1.2305,-1.2305,-1.2305,-1.2305,-1.2305,-1.2496,-1.2596,-1.2351,-1.2569,-1.2757,-1.267,-1.3051,-1.3376,-1.3286,-1.3895,0.0,-1.4656,-1.5214,-1.5623,-1.5623,0.0,0.0,0.0,0.0,0.0,0.0,0.0,0.0,0.0,0.0,0.0,0.0,-1.8134,-1.811,-1.8371,-1.8144,-1.81,-1.8395,-1.7745,-1.7385,-1.7385,-1.7385,-1.82,-1.9661,-1.9044,-1.8754,-1.871,-1.8065,-1.8127,-1.8708,-1.8708,-1.8716,-1.8811,-1.9464,-1.9694,-1.9748,-2.0365,-2.059,-2.0419,0.0,0.0,0.0,0.0,0.0,0.0,0.0,0.0,0.0,0.0,-2.5837,0.0,0.0,0.0,0.0,0.0,0.0,0.0,0.0,-2.6095,-2.651,-2.651,-2.7203,-2.76,-2.76,-2.76,-2.76,-2.76,-2.76,-2.76,-2.76,-2.76,-2.76,-2.7575,-2.7152,-2.6774,-2.6431,-2.5231,-2.4567,-2.4234,-2.3424,-2.3108,-2.2944,0.0,0.0,0.0,0.0,0.0,0.0,0.0,0.0,0.0,-1.5517,-1.4522,-1.3528,-1.2592,-1.2305,-1.2224,-1.1805,-1.1996,-1.2114,-1.1323,-1.1558,-1.1891,-1.1382,-1.1948,-1.2603,-1.2603,-1.2703,-1.275,-1.263,-1.2998,0.0,-1.3443,-1.4084,-1.4593,-1.4593,0.0,0.0,0.0,0.0,0.0,0.0,0.0,0.0,0.0,0.0,0.0,0.0,-1.7432,-1.7432,-1.7432,-1.7432,-1.7432,-1.7432,-1.6498,-1.6035,-1.6035,-1.6035,-1.6618,-1.7682,-1.791,-1.7794,-1.7389,-1.6463,-1.6332,-1.6814,-1.6814,-1.6851,-1.6932,-1.7453,-1.7682,-1.7741,-1.8261,-1.8452,-1.8318,0.0,0.0,0.0,0.0,0.0,0.0,0.0,0.0,0.0,0.0,-2.659,-2.6336,0.0,0.0,0.0,0.0,0.0,0.0,0.0,0.0,-2.659,-2.659,-2.7255,-2.76,-2.76,-2.76,-2.76,-2.76,-2.76,-2.76,-2.76,-2.76,-2.76,-2.76,-2.76,-2.7229,-2.6563,-2.581,-2.5063,-2.4337,-2.3531,-2.3168,-2.3017,-2.2199,0.0,0.0,0.0,0.0,0.0,0.0,0.0,0.0,-1.5376,-1.4378,-1.3382,-1.2556,-1.2224,-1.1959,-1.105,-1.1391,-1.1589,-0.975,-1.0002,-1.0472,-0.9816,-1.0889,-1.2046,-1.2072,-1.2344,-1.2505,-1.2234,-1.2406,-1.2536,-1.2345,-1.3025,-1.3564,-1.3564,0.0,0.0,0.0,0.0,0.0,0.0,0.0,0.0,0.0,0.0,0.0,0.0,-1.6454,-1.6454,-1.6454,-1.6454,-1.6454,-1.6454,-1.5552,-1.5057,-1.5057,-1.5057,-1.5057,-1.5128,-1.6941,-1.7217,-1.628,-1.5438,-1.5057,-1.5057,-1.5057,-1.5128,-1.5199,-1.5199,-1.5199,-1.5199,-1.5199,-1.5199,-1.5199,0.0,0.0,0.0,0.0,0.0,0.0,0.0,0.0,0.0,0.0,0.0,0.0,0.0,0.0,0.0,0.0,0.0,0.0,0.0,0.0,-2.7357,-2.7357,-2.7524,-2.76,-2.76,-2.76,-2.76,-2.76,-2.76,-2.76,-2.76,-2.76,-2.76,-2.76,-2.76,-2.7524,-2.7331,-2.6575,-2.5837,-2.5091,-2.4337,-2.3649,-2.3017,-2.2199,-2.1365,0.0,0.0,0.0,0.0,0.0,0.0,0.0,-1.435,-1.3382,-1.2556,-1.2372,-1.1731,-1.1087,-1.0858,-1.0378,-0.9825,-0.941,-0.9448,-0.9571,-0.9433,-0.9668,-0.9987,-1.0214,-1.0787,-1.1197,-1.1136,-1.1173,-1.1459,-1.2194,-1.2482,-1.2592,-1.2592,0.0,0.0,0.0,0.0,0.0,0.0,0.0,0.0,0.0,0.0,0.0,-1.5517,-1.5517,-1.5517,-1.5517,-1.5517,-1.5517,-1.5517,-1.4522,-1.4027,0.0,-1.4027,-1.4027,-1.4063,-1.5269,-1.5269,-1.4307,-1.4099,-1.4027,-1.4027,-1.4027,-1.4486,-1.5199,-1.5199,-1.5199,-1.5199,-1.5199,-1.5199,-1.5092,0.0,0.0,0.0,0.0,0.0,0.0,0.0,0.0,0.0,0.0,0.0,0.0,0.0,0.0,0.0,0.0,0.0,0.0,0.0,0.0,0.0,-2.76,-2.76,-2.76,-2.76,-2.76,-2.76,-2.76,-2.76,-2.76,-2.76,-2.76,-2.76,-2.76,-2.76,-2.76,-2.7534,-2.68,-2.6068,-2.5342,-2.4595,-2.3826,-2.3035,-2.2628,-2.171,-2.0526,-2.0074,0.0,0.0,0.0,0.0,0.0,0.0,0.0,-1.2305,-1.2305,-1.1922,-1.1316,-1.034,-1.004,-0.9782,-0.8803,-0.8237,-0.7859,-0.7859,-0.8237,-0.8493,-0.8138,-0.9143,-1.0078,-1.0078,-1.0078,-1.0265,-1.0795,-1.1285,-1.1583,-1.1583,0.0,0.0,0.0,0.0,0.0,0.0,0.0,0.0,0.0,0.0,-1.4494,-1.4494,-1.4494,-1.4494,-1.4494,-1.4494,-1.4494,-1.4494,-1.3528,-1.3025,-1.3025,-1.3025,-1.3025,-1.3062,-1.4027,-1.4207,-1.3673,-1.3237,-1.3025,-1.3025,-1.3025,-1.3346,-1.3803,-1.3803,-1.3534,-1.3078,-1.3078,-1.3078,-1.3012,0.0,0.0,0.0,0.0,0.0,0.0,0.0,0.0,0.0,0.0,0.0,0.0,0.0,0.0,0.0,0.0,0.0,0.0,0.0,0.0,0.0,-2.76,-2.76,-2.76,-2.76,-2.7473,-2.7408,-2.7408,-2.7265,-2.7214,-2.7214,-2.7484,-2.76,-2.76,-2.76,-2.76,-2.756,-2.6956,-2.6256,-2.5536,-2.4794,-2.4018,-2.3305,-2.3155,-2.2144,-2.0814,-2.0814,-1.9683,-1.8202,-1.8056,0.0,0.0,0.0,0.0,-1.2519,-1.2342,-1.2187,-1.1626,-0.9787,-0.9669,-0.9621,-0.797,-0.6911,-0.63,-0.63,-0.6949,-0.7288,-0.649,-0.7744,-0.9031,-0.9031,-0.9031,-0.9107,-0.9258,-1.0008,-1.0527,0.0,0.0,0.0,0.0,0.0,0.0,0.0,0.0,0.0,0.0,0.0,-1.3455,-1.3455,-1.3455,-1.3455,-1.3455,-1.3455,-1.3455,-1.3455,-1.2512,-1.2033,-1.2033,-1.1885,-1.1885,-1.207,-1.2682,-1.3113,-1.3419,-1.2629,-1.2305,-1.2298,-1.2114,-1.2033,-1.2033,-1.1848,-1.1279,-1.0527,-1.0527,-1.0527,-1.0527,0.0,0.0,0.0,0.0,0.0,0.0,0.0,0.0,0.0,0.0,-2.9397,0.0,0.0,0.0,0.0,0.0,0.0,0.0,-2.763,0.0,0.0,-2.76,-2.76,-2.76,-2.76,-2.6982,-2.6642,-2.6642,-2.6,-2.5701,-2.5728,-2.6993,-2.76,-2.76,-2.76,-2.76,-2.76,-2.7484,-2.7034,-2.6283,-2.5536,-2.4823,-2.406,-2.3365,-2.2537,-2.1721,-2.1721,-2.059,-1.9,-1.8194,-1.7245,0.0,0.0,0.0,-1.3346,-1.2556,-1.1694,-1.0752,-0.9599,-0.8122,-0.683,-0.6567,-0.6412,-0.63,-0.63,-0.6412,-0.6451,0.0,-0.7215,-0.8012,-0.8012,-0.8012,-0.8275,-0.9145,-0.941,-0.9485,0.0,0.0,0.0,0.0,0.0,0.0,0.0,0.0,0.0,0.0,-1.2482,-1.2482,-1.2482,-1.2482,-1.2482,-1.2482,-1.2482,-1.2482,-1.2482,-1.1502,-1.1013,-1.0975,-1.0121,-1.0158,-1.0975,-1.0228,-1.0826,-1.2482,-1.2342,-1.2305,-1.2224,-1.1354,-1.1013,-1.0901,-1.0045,-0.9636,-0.9485,-0.9485,-0.9485,-0.9485,0.0,0.0,0.0,0.0,0.0,0.0,0.0,0.0,0.0,0.0,0.0,-2.9606,0.0,0.0,0.0,-2.9175,-2.8816,-2.8308,-2.7645,-2.76,-2.76,-2.76,-2.7188,-2.6982,-2.6982,-2.6256,-2.5864,-2.5864,-2.5563,-2.5398,-2.5398,-2.6054,-2.6602,-2.7008,-2.7408,-2.76,-2.76,-2.76,-2.7163,-2.6457,-2.5701,-2.4951,-2.4205,-2.3395,-2.2598,-2.1908,-2.1908,-2.1101,-1.9901,-1.8992,-1.8069,-1.7108,-1.5738,0.0,0.0,0.0,-1.2395,-1.1316,-0.9712,-0.8237,-0.7022,-0.6451,-0.63,-0.63,-0.63,-0.63,-0.63,-0.63,-0.6644,-0.6945,-0.6945,-0.6945,-0.7099,-0.7557,-0.8084,-0.8466,0.0,0.0,0.0,0.0,0.0,0.0,0.0,0.0,0.0,0.0,-1.2305,-1.2305,-1.2305,-1.2305,-1.2305,-1.2305,-1.2305,-1.2033,-1.1465,-1.1013,-1.0522,-0.9965,-0.9523,-0.9523,-0.9933,-0.9485,-1.0083,-1.1428,-1.087,-1.0608,-1.0571,-1.0158,-0.997,-0.9927,-0.9485,-0.8955,-0.8466,-0.8466,-0.8466,-0.8466,0.0,0.0,0.0,0.0,0.0,0.0,0.0,0.0,0.0,0.0,0.0,0.0,0.0,0.0,0.0,0.0,-2.937,-2.8727,-2.7914,-2.769,-2.76,-2.76,-2.6878,-2.651,-2.651,-2.5591,-2.5119,-2.5119,-2.4922,-2.4809,-2.4809,-2.5007,-2.5398,-2.5987,-2.6904,-2.7331,-2.7331,-2.7524,-2.728,-2.6695,-2.5783,-2.5063,-2.4481,-2.3484,-2.2732,-2.2187,-2.2187,-2.1647,-2.0814,-1.9911,-1.9025,-1.8049,-1.6964,-1.5614,0.0,0.0,0.0,-1.1583,-1.0083,-0.8765,-0.7629,-0.6872,-0.649,-0.63,-0.63,-0.63,-0.63,0.0,-0.63,-0.63,-0.63,-0.63,-0.63,-0.63,-0.6945,-0.7403,0.0,0.0,0.0,0.0,0.0,0.0,0.0,0.0,0.0,0.0,-1.1552,-1.1552,-1.1552,-1.1552,-1.1552,-1.1552,-1.1552,-1.1168,-1.0415,-1.0185,-0.955,-0.8542,-0.8542,-0.8656,-0.8917,-0.8656,-0.9102,-0.9997,-0.9518,-0.9296,-0.9263,-0.9031,-0.8917,-0.8884,-0.8656,-0.8089,-0.7403,-0.7403,-0.7403,-0.7403,0.0,0.0,0.0,0.0,0.0,0.0,0.0,0.0,0.0,0.0,0.0,0.0,-3.1406,-3.1406,-3.1137,-3.0507,-3.0417,-2.9879,-2.8622,-2.7959,-2.76,-2.76,-2.6878,0.0,-2.651,-2.5091,-2.435,-2.435,-2.359,-2.3215,-2.3245,-2.4002,-2.4379,-2.4481,-2.5933,-2.6563,-2.659,-2.7306,-2.7575,-2.7408,-2.5973,-2.537,-2.5175,-2.3666,-2.3078,-2.3047,-2.3047,-2.2506,-2.169,-2.0814,-1.9944,-1.8924,-1.7145,-1.6523,-1.6105,0.0,0.0,0.0,-1.0746,-0.9286,-0.7783,-0.7744,-0.7022,-0.63,-0.63,-0.63,-0.63,-0.63,-0.63,-0.63,-0.63,-0.63,-0.63,-0.63,-0.6338,-0.6377,0.0,0.0,0.0,0.0,0.0,0.0,0.0,0.0,0.0,0.0,-0.9448,-0.9448,-0.9448,-0.9448,-0.9448,-0.9448,-0.9448,-0.9448,-0.9372,-0.8428,-0.7442,-0.6451,-0.6451,-0.6949,-0.7859,-0.6907,-0.7022,-0.8008,-0.8917,-0.9296,-0.9221,-0.8275,-0.7897,-0.7783,-0.6834,-0.6416,-0.6377,-0.6377,-0.6377,-0.6377,0.0,0.0,0.0,0.0,0.0,0.0,0.0,0.0,0.0,0.0,0.0,0.0,0.0,-3.1511,-3.1406,-3.1152,-3.0761,-2.9953,-2.8682,-2.8368,-2.8064,-2.7615,-2.6428,-2.5783,-2.5783,-2.4295,-2.3543,-2.3543,-2.3245,-2.3108,-2.3108,-2.3395,-2.3543,-2.3619,-2.5618,-2.651,-2.6537,-2.728,-2.76,-2.7458,-2.6,-2.5398,-2.5231,-2.3708,-2.3108,-2.3108,-2.3108,-2.2914,-2.2537,-2.171,-2.0846,-1.9901,-1.8703,-1.7522,-1.621,-1.4271,-1.323,-1.2375,-1.1156,-1.026,-0.9399,-0.8122,-0.7518,-0.7099,-0.6451,-0.63,-0.63,-0.63,-0.63,-0.63,-0.63,-0.63,-0.63,-0.63,-0.63,-0.63,0.0,0.0,0.0,0.0,0.0,0.0,0.0,0.0,0.0,0.0,0.0,-0.9296,-0.9296,-0.9296,-0.9296,-0.9296,-0.9296,-0.8993,-0.8351,-0.7326,-0.6641,-0.63,-0.63,-0.649,-0.6834,-0.6451,-0.649,-0.6872,-0.7215,-0.7365,-0.7365,-0.6984,-0.6834,-0.6795,-0.6451,-0.63,-0.63,-0.63,-0.5867,-0.5276,0.0,0.0,0.0,0.0,0.0,0.0,0.0,0.0,0.0,-3.1511,0.0,0.0,0.0,0.0,-3.1881,-3.1881,-3.1037,-3.0148,-2.9295,-2.8846,-2.8397,-2.7959,-2.6558,-2.5646,-2.5398,-2.415,-2.3365,-2.3108,-2.3108,-2.3108,-2.3108,-2.3108,-2.3108,-2.3185,-2.4965,-2.5755,-2.5837,-2.6811,-2.7229,-2.7111,-2.5892,-2.5398,-2.5231,-2.3708,-2.3108,-2.3108,-2.3108,-2.3108,-2.2944,-2.1834,-2.108,-2.0398,-1.9243,-1.7804,-1.628,-1.4665,-1.3954,-1.3339,-1.1755,-1.105,-1.0484,-0.9135,-0.8309,-0.7633,-0.6949,-0.6528,-0.63,-0.63,-0.63,-0.63,-0.63,-0.63,-0.63,-0.63,-0.63,-0.63,-0.63,0.0,0.0,0.0,0.0,0.0,0.0,0.0,0.0,0.0,0.0,0.0,-0.8275,-0.8275,-0.8275,-0.8275,-0.8275,-0.797,-0.7288,-0.6644,-0.63,-0.63,-0.63,-0.63,-0.63,-0.63,-0.63,-0.63,-0.5906,-0.5983,-0.63,-0.63,-0.6103,-0.5747,-0.5747,-0.555,-0.5237,-0.5237,-0.4766,-0.4178,0.0,0.0,0.0,0.0,0.0,0.0,0.0,0.0,-3.1511,-3.1511,0.0,0.0,0.0,0.0,0.0,-3.2559,-3.1316,-3.0522,-3.0507,-2.9325,-2.8622,-2.8607,-2.7243,-2.6122,-2.5425,-2.4652,-2.3884,-2.3108,-2.3108,-2.3108,-2.3108,-2.3108,-2.3108,-2.3138,-2.3914,-2.4263,-2.435,-2.5837,-2.6484,-2.6404,-2.5646,-2.537,-2.5203,-2.3679,-2.3108,-2.3108,-2.3108,-2.3108,-2.2854,-2.1227,-2.0655,-2.0333,-1.8596,-1.7389,-1.6463,-1.5517,-1.4522,-1.3528,0.0,0.0,0.0,-1.082,-0.9324,-0.7859,-0.7821,0.0,-0.6338,-0.63,-0.63,-0.63,-0.63,-0.63,-0.63,-0.63,-0.63,-0.63,-0.63,0.0,0.0,0.0,0.0,0.0,0.0,0.0,0.0,0.0,-0.63,-0.63,-0.63,-0.63,-0.63,-0.63,-0.63,-0.63,-0.63,-0.63,-0.63,-0.63,-0.63,-0.63,-0.63,-0.6261,-0.6261,-0.6183,-0.5118,-0.5237,-0.6222,-0.6222,-0.5589,-0.4647,-0.4647,-0.4021,-0.3085,-0.3085,-0.3085,-0.3046,0.0,0.0,0.0,0.0,0.0,0.0,-3.1511,-3.1511,-3.1511,0.0,0.0,0.0,-3.1511,-3.1682,-3.1796,-3.1796,-3.1431,-3.1017,-3.0537,-2.9759,-2.9101,-2.8622,-2.6734,-2.5618,-2.5398,-2.4105,-2.3305,-2.3108,-2.3108,-2.3108,-2.3108,-2.3108,-2.3108,-2.3108,-2.3335,-2.3424,-2.3531,-2.5063,-2.5701,-2.5646,-2.4908,-2.4595,-2.4481,-2.3471,-2.3108,-2.3108,-2.3108,-2.3108,-2.3035,-2.2567,-2.2032,-2.1239,-1.9497,-1.8341,-1.7432,-1.6498,-1.5544,-1.4557,-1.3593,0.0,0.0,0.0,0.0,0.0,0.0,0.0,-0.7176,-0.6451,-0.63,-0.63,-0.63,-0.63,-0.63,-0.63,-0.63,-0.63,-0.63,0.0,0.0,0.0,0.0,0.0,0.0,0.0,0.0,0.0,-0.63,-0.63,-0.63,-0.63,-0.63,-0.63,-0.63,-0.63,-0.63,-0.63,-0.63,-0.63,-0.63,-0.63,-0.6261,-0.5512,-0.5157,-0.5079,-0.4021,-0.3709,-0.3982,-0.3982,-0.3826,-0.3552,-0.3552,-0.3357,-0.3085,-0.3085,-0.2657,-0.1996,0.0,0.0,0.0,0.0,0.0,-3.1511,-3.1511,-3.1511,-3.1511,0.0,0.0,0.0,-3.1938,-3.1682,-3.1611,-3.1923,-3.1697,-3.1331,-3.0928,-3.0328,-2.9684,-2.9041,-2.7272,-2.5994,-2.5412,-2.4221,-2.3454,-2.3108,-2.3108,-2.3108,-2.3108,-2.3108,-2.3108,-2.3108,-2.3108,-2.3108,-2.3155,-2.4063,-2.4639,-2.4908,-2.4452,-2.4292,-2.4205,-2.3395,-2.3108,-2.3108,-2.3108,-2.3108,-2.3047,-2.2689,-2.2063,-2.1101,-1.9716,-1.8944,-1.8283,-1.6982,-1.621,-1.5473,-1.4099,-1.331,-1.2659,-1.1687,0.0,0.0,-0.8803,-0.8084,-0.7518,0.0,-0.63,-0.63,-0.63,-0.63,-0.63,-0.63,-0.63,-0.63,-0.63,0.0,0.0,0.0,0.0,0.0,0.0,-0.63,-0.63,-0.63,-0.63,-0.63,-0.63,-0.63,-0.63,-0.63,-0.63,-0.63,-0.63,-0.63,-0.63,-0.63,-0.5828,-0.5628,-0.5589,-0.453,-0.4021,-0.3984,-0.293,-0.2462,-0.2425,-0.1994,-0.2073,-0.2462,-0.2462,-0.2189,-0.18,-0.18,-0.1448,-0.0941,0.0,0.0,-3.1511,-3.1511,-3.1511,-3.1511,-3.1511,-3.1511,-3.1511,0.0,-3.1511,-3.1739,-3.241,-3.1894,-3.1768,-3.2437,-3.1881,-3.1511,-3.1511,-3.0853,-3.0223,-2.9636,-2.8247,-2.6843,-2.5439,-2.4681,-2.3914,-2.3108,-2.3108,-2.3108,-2.3108,-2.3108,-2.3108,-2.3108,-2.3108,-2.3108,-2.3108,-2.3108,-2.3514,-2.4176,-2.4176,-2.4176,-2.4089,-2.3365,-2.3108,-2.3108,-2.3108,-2.3108,-2.2975,-2.2261,-2.1459,0.0,0.0,0.0,0.0,-1.7385,-1.6766,-1.621,-1.4486,-1.3846,-1.3491,-1.2659,-1.1694,0.0,-0.9707,-0.8689,-0.7668,0.0,-0.6377,-0.63,-0.63,-0.6222,-0.6141,-0.6141,-0.6141,-0.618,-0.63,0.0,0.0,0.0,0.0,0.0,-0.6141,-0.6219,-0.6261,-0.6141,-0.6219,-0.63,-0.63,-0.63,-0.63,-0.63,-0.63,-0.63,-0.63,-0.618,-0.6141,-0.6103,-0.504,-0.453,-0.4491,-0.3437,-0.2929,-0.289,-0.188,-0.1411,-0.1333,-0.0392,-0.0549,-0.1411,-0.1411,-0.0824,0.0,0.0,0.0,0.0,0.0,-3.1511,-3.1511,-3.1511,-3.1511,-3.1511,-3.1511,-3.1511,-3.1511,-3.1511,-3.1511,-3.1553,-3.1697,-3.1582,-3.1553,-3.1682,-3.1582,-3.1511,-3.1511,-3.0853,-3.0223,-2.9636,-2.8247,-2.6843,-2.5439,-2.4681,-2.3914,-2.3108,-2.3108,-2.3108,-2.3108,-2.3108,-2.3108,-2.3108,-2.3108,-2.3108,-2.3108,-2.3108,-2.3198,-2.3335,-2.3335,-2.3335,-2.3305,-2.3168,-2.3108,-2.3108,-2.3108,-2.3108,-2.3078,-2.2914,-2.2322,-2.1628,0.0,0.0,0.0,-1.889,0.0,0.0,-1.614,-1.4906,0.0,0.0,0.0,0.0,-1.0752,-0.9744,-0.8727,0.0,-0.6872,-0.63,-0.63,-0.5589,-0.5002,-0.5002,-0.5002,-0.5315,-0.618,0.0,0.0,0.0,0.0,0.0,-0.5079,-0.5786,-0.5944,-0.5079,-0.5825,-0.63,-0.63,-0.63,-0.63,-0.63,-0.63,-0.63,-0.63,-0.5431,-0.5002,-0.5002,-0.3943,-0.3396,-0.3396,-0.2347,-0.188,-0.1841,-0.0784,-0.0314,-0.0314,-0.0079,-0.0118,-0.0314,-0.0314,-0.0196,0.0,0.0,0.0,0.0,-3.1511,-3.1511,-3.1511,-3.1511,-3.1511,-3.1511,-3.1511,-3.1511,-3.1511,-3.1511,-3.1511,-3.1511,-3.1511,-3.1511,-3.1511,-3.1511,-3.1511,-3.1511,-3.1511,-3.1182,-3.0717,-3.0073,-2.8351,-2.6933,-2.591,-2.4453,-2.3514,-2.3108,-2.3108,-2.3108,-2.3108,-2.3108,-2.2884,-2.2506,-2.2914,-2.2884,-2.2537,-2.2914,-2.3108,-2.3108,-2.3108,-2.3108,-2.3108,-2.3108,-2.3108,-2.3108,-2.3108,-2.3108,-2.3108,-2.3108,-2.2823,0.0,-2.2044,-2.1005,-1.9846,0.0,-1.8365,-1.7207,0.0,0.0,0.0,-1.3954,0.0,0.0,0.0,-1.0002,-0.9036,-0.8008,-0.6984,-0.63,-0.63,-0.5431,-0.4688,-0.4688,-0.4688,-0.4688,-0.4688,-0.5157,0.0,0.0,0.0,0.0,-0.3943,-0.4882,-0.5512,-0.5512,-0.5512,-0.5747,-0.6261,-0.5276,-0.496,-0.5473,-0.4999,-0.4688,-0.4688,-0.4178,-0.3904,-0.3904,-0.2852,-0.2347,-0.2308,-0.1293,-0.0784,-0.0784,-0.0236,0.0,0.0,0.0,0.0,0.0,0.0,0.0,0.0,0.0,0.0,0.0,-3.1511,-3.1511,-3.1511,-3.1511,-3.1511,-3.1511,-3.1511,-3.1511,-3.1511,-3.1511,-3.1511,-3.1511,-3.1511,-3.1511,-3.1511,-3.1511,-3.1511,0.0,-3.1511,-3.1511,-3.1197,-3.0537,-2.8584,-2.7167,-2.6424,-2.4393,-2.3258,-2.3108,-2.3108,-2.3108,-2.3108,-2.3108,-2.2763,-2.2156,-2.2641,-2.2598,-2.2156,-2.2659,-2.2944,-2.3108,-2.3108,-2.3108,-2.3108,-2.3108,-2.3108,-2.3108,-2.3108,-2.3005,-2.2884,-2.3047,-2.3108,-2.2987,-2.2353,-2.1428,0.0,0.0,0.0,0.0,0.0,0.0,0.0,0.0,0.0,-1.323,0.0,0.0,0.0,-0.8313,-0.7288,-0.6528,0.0,0.0,0.0,0.0,0.0,0.0,0.0,-0.3437,0.0,0.0,0.0,0.0,-0.2813,-0.3595,-0.4533,-0.5589,-0.4882,-0.4766,-0.5628,-0.4059,-0.3515,-0.4373,-0.3552,-0.3085,-0.3085,-0.289,-0.2813,-0.2812,-0.1761,-0.1293,-0.1254,-0.0392,0.0,0.0,0.0,0.0,0.0,0.0,0.0,0.0,0.0,0.0,0.0,0.0,0.0,0.0,-3.1511,-3.1511,-3.1511,-3.1511,-3.1511,-3.1511,-3.1511,-3.1511,-3.1511,-3.1511,-3.1511,-3.1511,-3.1511,-3.1511,-3.1511,-3.1511,-3.1511,-3.1511,-3.1511,-3.1511,-3.1197,-3.0537,-2.9054,-2.7684,-2.6424,-2.4918,-2.3796,-2.3108,-2.3108,-2.3108,-2.3108,-2.3108,-2.3047,-2.2944,-2.2322,-2.2384,-2.2914,-2.2292,-2.2445,-2.3108,-2.3108,-2.3108,0.0,-2.3108,-2.3108,-2.3108,-2.3108,-2.2628,-2.2137,0.0,-2.3108,-2.3065,0.0,-2.1896,-2.059,-2.0494,0.0,0.0,0.0,0.0,0.0,0.0,-1.4343,0.0,-1.2365,0.0,-1.034,-0.9334,0.0,0.0,0.0,0.0,0.0,0.0,0.0,0.0,-0.0627,-0.1293,-0.2231,-0.3007,0.0,0.0,0.0,-0.188,-0.2386,-0.3398,-0.3357,-0.3318,-0.3474,-0.324,-0.3163,-0.3279,-0.3163,-0.3085,-0.3085,-0.2229,-0.1762,-0.1762,-0.0706,-0.0196,-0.0196,-0.0039,0.0,0.0,0.0,0.0,0.0,0.0,0.0,0.0,0.0,0.0,0.0,0.0,0.0,0.0,-3.1307,-3.1511,-3.1511,-3.1511,-3.1511,-3.1511,-3.1511,-3.1511,-3.1511,-3.1511,-3.1511,-3.1511,-3.1511,-3.1511,-3.1511,-3.1511,-3.1511,-3.1511,-3.1511,-3.1511,-3.1376,-3.1077,-2.9275,-2.7873,-2.6952,-2.5084,-2.3798,-2.3108,-2.3108,-2.3108,-2.3108,-2.3108,-2.2854,-2.2384,-2.2032,-2.1803,-2.1678,-2.1846,-2.2094,0.0,0.0,-2.2414,0.0,-2.2914,-2.2823,-2.2353,-2.1834,-2.1416,-2.1195,0.0,-2.199,0.0,0.0,0.0,0.0,-1.9977,0.0,0.0,0.0,0.0,0.0,0.0,0.0,0.0,-1.32,0.0,-1.0671,0.0,0.0,0.0,0.0,0.0,0.0,0.0,-0.3085,0.0,0.0,0.0,-0.1528,0.0,0.0,0.0,0.0,0.0,0.0,0.0,-0.254,-0.2501,-0.3085,-0.1955,-0.1605,-0.219,-0.1643,-0.1292,-0.1292,-0.0902,-0.0667,-0.0667,-0.0196,0.0,0.0,0.0,0.0,0.0,0.0,0.0,0.0,0.0,0.0,0.0,0.0,0.0,0.0,0.0,0.0,0.0,-3.0584,-3.0807,-3.0807,-3.0807,-3.0999,-3.1248,-3.1467,-3.1511,-3.1511,-3.1511,-3.1511,-3.157,-3.175,-3.1615,-3.157,-3.1765,-3.1615,-3.1409,0.0,0.0,-3.1278,-3.0837,-2.9141,-2.7801,-2.7001,-2.5026,-2.3715,-2.3108,-2.3108,-2.3108,-2.3108,-2.3108,-2.2793,-2.223,-2.2013,-2.1553,-2.0974,-2.1396,-2.1522,-2.1522,-2.1522,-2.1522,-2.1616,-2.2187,-2.1896,-2.1144,-2.0751,-2.0462,-2.0268,-2.0526,-2.1005,0.0,-2.0814,0.0,0.0,0.0,0.0,0.0,-1.8008,0.0,0.0,0.0,0.0,0.0,0.0,0.0,0.0,0.0,0.0,0.0,0.0,0.0,0.0,0.0,0.0,-0.2383,0.0,-0.0667,0.0,0.0,0.0,0.0,0.0,0.0,0.0,-0.2189,-0.1566,-0.1488,-0.2228,-0.0823,-0.0353,-0.1137,-0.0392,0.0,0.0,0.0,0.0,0.0,0.0,0.0,0.0,0.0,0.0,0.0,0.0,0.0,0.0,0.0,0.0,0.0,0.0,0.0,0.0,0.0,0.0,0.0,-2.9066,-2.9097,-2.9097,-2.9097,-2.9797,-3.0614,-3.138,-3.1511,-3.1511,-3.1511,-3.1511,-3.175,-3.2392,-3.1884,-3.1765,0.0,0.0,-3.1161,-3.0389,0.0,-3.0777,0.0,0.0,-2.754,-2.6175,-2.4712,-2.3715,-2.3108,-2.3108,-2.3108,-2.3108,-2.3108,-2.3078,-2.3035,-2.2261,-2.1877,-2.1815,-2.0974,-2.0655,-2.0655,-2.0655,-2.0655,-2.0655,0.0,-2.0139,-1.9497,-2.0301,0.0,0.0,-2.0333,-2.0623,0.0,0.0,0.0,0.0,0.0,0.0,0.0,0.0,0.0,0.0,-1.6819,0.0,0.0,0.0,0.0,-1.1959,0.0,0.0,0.0,0.0,0.0,0.0,-0.3435,0.0,0.0,0.0,0.0,0.0,0.0,0.0,0.0,0.0,0.0,-0.0079,-0.0079,-0.0079,-0.0079,-0.0079,-0.0039,0.0,-0.0039,0.0,0.0,0.0,0.0,0.0,0.0,0.0,0.0,0.0,0.0,0.0,0.0,0.0,0.0,0.0,0.0,0.0,0.0,0.0,0.0,0.0,0.0,0.0,0.0,-2.7351,-2.7351,-2.7703,-2.8812,-2.9254,-2.9535,-2.9797,-3.0329,-3.0494,-2.9919,-3.0359,-3.0567,-3.0204,-2.9972,-2.9943,0.0,0.0,-2.9721,-2.9473,-2.969,0.0,0.0,0.0,-2.749,0.0,0.0,-2.4268,-2.3703,-2.3296,-2.3108,-2.3108,-2.3108,-2.3108,-2.3078,-2.2261,-2.1585,-2.1005,-2.0719,0.0,0.0,0.0,-1.9398,-1.8944,0.0,-1.9562,-1.9276,-1.8977,-1.8687,0.0,-1.8787,-1.9276,-1.9628,-1.9044,-1.9077,-1.9177,-1.863,-1.8236,0.0,0.0,0.0,-1.6228,-1.6532,0.0,0.0,0.0,0.0,0.0,0.0,0.0,0.0,0.0,0.0,-0.6588,-0.4489,-0.4178,0.0,0.0,0.0,0.0,0.0,0.0,0.0,0.0,0.0,0.0,0.0,0.0,0.0,0.0,0.0,0.0,0.0,0.0,0.0,0.0,0.0,0.0,0.0,0.0,0.0,0.0,0.0,0.0,0.0,0.0,0.0,0.0,0.0,0.0,0.0,0.0,0.0432,0.098,0.0275,0.0,0.0118,-2.6499,-2.6499,-2.685,-2.792,-2.833,-2.8652,-2.8939,-2.9473,-2.9628,-2.9066,-2.9473,0.0,-2.9661,0.0,-2.9371,0.0,-2.9412,-2.916,-2.8855,-2.8922,0.0,-2.8411,-2.7941,-2.7295,0.0,0.0,0.0,0.0,-2.3597,-2.3144,-2.2659,-2.2659,-2.2506,-2.2187,-2.1678,-2.0942,-2.0139,-2.0139,-1.9628,0.0,0.0,-1.8496,0.0,0.0,-1.8854,-1.8754,0.0,-1.8008,-1.8008,-1.8008,-1.8361,-1.8754,-1.8178,-1.8395,-1.8721,-1.8168,-1.8008,-1.7794,-1.6853,-1.614,0.0,-1.6035,-1.4871,0.0,-1.4522,0.0,0.0,0.0,0.0,0.0,0.0,0.0,0.0,-0.5035,-0.4688,0.0,0.0,-0.0667,0.0,0.0,0.0,0.0,0.0,0.0,0.0,0.0,0.0,0.0,0.0,0.0,0.0,0.0,0.0,0.0,0.0,0.0,0.0,0.0,0.0,0.0,0.0,0.0,0.0,0.0,0.0,0.0,0.0,0.0,0.0,0.0039,0.0432,0.098,0.1528,0.0824,0.0784,0.1214,-2.6499,-2.6512,-2.6537,-2.6537,-2.7167,-2.7973,-2.8789,0.0,-2.899,0.0,-2.899,-2.943,-3.0539,-3.0088,-2.9978,-3.0622,-3.0047,-2.9327,-2.8486,-2.8706,0.0,0.0,-2.7514,-2.7024,-2.5682,0.0,0.0,0.0,0.0,-2.3237,-2.1851,-2.1858,-2.1396,-2.059,-2.059,-2.0107,-1.9299,-1.9299,-1.8787,-1.8008,-1.8008,-1.8008,-1.8008,-1.8008,-1.8008,-1.8008,-1.8008,-1.8008,-1.8008,-1.8008,-1.8008,-1.8008,-1.8008,-1.8008,-1.7974,-1.794,-1.794,-1.7716,-1.674,-1.6463,-1.6245,-1.534,0.0,0.0,0.0,0.0,-1.2378,0.0,0.0,0.0,0.0,0.0,0.0,0.0,0.0,0.0,0.0,0.0,0.0,0.0,0.0,0.0,0.0,0.0,0.0,0.0,0.0,0.0,0.0,0.0,0.0,0.0,0.0,0.0,0.0,0.0,0.0,0.0,0.0,0.0,0.0,0.0,0.0,0.0,0.0,0.0,0.0,0.0,0.0,0.0118,0.1176,0.1646,0.1763,0.1685,0.2268,0.3124,-2.6499,-2.6826,-2.7102,-2.7102,-2.7265,-2.7462,0.0,0.0,0.0,0.0,-2.8912,-2.9156,-2.8815,-2.8653,-2.8592,-2.8769,-2.8267,0.0,0.0,0.0,0.0,-2.6735,-2.6755,-2.665,-2.6273,-2.5824,0.0,-2.4143,0.0,-2.245,-2.1379,-2.1081,-2.0814,-2.059,-2.059,-2.0107,-1.9299,-1.9299,-1.8787,-1.8008,-1.8008,-1.8008,-1.8008,0.0,-1.8008,-1.8008,-1.8008,-1.8008,-1.8008,-1.8008,-1.8008,-1.8008,-1.8008,-1.8008,-1.7862,-1.7173,-1.6957,-1.6602,-1.4906,-1.445,-1.4378,-1.4135,-1.3882,-1.3709,0.0,0.0,0.0,0.0,0.0,0.0,0.0,0.0,0.0,0.0,0.0,0.0,0.0,0.0,0.0,0.0,0.0,0.0,0.0,0.0,0.0,0.0,0.0,0.0,0.0,0.0,0.0,0.0,0.0,0.0,0.0,0.0,0.0,0.0,0.0,0.0,0.0,0.0,0.0,0.0,0.0,0.0,0.0,0.0,0.0,0.0118,0.1176,0.2543,0.3789,0.3008,0.289,0.3202,-2.6586,-2.6323,-2.6221,-2.6221,0.0,0.0,-2.7598,-2.8303,0.0,-2.817,-2.8543,0.0,-2.8473,-2.8461,-2.8461,-2.8461,-2.8185,0.0,-2.7657,0.0,0.0,-2.6205,-2.555,-2.5205,-2.5205,-2.487,0.0,-2.3549,0.0,-2.1981,-2.0628,-2.04,-2.0008,-1.9464,-1.9464,-1.9177,-1.8721,-1.8721,-1.8462,-1.8008,-1.8008,-1.8008,0.0,-1.7545,-1.7389,-1.732,-1.6932,-1.7044,-1.7389,-1.7389,-1.7113,-1.6768,-1.6768,-1.6768,-1.6689,-1.6149,-1.6009,-1.5649,-1.4135,-1.3709,-1.36,-1.3208,-1.3098,-1.3098,-1.3098,-1.3098,-1.2952,0.0,0.0,0.0,0.0,0.0,0.0,0.0,0.0,0.0,0.0,0.0,0.0,0.0,0.0,0.0,0.0,0.0,0.0,0.0,0.0,0.0,0.0,0.0,0.0,0.0,0.0,0.0,0.0,0.0,0.0,0.0,0.0,0.0,0.0,0.0,0.0,0.0,0.0,0.0,0.0,0.0,0.0,0.0162,0.1778,0.3387,0.4793,0.4711,0.4609,0.4569,-2.646,-2.5554,-2.4915,0.0,0.0,0.0,0.0,-2.8126,0.0,-2.8126,0.0,-2.8226,-2.8547,-2.8596,-2.8596,-2.8596,0.0,-2.825,-2.7718,-2.6383,-2.5559,-2.5488,-2.4217,-2.3514,-2.3514,-2.3514,-2.3204,0.0,0.0,-2.1612,-1.9917,-1.9793,-1.9134,-1.8086,-1.8037,-1.794,0.0,-1.7828,-1.7759,-1.7613,-1.7613,-1.7613,-1.7545,-1.6715,-1.6419,-1.6324,-1.5473,-1.572,-1.6419,-1.6419,-1.586,-1.5199,-1.5199,-1.5199,-1.5163,-1.5057,-1.4985,-1.4772,-1.3774,-1.3528,-1.331,-1.2519,-1.2305,-1.2305,-1.2305,-1.2305,-1.2261,-1.2114,-1.1316,-1.0303,0.0,0.0,0.0,0.0,0.0,0.0,0.0,0.0,0.0,0.0,0.0,0.0,0.0,0.0,0.0,0.0,0.0,0.0,0.0,0.0,0.0,0.0,0.0,0.0,0.0,0.0,0.0,0.0,0.0,0.0,0.0,0.0,0.0,0.0,0.0,0.0,0.0,0.0,0.0084,0.0421,0.239,0.3769,0.4775,0.5862,0.6087,0.5921,-2.5137,-2.5267,-2.5467,0.0,0.0,-2.6683,-2.6765,-2.8343,-2.9158,-2.8228,-2.811,-2.7818,-2.699,-2.692,-2.692,-2.692,-2.6491,0.0,0.0,0.0,0.0,-2.3917,-2.3632,-2.3514,-2.3514,-2.3514,-2.3066,0.0,0.0,-2.1016,-1.9881,-1.917,-1.8699,-1.8481,-1.8164,-1.7569,-1.6853,-1.6853,0.0,-1.5693,-1.5693,-1.5693,-1.5658,-1.5517,-1.5446,-1.5411,-1.5269,-1.5305,-1.5446,-1.5446,-1.534,-1.5199,-1.5199,-1.5199,-1.5021,-1.4207,-1.3954,-1.3745,-1.2806,-1.2556,-1.2519,-1.2335,-1.2305,-1.2305,-1.2305,-1.2305,-1.207,-1.1236,-1.0265,-0.9258,-0.8237,0.0,0.0,0.0,0.0,0.0,0.0,0.0,0.0,0.0,0.0,0.0,0.0,0.0,0.0,0.0,0.0,0.0,0.0,0.0,0.0,0.0,0.0,0.0,0.0,0.0,0.0,0.0,0.0,0.0,0.0,0.0,0.0,0.0,0.0,0.0,0.0,0.0,0.0504,0.1342,0.176,0.2513,0.3434,0.3642,0.3707,0.393,-2.4813,-2.4512,-2.4294,0.0,0.0,0.0,0.0,-2.7005,-2.7879,-2.7331,-2.7279,-2.7087,-2.6565,-2.6524,-2.6524,-2.6524,-2.6248,-2.5748,-2.5049,-2.4265,-2.3497,-2.2734,-2.2264,-2.201,-2.201,-2.201,-2.1745,-2.126,0.0,0.0,-1.9865,-1.8881,-1.8246,-1.7851,-1.6941,-1.6298,0.0,0.0,0.0,-1.5199,-1.5199,-1.5199,-1.5128,-1.4629,-1.4414,-1.4343,-1.3875,-1.3694,-1.3766,-1.4271,-1.4091,-1.3694,-1.3694,-1.3694,-1.3593,-1.3127,-1.2989,-1.2879,-1.2409,-1.2305,-1.2305,-1.2305,-1.1922,-1.1502,-1.1502,-1.113,-1.0608,-1.0115,-0.9216,-0.8199,-0.7215,-0.6641,0.0,0.0,0.0,0.0,0.0,0.0,0.0,0.0,0.0,0.0,0.0,0.0,0.0,0.0,0.0,0.0,0.0,0.0,0.0,0.0,0.0,0.0,0.0,0.0,0.0,0.0,0.0,0.0,0.0,0.0,0.0,0.0,0.0,0.0,0.0,0.0,0.0305,0.0826,0.1476,0.1996,0.2514,0.3118,0.3378,0.3495,-2.4414,-2.3714,0.0,0.0,-2.3844,-2.4414,-2.4414,-2.5221,-2.585,-2.6099,-2.6141,-2.6058,-2.5808,-2.5766,-2.5734,-2.5677,-2.5666,-2.5251,-2.4251,-2.3435,-2.2633,-2.1738,-2.1011,-2.0605,-2.0605,-2.0605,-2.0605,0.0,0.0,0.0,0.0,-1.8477,0.0,0.0,0.0,0.0,0.0,0.0,-1.4772,-1.4593,-1.4593,-1.4593,-1.4486,-1.3702,-1.3382,-1.331,-1.2556,-1.2305,-1.2409,-1.3164,-1.2915,-1.2305,-1.2305,-1.2305,-1.2305,-1.2305,-1.2305,-1.2305,-1.2305,-1.215,-1.1959,-1.1959,-1.1242,-1.049,-1.049,-0.9857,-0.9226,-0.9031,-0.8199,-0.7249,-0.6451,-0.63,0.0,0.0,0.0,0.0,0.0,0.0,0.0,0.0,0.0,0.0,0.0,0.0,0.0,0.0,0.0,0.0,0.0,0.0,0.0,0.0,0.0,0.0,0.0,0.0,0.0,0.0,0.0,0.0,0.0,0.0,0.0,0.0,0.0,0.0,0.0,0.0,0.0,0.009,0.1031,0.1433,0.1522,0.2503,0.2815,0.2802,0.0,0.0,0.0,0.0,0.0,-2.3266,-2.3266,-2.3343,-2.38,-2.483,-2.4957,-2.4585,-2.3517,-2.343,-2.3282,-2.2896,-2.2856,-2.249,-2.1619,-2.149,-2.1223,-2.0731,-2.0644,-2.0605,-2.0605,-2.0605,-2.0605,0.0,0.0,-1.8955,0.0,0.0,0.0,0.0,0.0,0.0,0.0,-1.3846,-1.3346,-1.2556,-1.2556,-1.2556,-1.2549,-1.2482,-1.2445,-1.2409,-1.2342,-1.2305,-1.2298,-1.2409,-1.2372,-1.2305,-1.2305,-1.2305,-1.2305,-1.2305,-1.2305,-1.2305,-1.2305,-1.162,-1.0932,-1.0932,-1.019,-0.9448,-0.9448,-0.9372,-0.9031,-0.8122,-0.7138,-0.6412,-0.63,-0.63,-0.63,0.0,0.0,0.0,0.0,0.0,0.0,0.0,0.0,0.0,0.0,0.0,0.0,0.0,0.0,0.0,0.0,0.0,0.0,0.0,0.0,0.0,0.0,0.0,0.0,0.0,0.0,0.0,0.0,0.0,0.0,0.0,0.0,0.0,0.0,0.0,0.0,0.0,0.0135,0.018,0.018,0.0314,0.0359,0.0314,0.0,0.0,0.0,0.0,0.0,0.0,0.0,-2.3091,-2.3256,-2.3714,-2.38,-2.3594,-2.3135,-2.2867,-2.2695,-2.2529,-2.2285,-2.1875,-2.1239,-2.119,-2.1035,-2.0625,-1.9962,-1.9638,-1.9638,-1.8957,-1.863,0.0,0.0,0.0,0.0,0.0,0.0,0.0,0.0,-1.3417,-1.2842,-1.2842,-1.2622,-1.2305,-1.2305,-1.2305,-1.2305,-1.2305,-1.2305,-1.2305,-1.2305,-1.2305,-1.2305,-1.2305,-1.2305,-1.2305,-1.2305,-1.2305,-1.2305,-1.2305,-1.1879,-1.1391,-1.1391,-1.0683,-0.9895,-0.9895,-0.914,-0.8389,-0.8389,-0.7931,-0.7403,-0.6984,-0.6567,-0.63,-0.63,-0.63,-0.63,0.0,0.0,0.0,0.0,0.0,0.0,0.0,0.0,0.0,0.0,0.0,0.0,0.0,0.0,0.0,0.0,0.0,0.0,0.0,0.0,0.0,0.0,0.0,0.0,0.0,0.0,0.0,0.0,0.0,0.0,0.0,0.0,0.0,0.0,0.0,0.0,0.0,0.0,0.0,0.0,0.0,0.0,0.009,-2.2041,0.0,-2.2041,0.0,-2.2041,-2.2041,-2.2041,-2.2041,-2.2041,-2.2041,-2.1982,-2.2189,-2.2862,-2.2578,-2.2139,-2.1709,-2.1381,-2.0914,-2.0114,-2.0046,-1.9906,-1.9648,-1.8908,0.0,-1.8519,-1.7706,-1.7302,-1.7302,-1.6968,0.0,0.0,0.0,0.0,0.0,-1.2958,-1.2663,-1.2425,-1.2338,-1.2305,-1.2305,-1.2305,-1.2305,-1.2268,-1.1959,-1.1848,-1.1848,-1.1848,-1.1663,-1.1471,-1.1774,-1.1657,-1.1477,-1.1774,-1.1848,-1.1811,-1.1515,-1.0907,-1.0378,-1.0378,-0.9631,-0.8846,-0.8846,-0.8084,-0.7365,-0.7365,-0.6795,-0.63,-0.63,-0.63,-0.6313,-0.6354,-0.6361,-0.6378,-0.6422,0.0,0.0,0.0,0.0,0.0,0.0,0.0,0.0,0.0,0.0,0.0,0.0,0.0,0.0,0.0,0.0,0.0,0.0,0.0,0.0,0.0,0.0,0.0,0.0,0.0,0.0,0.0,0.0,0.0,0.0,0.0,0.0,0.0,0.0,0.0,0.0,0.0,0.0,0.0,0.0,0.0,0.018,-1.9542,-1.9542,-1.9542,-1.9542,-1.9542,-1.9542,-1.9542,-1.9542,-1.9542,-1.9542,-1.9326,-1.9991,-2.2254,-2.2148,-2.1288,-1.9752,-1.9634,-1.8965,-1.7448,-1.735,-1.7342,0.0,0.0,-1.7334,-1.7334,-1.7302,-1.7302,-1.7302,0.0,0.0,-1.5298,0.0,-1.3373,-1.3573,-1.3052,-1.2784,-1.2757,-1.2425,-1.2305,-1.2305,-1.2305,-1.2305,-1.2187,-1.1199,-1.0826,-1.0826,-1.0826,-1.019,-0.9485,-1.049,-1.0153,-0.9523,-1.049,-1.0826,-1.0634,-0.9631,-0.9334,-0.9334,-0.9334,-0.858,-0.7821,-0.7821,-0.7061,-0.63,-0.63,-0.63,-0.63,-0.63,-0.63,-0.634,-0.6484,-0.6511,-0.6559,-0.6671,0.0,0.0,0.0,0.0,0.0,0.0,0.0,0.0,0.0,0.0,0.0,0.0,0.0,0.0,0.0,0.0,0.0,0.0,0.0,0.0,0.0,0.0,0.0,0.0,0.0,0.0,0.0,0.0,0.0,0.0,0.0,0.0,0.0,0.0,0.0,0.0,0.0,0.0,0.0,0.0,0.0,0.018,-1.9497,-1.9497,-1.9497,-1.9497,-1.9497,-1.9497,-1.9497,-1.9497,-1.9451,-1.9248,-1.8855,-1.8843,-1.9361,-1.9314,-1.9024,0.0,-1.8232,-1.7824,0.0,-1.7302,-1.7302,-1.7302,-1.6601,-1.6191,-1.6191,-1.5511,-1.5103,-1.5103,0.0,0.0,0.0,-1.4014,-1.3748,-1.3593,-1.34,-1.3247,-1.3039,-1.277,-1.222,-1.1511,-1.1353,-1.087,-1.0233,-0.9895,-0.9782,-0.9782,-0.9782,-0.9561,-0.9334,-0.9669,-0.9556,-0.9221,-0.8874,-0.9216,-0.9707,-0.941,-0.8808,-0.8275,-0.8275,-0.7557,-0.6795,-0.6795,-0.6528,-0.63,-0.63,-0.6375,-0.6474,-0.6539,-0.6559,-0.6573,-0.662,-0.5964,-0.5441,-0.548,-0.3601,0.0,0.0,0.0,0.0,0.0,0.0,0.0,0.0,0.0,0.0,0.0,0.0,0.0,0.0,0.0,0.0,0.0,0.0,0.0,0.0,0.0,0.0,0.0,0.0,0.0,0.0,0.0,0.0,0.0,0.0,0.0,0.0,0.0,0.0,0.0,0.0,0.0,0.009,0.0942,0.121,0.1523,-1.8118,-1.8118,-1.8118,-1.8118,-1.8118,-1.8118,-1.8118,-1.8118,-1.8003,-1.7756,-1.738,-1.6998,-1.6703,-1.6599,0.0,-1.7092,-1.6851,-1.6527,-1.6124,-1.6083,-1.6083,-1.6083,-1.5462,-1.5095,-1.5095,-1.4454,0.0,-1.4088,-1.4088,-1.4088,-1.4088,-1.4088,-1.3772,-1.3112,-1.301,-1.2619,-1.2035,-1.1757,-1.1251,-1.0605,-1.0445,-0.9999,-0.9427,-0.9038,-0.8882,-0.8882,-0.8882,-0.8647,-0.8378,-0.8765,-0.8652,-0.8221,-0.76,-0.7832,-0.8312,-0.8205,-0.7744,-0.7249,-0.7249,-0.6797,-0.6378,-0.6378,-0.6422,-0.6467,-0.6467,-0.6535,-0.6583,-0.6681,-0.6702,-0.6591,-0.6176,-0.5468,-0.4848,-0.4457,-0.2877,-0.1685,-0.1663,0.0,0.0,0.0,0.0,0.0,0.0,0.0,0.0,0.0,0.0,0.0,0.0,0.0,0.0,0.0,0.0,0.0,0.0,0.0,0.0,0.0,0.0,0.0,0.0,0.0,0.0,0.0,0.0,0.0,0.0,0.0,0.0,0.0,0.0,0.0,0.009,0.0852,0.1433,0.2102,-1.5784,-1.5784,-1.5784,0.0,-1.5784,0.0,-1.5784,-1.5764,-1.5698,-1.5404,-1.5117,-1.4823,-1.4522,-1.4249,-1.4489,-1.5496,0.0,0.0,0.0,-1.4088,-1.4088,-1.4088,-1.4088,-1.4088,-1.4088,-1.4088,-1.4088,-1.4088,-1.3997,-1.3997,-1.3955,-1.3913,-1.3252,-1.2188,-1.1908,-1.1222,-1.0208,-0.986,-0.9689,-0.9648,-0.9593,-0.9543,-0.938,-0.8451,-0.8086,-0.8086,-0.8086,-0.7477,-0.6864,-0.7798,-0.7473,-0.6702,-0.6702,-0.6702,-0.6647,-0.6412,-0.633,-0.633,-0.633,-0.6426,-0.6528,-0.6528,-0.6597,-0.6705,-0.6715,-0.6632,-0.6591,-0.6601,-0.6562,-0.6176,-0.518,-0.4937,-0.4578,-0.3648,-0.2458,-0.1656,-0.1656,0.0,0.0,0.0,0.0,0.0,0.0,0.0,0.0,0.0,0.0,0.0,0.0,0.0,0.0,0.0,0.0,0.0,0.0,0.0,0.0,0.0,0.0,0.0,0.0,0.0,0.0,0.0,0.0,0.0,0.0,0.0,0.0045,0.0135,0.0135,0.018,0.0269,0.0359,0.1076,0.2236,0.0,0.0,-1.5784,-1.5784,-1.5784,-1.5784,-1.5784,-1.5645,-1.5398,-1.5149,-1.481,-1.4516,-1.4222,-1.4128,-1.4208,-1.4454,-1.4489,-1.437,-1.413,-1.4088,-1.4088,-1.4088,-1.4088,-1.4088,-1.4088,-1.4088,-1.4088,-1.4088,-1.316,-1.2723,-1.2723,-1.1821,-1.1257,-1.0994,-1.0941,-1.0744,-1.0477,-1.0213,-0.9623,-0.8904,-0.8671,-0.8086,-0.7394,-0.715,-0.7067,-0.7067,-0.7067,-0.6905,-0.674,-0.6988,-0.6905,-0.6702,-0.6702,-0.6702,-0.6685,-0.6617,-0.6597,-0.6597,-0.6597,-0.662,-0.6647,-0.6647,-0.6675,-0.6729,-0.6848,-0.6138,-0.5518,-0.5654,-0.4968,-0.427,-0.3982,-0.3192,-0.2488,-0.2278,-0.121,-0.0404,-0.0404,-0.018,0.0,0.0,0.0,0.0,0.0,0.0,0.0,0.0,0.0,0.0,0.0,0.0,0.0,0.0,0.0,0.0,0.0,0.0,0.0,0.0,0.0,0.0,0.0,0.0,0.0,0.0,0.0,0.0,0.0,0.0,0.0539,0.1389,0.1389,0.1924,0.286,0.3798,0.4289,0.4732,-1.5784,-1.5784,-1.5784,-1.5784,-1.5784,-1.5784,-1.5784,-1.5585,-1.5291,-1.5048,-1.4703,-1.4409,-1.4122,-1.4088,-1.4088,-1.4088,-1.4088,-1.4088,-1.4088,-1.4088,-1.4088,-1.4088,-1.4088,-1.3822,-1.3294,-1.3294,-1.3033,-1.2516,-1.1863,-1.1509,-1.1509,-1.0907,-1.0308,-0.9836,-0.9836,-0.9531,-0.9,-0.8858,-0.8472,-0.7955,-0.7777,-0.7364,-0.6902,-0.6902,-0.6902,-0.6902,-0.6902,-0.6902,-0.6902,-0.6902,-0.6902,-0.6902,-0.6902,-0.6902,-0.6902,-0.6902,-0.6807,-0.6702,-0.6702,-0.6753,-0.682,-0.6885,-0.6471,-0.6144,-0.6219,-0.5264,-0.4443,-0.4541,-0.4061,-0.3436,-0.2858,-0.2236,-0.1612,-0.1076,-0.0449,0.0,0.0,0.0,0.0,0.0,0.0,0.0,0.0,0.0,0.0,0.0,0.0,0.0,0.0,0.0,0.0,0.0,0.0,0.0,0.0,0.0,0.0,0.0,0.0,0.0,0.0,0.0,0.0,0.0,0.0,0.0,0.0045,0.0583,0.121,0.1835,0.2413,0.3037,0.3659,0.433,0.4912,0.5492,-1.5784,-1.5784,-1.5784,-1.5784,-1.5784,-1.5784,-1.5784,-1.5585,-1.5291,-1.5048,-1.4703,-1.4322,-1.3897,-1.3822,-1.3779,-1.3603,-1.3561,-1.3646,-1.3822,-1.3652,-1.3561,-1.3561,-1.3561,-1.3075,-1.2072,-1.2029,-1.1552,-1.0611,-1.0438,-1.0351,-1.0351,-1.0178,-0.9575,-0.8627,-0.8627,-0.8061,-0.7095,-0.7095,-0.7095,-0.7095,-0.7095,-0.7095,-0.7095,-0.7095,-0.7095,-0.7095,-0.7095,-0.7095,-0.7095,-0.7095,-0.7095,-0.7095,-0.7095,-0.7095,-0.7095,-0.7095,-0.692,-0.6766,-0.6766,-0.6734,-0.6684,-0.6801,-0.598,-0.5134,-0.5134,-0.4194,-0.3347,-0.3347,-0.317,-0.2726,-0.1701,-0.1522,-0.121,-0.018,0.0,0.0,0.0,0.0,0.0,0.0,0.0,0.0,0.0,0.0,0.0,0.0,0.0,0.0,0.0,0.0,0.0,0.0,0.0,0.0,0.0,0.0,0.0,0.0,0.0,0.009,0.0269,0.009,0.009,0.0269,0.009,0.009,0.0359,0.1389,0.2013,0.2459,0.3482,0.397,0.4148,0.4148,0.4774,0.5669,-1.5784,-1.5784,-1.5784,-1.5784,-1.5784,-1.5784,-1.5784,-1.5585,-1.5291,-1.5048,-1.4703,-1.4007,-1.2705,-1.2589,-1.22,-1.1219,-1.1128,-1.1558,-1.2504,-1.1686,-1.1128,-1.1128,-1.1128,-1.1042,-1.0869,-1.0864,-1.0783,-1.0611,-0.9623,-0.9148,-0.9148,-0.8097,-0.7533,-0.736,-0.736,-0.7272,-0.7095,-0.7095,-0.7095,-0.7095,-0.7095,-0.7095,-0.7095,-0.7095,-0.7095,-0.7095,-0.7095,-0.7095,-0.7095,-0.7095,-0.7095,-0.7095,-0.7095,-0.7095,-0.7095,-0.7095,-0.7065,-0.7028,-0.7028,-0.6336,-0.5648,-0.5667,-0.4776,-0.3881,-0.3881,-0.2948,-0.2057,-0.2057,-0.1254,-0.0494,-0.0314,-0.0269,-0.0225,-0.0045,0.0,0.0,0.0,0.0,0.0,0.0,0.0,0.0,0.0,0.0,0.0,0.0,0.0,0.0,0.0,0.0,0.0,0.0,0.0,0.0,0.0,0.0,0.0,0.0,0.0,0.0539,0.1478,0.0449,0.0539,0.1478,0.0449,0.0584,0.1522,0.1701,0.2995,0.4868,0.5045,0.5714,0.6558,0.6558,0.6694,0.6827,-1.5784,-1.5242,-1.4997,-1.5683,-1.4663,-1.3932,-1.4657,-1.3944,-1.3211,-1.3013,-1.2713,-1.2233,-1.1451,-1.1381,-1.1166,-1.0654,-1.0053,-0.9923,-1.0438,-1.0567,-1.0611,-1.0611,-1.0611,-1.0308,-0.971,-0.9052,-0.8703,-0.8703,-0.8189,-0.7929,-0.7929,-0.736,-0.7095,-0.7095,-0.7095,-0.7095,-0.7095,-0.7095,-0.7095,-0.7095,-0.7095,-0.7095,-0.7095,-0.7095,-0.7095,-0.7095,-0.7095,-0.7095,-0.7095,-0.7095,-0.7095,-0.7095,-0.7095,-0.7095,-0.7095,-0.7095,-0.665,-0.6204,-0.6204,-0.5312,-0.4419,-0.4419,-0.3527,-0.2637,-0.2637,-0.1701,-0.0852,-0.0852,-0.0404,0.0,0.0,0.0,0.0,0.0,0.0,0.0,0.0,0.0,0.0,0.0,0.0,0.0,0.0,0.0,0.0,0.0,0.0,0.0,0.0,0.0,0.0,0.0,0.0,0.0,0.0,0.0,0.0,0.0,0.0673,0.1254,0.179,0.1879,0.2236,0.2726,0.2191,0.2236,0.2815,0.3484,0.4376,0.5447,0.6071,0.665,0.7095,0.7095,0.7095,0.7095,-1.4908,-1.4124,-1.3734,-1.4711,-1.3253,-1.2237,-1.3295,-1.2411,-1.1554,-1.1384,-1.1116,-1.0771,-1.028,-1.0251,-1.0144,-0.9836,-0.8969,-0.8496,-0.8496,-0.9314,-0.9788,-0.9788,-0.9788,-0.9357,-0.8496,-0.7577,-0.7095,-0.7095,-0.7095,-0.7095,-0.7095,-0.7095,-0.7095,-0.7095,-0.7095,-0.7095,-0.7095,-0.7095,-0.7095,-0.7095,-0.7095,-0.7095,-0.7095,-0.7095,-0.7095,-0.7095,-0.7095,-0.7095,-0.7095,-0.7095,-0.7095,-0.7095,-0.7095,-0.6918,-0.6694,-0.6694,-0.5669,-0.4643,-0.491,-0.4105,-0.317,-0.317,-0.2281,-0.1389,-0.1389,-0.0673,0.0,0.0,0.0,0.0,0.0,0.0,0.0,0.0,0.0,0.0,0.0,0.0,0.0,0.0,0.0,0.0,0.0,0.0,0.0,0.0,0.0,0.0,0.0,0.0,0.0,0.0,0.0,0.0135,0.0404,0.0404,0.0539,0.0852,0.179,0.237,0.2638,0.3304,0.3748,0.4016,0.3703,0.3748,0.4105,0.5001,0.5536,0.5891,0.6738,0.7095,0.7095,0.7095,0.7095,0.7095,-1.2188,-1.2091,-1.2091,-1.2188,-1.2042,-1.1945,-1.2042,-1.1935,-1.1791,-1.1512,-1.1462,-1.0878,-0.9395,-0.9221,-0.871,-0.7459,-0.7272,-0.7228,-0.7228,-0.7316,-0.7356,-0.7356,-0.7356,-0.7316,-0.7228,-0.7139,-0.7095,-0.7095,-0.7095,-0.7095,-0.7095,-0.7095,-0.7095,-0.7095,-0.7095,-0.7095,-0.7095,-0.7095,-0.7095,-0.7095,-0.7095,-0.7095,-0.7095,-0.7095,-0.7095,-0.7095,-0.7095,-0.7095,-0.7095,-0.7095,-0.7095,-0.7095,-0.7095,-0.6384,-0.5536,-0.5536,-0.3885,-0.2325,-0.3438,-0.286,-0.1924,-0.1924,-0.1031,-0.0135,-0.0135,-0.0045,0.0,0.0,0.0,0.0,0.0,0.0,0.0,0.0,0.0,0.0,0.0,0.0,0.0,0.0,0.0,0.0,0.0,0.0,0.0,0.0,0.0,0.0,0.0,0.0,0.0,0.0,0.0,0.0539,0.1657,0.1656,0.2236,0.3347,0.3436,0.4061,0.509,0.4061,0.4196,0.5223,0.4105,0.4239,0.527,0.5359,0.6027,0.6962,0.7051,0.7095,0.7095,0.7095,0.7095,0.7095,-1.1896,-1.1268,-1.0974,-1.1755,-1.0583,-0.9752,-1.0583,-0.9998,-0.9392,-0.9208,-0.9188,-0.8958,-0.8266,-0.8101,-0.7838,-0.7334,-0.7149,-0.7095,-0.7095,-0.7095,-0.7095,-0.7095,-0.7095,-0.7095,-0.7095,-0.7095,-0.7095,-0.7095,-0.7095,-0.7095,-0.7095,-0.7095,-0.7095,-0.7095,-0.7095,-0.7095,-0.7095,-0.7095,-0.7095,-0.7095,-0.7095,-0.7095,-0.7095,-0.7095,-0.7095,-0.7095,-0.7095,-0.7095,-0.7095,-0.7095,-0.665,-0.6027,-0.6027,-0.522,-0.4152,-0.3395,-0.2504,-0.1746,-0.1433,-0.1031,-0.0673,-0.0673,-0.0359,0.0,0.0,0.0,0.0,0.0,0.0,0.0,0.0,0.0,0.0,0.0,0.0,0.0,0.0,0.0,0.0,0.0,0.0,0.0,0.0,0.0,0.0,0.0,0.0,0.0,0.0,0.0,0.0359,0.1076,0.1121,0.1344,0.179,0.179,0.2413,0.3614,0.4374,0.4954,0.5403,0.5667,0.6021,0.6428,0.5977,0.6024,0.6473,0.6473,0.6694,0.7095,0.7095,0.7095,0.7109,0.7248,0.7285,0.7295,-1.0681,-0.9948,-0.9653,-1.0534,-0.9213,-0.8333,-0.9217,-0.8577,-0.7951,-0.7896,-0.7882,-0.7828,-0.7682,-0.7573,-0.7492,-0.7448,-0.7302,-0.7214,-0.7214,-0.7122,-0.7095,-0.7095,-0.7095,-0.7095,-0.7095,-0.7095,-0.7095,-0.7095,-0.7095,-0.7095,-0.7095,-0.7095,-0.7095,-0.7095,-0.7095,-0.7095,-0.7095,-0.6738,-0.6782,-0.7051,-0.6694,-0.6782,-0.7051,-0.6694,-0.6561,-0.6517,-0.6157,-0.6021,-0.6021,-0.6021,-0.5489,-0.4821,-0.4821,-0.4016,-0.2814,-0.1567,-0.1254,-0.1076,-0.0225,0.0,0.0,0.0,0.0,0.0,0.0,0.0,0.0,0.0,0.0,0.0,0.0,0.0,0.0,0.0,0.0,0.0,0.0,0.0,0.0,0.0,0.0,0.0,0.0,0.0,0.0,0.0,0.0,0.0,0.0,0.0359,0.0942,0.179,0.2147,0.2556,0.298,0.296,0.3528,0.4727,0.5534,0.5938,0.5983,0.6786,0.7214,0.7214,0.722,0.724,0.724,0.724,0.724,0.724,0.724,0.724,0.7253,0.7404,0.7444,0.7458,-0.7988,-0.7988,-0.7988,-0.7988,-0.7988,-0.7988,-0.7988,-0.7988,-0.7988,-0.7988,-0.7988,-0.7931,-0.7828,-0.7811,-0.7753,-0.7614,-0.7461,-0.7419,-0.7419,-0.7227,-0.7098,-0.7098,-0.7095,-0.7095,-0.7095,-0.7095,-0.7095,-0.7095,-0.7095,-0.7095,-0.7095,-0.7095,-0.7095,-0.7095,-0.7095,-0.7095,-0.7007,-0.5891,-0.6027,-0.6962,-0.5849,-0.6071,-0.6962,-0.5802,-0.5403,-0.5223,-0.4016,-0.3614,-0.3614,-0.3614,-0.3614,-0.357,-0.357,-0.2769,-0.1567,-0.0359,0.0,0.0,0.0,0.0,0.0,0.0,0.0,0.0,0.0,0.0,0.0,0.0,0.0,0.0,0.0,0.0,0.0,0.0,0.0,0.0,0.0,0.0,0.0,0.0,0.0,0.0,0.0,0.0,0.0,0.0,0.0,0.0,0.0,0.1166,0.1791,0.1836,0.2994,0.424,0.5621,0.5462,0.5985,0.7098,0.7098,0.7098,0.7105,0.7302,0.7419,0.7429,0.7533,0.76,0.76,0.76,0.76,0.76,0.76,0.76,0.76,0.76,0.76,0.76,-0.7988,-0.7988,-0.7988,-0.7988,-0.7988,-0.7988,-0.7988,-0.7988,-0.7988,-0.7988,-0.7988,-0.7971,-0.7928,-0.7875,-0.7794,-0.775,-0.7614,-0.7533,-0.7533,-0.7489,-0.7414,-0.7309,-0.7156,-0.7095,-0.7095,-0.7095,-0.7095,-0.7095,-0.7095,-0.7095,-0.7095,-0.7095,-0.7095,-0.7051,-0.6248,-0.5894,-0.5849,-0.4641,-0.4328,-0.4594,-0.4283,-0.4328,-0.4594,-0.4283,-0.415,-0.4105,-0.3748,-0.3614,-0.3614,-0.3614,-0.3037,-0.2191,-0.1344,-0.0807,-0.0449,-0.009,0.0,0.0,0.0,0.0,0.0,0.0,0.0,0.0,0.0,0.0,0.0,0.0,0.0,0.0,0.0,0.0,0.0,0.0,0.0,0.0,0.0,0.0,0.0,0.0,0.0,0.0,0.0,0.0,0.0,0.0,0.0,0.0413,0.1374,0.1763,0.2755,0.4566,0.4937,0.5748,0.7013,0.6041,0.6162,0.7461,0.7461,0.7461,0.7465,0.7509,0.7533,0.7536,0.758,0.76,0.76,0.76,0.76,0.76,0.76,0.76,0.7611,0.7709,0.7746,0.7763,-0.7988,-0.7988,-0.7988,-0.7988,-0.7988,-0.7988,-0.7988,-0.7988,-0.7988,-0.7988,-0.7988,-0.7988,-0.7988,-0.7907,-0.7899,-0.7899,-0.7767,-0.7658,-0.7604,-0.76,-0.7556,-0.7465,-0.7373,-0.722,-0.7098,-0.7095,-0.7095,-0.7095,-0.665,-0.6428,-0.6428,-0.5933,-0.5708,-0.5664,-0.4996,-0.4688,-0.4599,-0.3393,-0.317,-0.357,-0.3081,-0.317,-0.357,-0.3081,-0.2903,-0.2815,-0.2325,-0.2191,-0.2191,-0.2191,-0.17,-0.0941,-0.0225,0.0,0.0,0.0,0.0,0.0,0.0,0.0,0.0,0.0,0.0,0.0,0.0,0.0,0.0,0.0,0.0,0.0,0.0,0.0,0.0,0.0,0.0,0.0,0.0,0.0,0.0,0.0,0.0,0.0,0.0,0.05,0.1002,0.156,0.1578,0.1915,0.2755,0.3256,0.4224,0.5737,0.6258,0.6903,0.7682,0.6879,0.6854,0.76,0.76,0.76,0.76,0.7658,0.7682,0.7685,0.7746,0.7773,0.7773,0.7773,0.7773,0.7773,0.7773,0.7773,0.7784,0.7868,0.7899,0.7916,-0.7988,-0.7988,-0.7988,-0.7988,-0.7988,-0.7988,-0.7988,-0.7988,-0.7988,-0.7988,-0.7988,-0.7988,-0.7988,-0.7988,-0.7988,-0.7988,-0.7913,-0.7777,-0.7648,-0.7638,-0.7634,-0.7617,-0.7523,-0.7293,-0.6961,-0.7091,-0.7084,-0.6982,-0.5911,-0.5369,-0.5223,-0.4105,-0.3614,-0.3614,-0.3481,-0.3436,-0.3349,-0.2147,-0.2281,-0.317,-0.2102,-0.228,-0.317,-0.2057,-0.1657,-0.1478,-0.0404,0.0,0.0,0.0,0.0,0.0,0.0,0.0,0.0,0.0,0.0,0.0,0.0,0.0,0.0,0.0,0.0,0.0,0.0,0.0,0.0,0.0,0.0,0.0,0.0,0.0,0.0,0.0,0.0,0.0,0.0,0.0,0.0,0.0,0.0,0.0,0.0,0.1112,0.2331,0.3556,0.3757,0.3808,0.3808,0.5,0.5671,0.5813,0.6868,0.7556,0.7831,0.7831,0.7767,0.7638,0.7638,0.7638,0.7645,0.7773,0.7831,0.7838,0.7931,0.7988,0.7988,0.7988,0.7988,0.7988,0.7988,0.7988,0.7988,0.7988,0.7988,0.7988,-0.7988,-0.7988,-0.7988,-0.7988,-0.7988,-0.7988,-0.7988,-0.7988,-0.7988,-0.7988,-0.7988,-0.7988,-0.7988,-0.7988,-0.7988,-0.7988,-0.7961,-0.7928,-0.7897,-0.7894,-0.7889,-0.777,-0.6744,-0.6093,-0.5944,-0.6932,-0.6974,-0.5903,-0.5676,-0.5037,-0.3972,-0.3703,-0.3614,-0.357,-0.2592,-0.2191,-0.2102,-0.0897,-0.0539,-0.0763,-0.0494,-0.0539,-0.0763,-0.0494,-0.0404,-0.0359,-0.009,0.0,0.0,0.0,0.0,0.0,0.0,0.0,0.0,0.0,0.0,0.0,0.0,0.0,0.0,0.0,0.0,0.0,0.0,0.0,0.0,0.0,0.0,0.0,0.0,0.0,0.0,0.0,0.0,0.0,0.0,0.0,0.0,0.0,0.0,0.0,0.0,0.0284,0.0569,0.0857,0.1832,0.243,0.243,0.3692,0.486,0.5906,0.6205,0.6863,0.7941,0.7941,0.7924,0.7894,0.7894,0.7894,0.7894,0.7928,0.7941,0.7941,0.7975,0.7988,0.7988,0.7988,0.7988,0.7988,0.7988,0.7988,0.7988,0.7988,0.7988,0.7988,-0.7988,-0.7988,-0.7988,-0.7988,-0.7988,-0.7988,-0.7988,-0.7988,-0.7988,-0.7988,-0.7988,-0.7988,-0.7988,-0.7988,-0.7988,-0.7988,-0.7434,-0.7033,-0.7033,-0.6429,-0.6046,-0.5984,-0.5293,-0.4922,-0.4825,-0.5506,-0.5482,-0.4627,-0.4068,-0.3443,-0.2716,-0.2164,-0.1888,-0.1842,-0.1245,-0.0923,-0.0922,-0.0274,0.0,0.0,0.0,0.0,0.0,0.0,0.0,0.0,0.0,0.0,0.0,0.0,0.0,0.0,0.0,0.0,0.0,0.0,0.0,0.0,0.0,0.0,0.0,0.0,0.0,0.0,0.0,0.0,0.0,0.0,0.0,0.0,0.0,0.0,0.0,0.0,0.0,0.0,0.0,0.0,0.0,0.0,0.0,0.0239,0.0916,0.0973,0.1223,0.1856,0.2561,0.297,0.297,0.4246,0.497,0.5022,0.6276,0.6983,0.7033,0.7686,0.7988,0.7988,0.7988,0.7988,0.7988,0.7988,0.7988,0.7988,0.7988,0.7988,0.7988,0.7988,0.7988,0.7988,0.7988,0.7988,0.7988,0.7988,0.7988,0.7988,-0.7988,-0.7988,-0.7988,-0.7988,-0.7988,-0.7988,-0.7988,-0.7988,-0.7988,-0.7988,-0.7988,-0.7988,-0.7988,-0.7789,-0.7637,-0.7637,-0.6429,-0.5677,-0.5677,-0.4618,-0.4016,-0.4016,-0.3765,-0.3665,-0.3665,-0.3416,-0.3309,-0.3339,-0.234,-0.1718,-0.1476,-0.0476,0.0,0.0,0.0,0.0,0.0,0.0,0.0,0.0,0.0,0.0,0.0,0.0,0.0,0.0,0.0,0.0,0.0,0.0,0.0,0.0,0.0,0.0,0.0,0.0,0.0,0.0,0.0,0.0,0.0,0.0,0.0,0.0,0.0,0.0,0.0,0.0,0.0,0.0,0.0,0.0,0.0,0.0,0.0,0.0,0.0,0.0,0.0,0.0,0.0,0.0436,0.1571,0.1646,0.2113,0.3215,0.3765,0.3915,0.3665,0.5122,0.5475,0.4368,0.6476,0.7235,0.6329,0.7437,0.7988,0.7988,0.7988,0.7988,0.7988,0.7988,0.7988,0.7988,0.7988,0.7988,0.7988,0.7988,0.7988,0.7988,0.7988,0.7988,0.7988,0.7988,0.7988,0.7988,-0.7988,-0.7988,-0.7988,-0.7988,-0.7988,-0.7988,-0.7988,-0.7988,-0.7988,-0.7988,-0.7988,-0.7988,-0.7988,-0.6983,-0.6279,-0.6279,-0.502,-0.4268,-0.4268,-0.4116,-0.4016,-0.4016,-0.2864,-0.2264,-0.2264,-0.1159,-0.1097,-0.224,-0.2046,-0.1402,-0.0238,-0.0095,0.0,0.0,0.0,0.0,0.0,0.0,0.0,0.0,0.0,0.0,0.0,0.0,0.0,0.0,0.0,0.0,0.0,0.0,0.0,0.0,0.0,0.0,0.0,0.0,0.0,0.0,0.0,0.0,0.0,0.0,0.0,0.0,0.0,0.0,0.0,0.0,0.0,0.0,0.0,0.0,0.0,0.0,0.0,0.0,0.0,0.0,0.0,0.0,0.0,0.005,0.0251,0.0252,0.0353,0.0504,0.2665,0.3515,0.2314,0.4622,0.5927,0.5727,0.6079,0.6734,0.7736,0.7889,0.7988,0.7988,0.7988,0.7988,0.7988,0.7988,0.7988,0.7988,0.7988,0.7988,0.7988,0.7988,0.7988,0.7988,0.7988,0.7988,0.7988,0.7988,0.7988,0.7988,-0.7988,-0.7988,-0.7988,-0.7988,-0.7988,-0.7988,-0.7988,-0.7385,-0.6883,-0.6883,-0.6226,-0.5772,-0.5772,-0.522,-0.487,-0.487,-0.3667,-0.2864,-0.2864,-0.2163,-0.1762,-0.1762,-0.1209,-0.0907,-0.0907,-0.0303,-0.0302,-0.0896,-0.0896,-0.0595,0.0,0.0,0.0,0.0,0.0,0.0,0.0,0.0,0.0,0.0,0.0,0.0,0.0,0.0,0.0,0.0,0.0,0.0,0.0,0.0,0.0,0.0,0.0,0.0,0.0,0.0,0.0,0.0,0.0,0.0,0.0,0.0,0.0,0.0,0.0,0.0,0.0,0.0,0.0,0.0,0.0,0.0,0.0,0.0,0.0,0.0,0.0,0.0,0.0,0.0,0.0652,0.0807,0.005,0.0656,0.1109,0.1109,0.2213,0.2964,0.3115,0.4972,0.5677,0.492,0.6329,0.7033,0.6883,0.7637,0.7988,0.7988,0.7988,0.7988,0.7988,0.7988,0.7988,0.7988,0.7988,0.7988,0.7988,0.7988,0.7988,0.7988,0.7988,0.7988,0.7988,0.7988,0.7988,0.7988]},{"header":{"parameterUnit":"m.s-1","parameterCategory":1,"la1":30.6,"la2":28.766,"lo1":-90.7593,"lo2":-88.6598,"dy":0.0162,"dx":0.0183,"nx":116,"ny":114,"refTime":"2023-10-05T12:00:00:Z","depth":0,"parameterNumber":3,"parameterNumberName":"V-component_of_WINDS"},"data":[0.0,0.0,0.0,0.0,0.0,0.0,0.0,0.0,0.0,0.0,0.0,0.0,0.0,0.0,0.0,0.0,0.0,0.0,0.0,0.0,0.0,0.0,0.0,0.0,0.0,0.0,0.0,0.0,0.0,0.0,0.0,0.0,0.0,0.0,0.0,0.0,0.0,0.0,0.0,0.0,0.0,0.0,0.0,0.0,0.0,0.0,0.0,0.0,0.0,0.0,0.0,0.0,0.0,0.0,0.0,0.0,0.0,0.0,0.0,0.0,0.0,0.0,0.0,0.0,0.0,0.0,0.0,0.0,0.0,0.0,0.0,0.0,0.0,0.0,0.0,0.0,0.0,0.0,0.0,0.0,0.0,0.0,0.0,0.0,0.0,0.0,0.0,0.0,0.0,0.0,0.0,0.0,0.0,0.0,0.0,0.0,0.0,0.0,0.0,0.0,0.0,0.0,0.0,0.0,0.0,0.0,0.0,0.0,0.0,0.0,0.0,0.0,0.0,0.0,0.0,0.0,0.0,0.0,0.0,0.0,0.0,0.0,0.0,0.0,0.0,0.0,0.0,0.0,0.0,0.0,0.0,0.0,0.0,0.0,0.0,0.0,0.0,0.0,0.0,0.0,0.0,0.0,0.0,0.0,0.0,0.0,0.0,0.0,0.0,0.0,0.0,0.0,0.0,0.0,0.0,0.0,0.0,0.0,0.0,0.0,0.0,0.0,0.0,0.0,0.0,0.0,0.0,0.0,0.0,0.0,0.0,0.0,0.0,0.0,0.0,0.0,0.0,0.0,0.0,0.0,0.0,0.0,0.0,0.0,0.0,0.0,0.0,0.0,0.0,0.0,0.0,0.0,0.0,0.0,0.0,0.0,0.0,0.0,0.0,0.0,0.0,0.0,0.0,0.0,0.0,0.0,0.0,0.0,0.0,0.0,0.0,0.0,0.0,0.0,0.0,0.0,0.0,0.0,0.0,0.0,0.0,0.0,0.0,0.0,0.0,0.0,0.0,0.0,0.0,0.0,0.0,0.0,0.0,0.0,0.0,0.0,0.0,0.0,0.0,0.0,0.0,0.0,0.0,0.0,0.0,0.0,0.0,0.0,0.0,0.0,0.0,0.0,0.0,0.0,0.0,0.0,0.0,0.0,0.0,0.0,0.0,0.0,0.0,0.0,0.0,0.0,0.0,0.0,0.0,0.0,0.0,0.0,0.0,0.0,0.0,0.0,0.0,0.0,0.0,0.0,0.0,0.0,0.0,0.0,0.0,0.0,0.0,0.0,0.0,0.0,0.0,0.0,0.0,0.0,0.0,0.0,0.0,0.0,0.0,0.0,0.0,0.0,0.0,0.0,0.0,0.0,0.0,0.0,0.0,0.0,0.0,0.0,0.0,0.0,0.0,0.0,0.0,0.0,0.0,0.0,0.0,0.0,0.0,0.0,0.0,0.0,0.0,0.0,0.0,0.0,0.0,0.0,0.0,0.0,0.0,0.0,0.0,0.0,0.0,0.0,0.0,0.0,0.0,0.0,0.0,0.0,0.0,0.0,0.0,0.0,0.0,0.0,0.0,0.0,0.0,0.0,0.0,0.0,0.0,0.0,0.0,0.0,0.0,0.0,0.0,0.0,0.0,0.0,0.0,0.0,0.0,0.0,0.0,0.0,0.0,0.0,0.0,0.0,0.0,0.0,0.0,0.0,0.0,0.0,0.0,0.0,0.0,0.0,0.0,0.0,0.0,0.0,0.0,0.0,0.0,0.0,0.0,0.0,0.0,0.0,0.0,0.0,0.0,0.0,0.0,0.0,0.0,0.0,0.0,0.0,0.0,0.0,0.0,0.0,0.0,0.0,0.0,0.0,0.0,0.0,0.0,0.0,0.0,0.0,0.0,0.0,0.0,0.0,0.0,0.0,0.0,0.0,0.0,0.0,0.0,0.0,0.0,0.0,0.0,0.0,0.0,0.0,0.0,0.0,0.0,0.0,0.0,0.0,0.0,0.0,0.0,0.0,0.0,0.0,0.0,0.0,0.0,0.0,0.0,0.0,0.0,0.0,0.0,0.0,0.0,0.0,0.0,0.0,0.0,0.0,0.0,0.0,0.0,0.0,0.0,0.0,0.0,0.0,0.0,0.0,0.0,0.0,0.0,0.0,0.0,0.0,0.0,0.0,0.0,0.0,0.0,0.0,0.0,0.0,0.0,0.0,0.0,0.0,0.0,0.0,0.0,0.0,0.0,0.0,0.0,0.0,0.0,0.0,0.0,0.0,0.0,0.0,0.0,0.0,0.0,0.0,0.0,0.0,0.0,0.0,0.0,0.0,0.0,0.0,0.0,0.0,0.0,0.0,0.0,0.0,0.0,0.0,0.0,0.0,0.0,0.0,0.0,0.0,0.0,0.0,0.0,0.0,0.0,0.0,0.0,0.0,0.0,0.0,0.0,0.0,0.0,0.0,0.0,0.0,0.0,0.0,0.0,0.0,0.0,0.0,0.0,0.0,0.0,0.0,0.0,0.0,0.0,0.0,0.0,0.0,0.0,0.0,0.0,0.0,0.0,0.0,0.0,0.0,0.0,0.0,0.0,0.0,0.0,0.0,0.0,0.0,0.0,0.0,0.0,0.0,0.0,0.0,0.0,0.0,0.0,0.0,0.0,0.0,0.0,0.0,0.0,0.0,0.0,0.0,0.0,0.0,0.0,0.0,0.0,0.0,0.0,0.0,0.0,0.0,0.0,0.0,0.0,0.0,0.0,0.0,0.0,0.0,0.0,0.0,0.0,0.0,0.0,0.0,0.0,0.0,0.0,0.0,0.0,0.0,0.0,0.0,0.0,0.0,0.0,0.0,0.0,0.0,0.0,0.0,0.0,0.0,0.0,0.0,0.0,0.0,0.0,0.0,0.0,0.0,0.0,0.0,0.0,0.0,0.0,0.0,0.0,0.0,0.0,0.0,0.0,0.0,0.0,0.0,0.0,0.0,0.0,0.0,0.0,0.0,0.0,0.0,0.0,0.0,0.0,0.0,0.0,0.0,0.0,0.0,0.0,0.0,0.0,0.0,0.0,0.0,0.0,0.0,0.0,0.0,0.0,0.0,0.0,0.0,0.0,0.0,0.0,0.0,0.0,0.0,0.0,0.0,0.0,0.0,0.0,0.0,0.0,0.0,0.0,0.0,0.0,0.0,0.0,0.0,0.0,0.0,0.0,0.0,0.0,0.0,0.0,0.0,0.0,0.0,0.0,0.0,0.0,0.0,0.0,0.0,0.0,0.0,0.0,0.0,0.0,0.0,0.0,0.0,0.0,0.0,0.0,0.0,0.0,0.0,0.0,0.0,0.0,0.0,0.0,0.0,0.0,0.0,0.0,0.0,0.0,0.0,0.0,0.0,0.0,0.0,0.0,0.0,0.0,0.0,0.0,0.0,0.0,0.0,0.0,0.0,0.0,0.0,0.0,0.0,0.0,0.0,0.0,0.0,0.0,0.0,0.0,0.0,0.0,0.0,0.0,0.0,0.0,0.0,0.0,0.0,0.0,0.0,0.0,0.0,0.0,0.0,0.0,0.0,0.0,0.0,0.0,0.0,0.0,0.0,0.0,0.0,0.0,0.0,0.0,0.0,0.0,0.0,0.0,0.0,0.0,0.0,0.0,0.0,0.0,0.0,0.0,0.0,0.0,0.0,0.0,0.0,0.0,0.0,0.0,0.0,0.0,0.0,0.0,0.0,0.0,0.0,0.0,0.0,0.0,0.0,0.0,0.0,0.0,0.0,0.0,0.0,0.0,0.0,0.0,0.0,0.0,0.0,0.0,0.0,0.0,0.0,0.0,0.0,0.0,0.0,0.0,0.0,0.0,0.0,0.0,0.0,0.0,0.0,0.0,0.0,0.0,0.0,0.0,0.0,0.0,0.0,0.0,0.0,0.0,0.0,0.0,0.0,0.0,0.0,0.0,0.0,0.0,0.0,0.0,0.0,0.0,0.0,0.0,0.0,0.0,0.0,0.0,0.0,0.0,0.0,0.0,0.0,0.0,0.0,0.0,0.0,0.0,0.0,0.0,0.0,0.0,0.0,0.0,0.0,0.0,0.0,0.0,0.0,0.0,0.0,0.0,0.0,0.0,0.0,0.0,0.0,0.0,0.0,0.0,0.0,0.0,0.0,0.0,0.0,0.0,0.0,0.0,0.0,0.0,0.0,0.0,0.0,0.0,0.0,0.0,0.0,0.0,0.0,0.0,0.0,0.0,0.0,0.0,0.0,0.0,0.0,0.0,0.0,0.0,0.0,0.0,0.0,0.0,0.0,0.0,0.0,0.0,0.0,0.0,0.0,0.0,0.0,0.0,0.0,0.0,0.0,0.0,0.0,0.0,0.0,0.0,0.0,0.0,0.0,0.0,0.0,0.0,0.0,0.0,0.0,0.0,0.0,0.0,0.0,0.0,0.0,0.0,0.0,0.0,0.0,0.0,0.0,0.0,0.0,0.0,0.0,0.0,0.0,0.0,0.0,0.0,0.0,0.0,0.0,0.0,0.0,0.0,0.0,0.0,0.0,0.0,0.0,0.0,0.0,0.0,0.0,0.0,0.0,0.0,0.0,0.0,0.0,0.0,0.0,0.0,0.0,0.0,0.0,0.0,0.0,0.0,0.0,0.0,0.0,0.0,0.0,0.0,0.0,0.0,0.0,0.0,0.0,0.0,0.0,0.0,0.0,0.0,0.0,0.0,0.0,0.0,0.0,0.0,0.0,0.0,0.0,0.0,0.0,0.0,0.0,0.0,0.0,0.0,0.0,0.0,0.0,0.0,0.0,0.0,0.0,0.0,0.0,0.0,0.0,0.0,0.0,0.0,0.0,0.0,0.0,0.0,0.0,0.0,0.0,0.0,0.0,0.0,0.0,0.0,0.0,0.0,0.0,0.0,0.0,0.0,0.0,0.0,0.0,0.0,0.0,0.0,0.0,0.0,0.0,0.0,0.0,0.0,0.0,0.0,0.0,0.0,0.0,0.0,0.0,0.0,0.0,0.0,0.0,0.0,0.0,0.0,0.0,0.0,0.0,0.0,0.0,0.0,0.0,0.0,0.0,0.0,0.0,0.0,0.0,0.0,0.0,0.0,0.0,0.0,0.0,0.0,0.0,0.0,0.0,0.0,0.0,0.0,0.0,0.0,0.0,0.0,0.0,0.0,0.0,0.0,0.0,0.0,0.0,0.0,0.0,0.0,0.0,0.0,0.0,0.0,0.0,0.0,0.0,0.0,0.0,0.0,0.0,0.0,0.0,0.0,0.0,0.0,0.0,0.0,0.0,0.0,0.0,0.0,0.0,0.0,0.0,0.0,0.0,0.0,0.0,0.0,0.0,0.0,0.0,0.0,0.0,0.0,0.0,0.0,0.0,0.0,0.0,0.0,0.0,0.0,0.0,0.0,0.0,0.0,0.0,0.0,0.0,0.0,0.0,0.0,0.0,0.0,0.0,0.0,0.0,0.0,0.0,0.0,0.0,0.0,0.0,0.0,0.0,0.0,0.0,0.0,0.0,0.0,0.0,0.0,0.0,0.0,0.0,0.0,0.0,0.0,0.0,0.0,0.0,0.0,0.0,0.0,0.0,0.0,0.0,0.0,0.0,0.0,0.0,0.0,0.0,0.0,0.0,0.0,0.0,0.0,0.0,0.0,0.0,0.0,0.0,0.0,0.0,0.0,0.0,0.0,0.0,0.0,0.0,0.0,0.0,0.0,0.0,0.0,0.0,0.0,0.0,0.0,0.0,0.0,0.0,0.0,0.0,0.0,0.0,0.0,0.0,0.0,0.0,0.0,0.0,0.0,0.0,0.0,0.0,0.0,0.0,0.0,0.0,0.0,0.0,0.0,0.0,0.0,0.0,0.0,0.0,0.0,0.0,0.0,0.0,0.0,0.0,0.0,0.0,0.0,0.0,0.0,0.0,0.0,0.0,0.0,0.0,0.0,0.0,0.0,0.0,0.0,0.0,0.0,0.0,0.0,0.0,0.0,0.0,0.0,0.0,0.0,0.0,0.0,0.0,0.0,0.0,0.0,0.0,0.0,0.0,0.0,0.0,0.0,0.0,0.0,0.0,0.0,0.0,0.0,0.0,0.0,0.0,0.0,0.0,-1.0141,0.0,0.0,0.0,0.0,0.0,0.0,0.0,0.0,0.0,0.0,0.0,0.0,0.0,0.0,0.0,0.0,0.0,0.0,0.0,0.0,0.0,0.0,0.0,0.0,0.0,0.0,0.0,0.0,0.0,0.0,0.0,0.0,0.0,0.0,0.0,0.0,0.0,0.0,0.0,1.777,1.7784,1.7716,1.6294,1.4863,1.341,0.0,0.0,0.0,0.0,0.0,0.0,0.0,0.0,0.0,0.0,0.0,0.0,0.0,0.0,0.0,0.0,0.0,0.0,0.0,0.0,0.0,0.0,0.0,0.0,0.0,0.0,0.0,0.0,0.0,0.0,0.0,0.0,0.0,0.0,0.0,0.0,0.0,0.0,0.0,0.0,0.0,0.0,0.0,0.0,0.0,0.0,0.0,0.0,0.0,0.0,0.0,0.0,0.0,0.0,0.0,0.0,0.0,0.0,0.0,0.0,0.0,0.0,0.0,0.0,0.0,0.0,0.0,0.0,0.0,0.0,0.0,-1.0391,0.0,0.0,0.0,0.0,0.0,0.0,0.0,0.0,0.0,0.0,0.0,0.0,0.0,0.0,0.0,0.0,0.0,0.0,0.0,0.0,0.0,0.0,0.0,0.0,0.0,0.0,0.0,0.0,0.0,0.0,0.0,0.0,0.0,0.0,0.0,2.0687,2.0643,2.0792,2.0951,2.0608,1.9846,1.8882,1.8055,1.7286,1.5292,0.0,0.0,0.0,0.0,0.0,0.0,0.0,0.0,0.0,0.0,0.0,0.0,0.0,0.0,0.0,0.0,0.0,0.0,0.0,0.0,0.0,0.0,0.0,0.0,0.0,0.0,0.0,0.0,0.0,0.0,0.0,0.0,0.0,0.0,0.0,0.0,0.0,0.0,0.0,0.0,0.0,0.0,0.0,0.0,0.0,0.0,0.0,0.0,0.0,0.0,0.0,0.0,0.0,0.0,0.0,0.0,0.0,0.0,0.0,0.0,0.0,0.0,0.0,-0.7948,-0.7965,-0.7988,-0.7988,-0.7988,-0.8038,-0.9167,-0.9657,-0.9752,-1.1023,0.0,0.0,0.0,0.0,0.0,0.0,0.0,0.0,0.0,0.0,0.0,0.0,0.0,0.0,0.0,0.0,0.0,0.0,0.0,0.0,0.0,0.0,2.275,0.0,0.0,0.0,0.0,0.0,0.0,0.0,0.0,0.0,2.1721,2.0974,2.0896,2.1568,2.2311,2.2627,2.2481,2.1701,2.1287,2.1055,1.8364,1.667,1.5739,0.0,0.0,0.0,0.0,0.0,0.0,0.0,0.0,0.0,0.0,0.0,0.0,0.0,0.0,0.0,0.0,0.0,0.0,0.0,0.0,0.0,0.0,0.0,0.0,0.0,0.0,0.0,0.0,0.0,0.0,0.0,0.0,0.0,0.0,0.0,0.0,0.0,0.0,0.0,0.0,0.0,-0.3659,-0.3838,0.0,0.0,0.0,0.0,0.0,0.0,0.0,0.0,0.0,0.0,0.0,0.0,0.0,-0.7607,-0.7628,-0.7628,-0.7699,-0.7841,-0.7841,-0.7913,-0.7988,-0.7988,-0.7988,-0.7988,-0.8187,0.0,-0.8382,-0.9702,0.0,0.0,0.0,0.0,0.0,0.0,0.0,0.0,0.0,0.0,0.0,0.0,0.0,0.0,0.0,0.0,0.0,0.0,0.0,0.0,0.0,0.0,2.4381,0.0,0.0,0.0,0.0,0.0,0.0,0.0,0.0,2.3878,2.3878,2.3487,2.3462,2.3787,2.4158,2.4343,2.4343,2.4011,2.3657,2.3195,2.1964,2.0133,1.7884,1.6444,0.0,0.0,0.0,0.0,0.0,0.0,0.0,0.0,0.0,0.0,0.0,0.0,0.0,0.0,0.0,0.0,0.0,0.0,0.0,0.0,0.0,0.0,0.0,0.0,0.0,0.0,0.0,0.0,0.0,0.0,0.0,0.0,0.0,0.0,0.0,0.0,0.0,0.0,0.0,-0.1835,-0.2858,-0.3525,-0.4688,-0.5669,0.0,0.0,0.0,0.0,0.0,0.0,0.0,0.0,0.0,-0.7241,-0.6669,-0.6416,-0.649,-0.649,-0.6552,-0.6673,-0.7352,-0.7729,-0.779,-0.779,-0.779,-0.779,-0.779,-0.779,-0.7852,-0.8554,-0.9312,-1.0132,0.0,0.0,0.0,0.0,-1.2444,-1.2273,0.0,0.0,0.0,0.0,0.0,0.0,0.0,0.0,0.0,0.0,0.0,0.0,2.5577,2.5767,2.5847,2.5847,0.0,0.0,0.0,0.0,0.0,0.0,0.0,2.5685,2.5847,2.6049,2.6064,2.5903,2.5903,2.5903,2.5903,2.555,2.5119,2.4567,2.4567,2.2842,1.9814,1.8816,1.7485,1.586,0.0,0.0,0.0,0.0,0.0,0.0,0.0,0.0,0.0,0.0,0.0,0.0,0.0,0.0,0.0,0.0,0.0,0.0,0.0,0.0,0.0,0.0,0.0,0.0,0.0,0.0,0.0,0.0,0.0,0.0,0.0,0.0,0.0,0.0,0.0,0.0,0.0,-0.0762,-0.1656,-0.2592,-0.3751,-0.4821,0.0,0.0,0.0,0.0,0.0,0.0,-0.6605,-0.6962,-0.6962,-0.6694,-0.5849,-0.531,-0.5072,-0.5395,-0.5634,-0.5743,-0.6973,-0.756,-0.76,-0.76,-0.76,-0.76,-0.76,-0.76,-0.7617,-0.7838,-0.8506,-0.9409,-0.965,-1.0297,-1.112,-1.0997,-1.0959,-1.0747,0.0,0.0,0.0,0.0,0.0,0.0,0.0,0.0,0.0,0.0,0.0,2.6203,2.6256,2.6766,2.7101,2.7101,2.7101,2.7404,0.0,0.0,2.6825,2.8104,2.6927,2.6526,2.7101,2.7792,2.7878,2.7309,2.7309,2.7309,2.7269,2.5997,2.537,2.5342,2.5342,2.4011,2.1698,2.0687,1.9781,1.8738,1.5963,0.0,0.0,0.0,0.0,0.0,0.0,0.0,0.0,0.0,0.0,0.0,0.0,0.0,0.0,0.0,0.0,0.0,0.0,0.0,0.0,0.0,0.0,0.0,0.0,0.0,0.0,0.0,0.0,0.0,0.0,0.0,0.0,0.0,0.0,0.0,0.0,0.0,0.0,-0.018,-0.1254,0.0,0.0,0.0,0.0,-0.3792,-0.4776,-0.5403,-0.5492,-0.6517,-0.6605,-0.5536,-0.5447,-0.4868,-0.371,-0.483,-0.547,-0.5631,-0.6828,-0.7458,-0.76,-0.76,-0.76,-0.76,-0.76,-0.76,-0.76,-0.7614,-0.7668,-0.7853,-0.9033,-0.9532,-0.9604,-0.9468,-0.9403,-0.9193,0.0,0.0,0.0,0.0,0.0,0.0,0.0,0.0,0.0,2.7914,2.7746,2.7765,2.8237,2.8498,2.8623,2.8623,2.8623,2.8732,2.8986,0.0,2.8513,2.8986,2.8537,2.8404,2.86,2.8879,2.8894,2.8678,2.8678,2.8678,2.8678,2.8211,2.7495,2.6683,2.6683,2.5725,2.4111,2.3255,2.2158,2.0799,1.9101,1.7595,0.0,0.0,0.0,0.0,0.0,0.0,0.0,0.0,0.0,0.0,0.0,0.0,0.0,0.0,0.0,0.0,0.0,0.0,0.0,0.0,0.0,0.0,0.0,0.0,0.0,0.0,0.0,0.0,0.0,0.0,0.0,0.0,0.0,0.0,0.0,0.0,0.0,-0.1076,-0.1522,0.0,-0.2903,-0.2637,-0.3083,-0.4643,-0.4419,-0.4599,-0.5359,-0.5802,-0.5445,-0.4283,-0.3484,-0.286,-0.2458,-0.2854,-0.3113,-0.3183,-0.5271,-0.6263,-0.6349,-0.7118,-0.7451,-0.7448,-0.7346,-0.726,-0.726,-0.726,-0.7421,-0.7637,-0.7987,-0.8127,-0.8108,-0.7942,-0.7882,-0.783,0.0,0.0,0.0,0.0,0.0,0.0,0.0,0.0,0.0,2.9345,2.9146,2.9159,2.9657,2.9908,3.0016,3.0016,3.0016,3.0016,3.0016,0.0,2.9783,2.9995,3.0138,3.0126,2.9935,3.0105,3.0036,2.9695,2.9695,2.9695,2.9695,2.9496,2.8926,2.8075,2.8075,2.7335,2.6051,2.5549,2.4343,2.2622,2.1649,2.0241,1.8614,0.0,0.0,0.0,0.0,0.0,0.0,0.0,0.0,0.0,0.0,0.0,0.0,0.0,0.0,0.0,0.0,0.0,0.0,0.0,0.0,0.0,0.0,0.0,0.0,0.0,0.0,0.0,0.0,0.0,0.0,0.0,0.0,0.0,0.0,0.0,-0.0314,-0.1076,-0.121,-0.1522,-0.2324,-0.1657,-0.1836,-0.3443,-0.3217,-0.335,-0.4154,-0.4554,-0.4241,-0.3037,-0.2236,-0.1616,-0.1176,-0.1605,-0.1807,-0.1819,-0.3913,-0.5166,-0.5635,-0.6366,-0.6956,-0.7409,-0.7207,-0.7095,-0.7095,-0.7095,-0.7216,-0.7434,-0.7333,-0.7292,-0.7282,-0.7132,-0.7095,-0.7095,0.0,0.0,0.0,0.0,0.0,0.0,0.0,0.0,0.0,2.948,3.0,3.0377,3.0377,3.0882,3.123,3.1249,3.123,3.123,3.1249,3.0683,3.0621,3.123,3.1621,3.1571,3.1063,3.1552,3.1344,3.0377,3.0377,3.0356,3.0335,2.9761,2.9451,2.9429,2.9429,2.8701,2.746,2.746,2.6275,2.4337,2.3412,2.2006,2.0293,0.0,0.0,0.0,0.0,0.0,0.0,0.0,0.0,0.0,0.0,0.0,0.0,0.0,0.0,0.0,0.0,0.0,0.0,0.0,0.0,0.0,0.0,0.0,0.0,0.0,0.0,0.0,0.0,0.0,0.0,0.0,0.0,0.0,0.018,0.0,0.0,0.0,0.0,0.0,0.0,0.0,0.0,-0.0045,-0.1121,-0.179,-0.179,-0.2903,-0.2992,-0.179,-0.1746,-0.1176,0.0,-0.1156,-0.1727,-0.1762,-0.2995,-0.4226,-0.5499,-0.5439,-0.6127,-0.7318,-0.7162,-0.7095,-0.7095,-0.7095,-0.7095,-0.7095,-0.7095,-0.7095,-0.7095,-0.7095,-0.7095,-0.7095,0.0,0.0,0.0,0.0,0.0,0.0,0.0,0.0,3.1255,3.1611,3.1792,3.1898,3.1898,3.1752,3.177,3.2127,3.1842,3.177,3.2127,3.1986,3.1969,3.2144,3.2248,3.2247,3.2092,3.223,3.2179,3.1898,3.1898,3.1718,3.1382,3.1232,3.0761,3.0059,3.0059,2.9597,2.8856,2.8856,2.7963,2.6393,2.4657,2.328,2.2183,0.0,0.0,0.0,0.0,0.0,0.0,0.0,0.0,0.0,0.0,0.0,0.0,0.0,0.0,0.0,0.0,0.0,0.0,0.0,0.0,0.0,0.0,0.0,0.0,0.0,0.0,0.0,0.0,0.0,0.0,0.0,0.0,0.1389,0.018,0.0,0.0,0.0,0.0,0.0,0.0,0.0,-0.0359,-0.1254,-0.1612,-0.179,-0.179,-0.2102,-0.1746,-0.0539,-0.0494,-0.0317,0.0,-0.0328,-0.0477,-0.0487,-0.1796,-0.2618,-0.305,-0.4773,-0.5758,-0.6122,-0.6802,-0.7095,-0.7095,-0.7095,-0.7095,-0.7095,-0.7095,-0.7095,-0.7095,-0.7095,-0.7095,-0.7095,0.0,0.0,0.0,0.0,0.0,0.0,0.0,0.0,3.2179,3.2467,3.2501,3.2501,3.2501,3.2265,3.2196,3.2484,3.2247,3.2196,3.2484,3.2501,3.2583,3.2777,3.2793,3.2793,3.2793,3.2793,3.2697,3.2501,3.2501,3.2367,3.2092,3.2092,3.1772,3.1213,3.1016,3.0583,3.0025,2.9854,2.9178,2.81,2.6585,2.5163,2.3926,2.3119,2.1981,2.0739,2.0391,1.9674,1.8792,1.7884,0.0,0.0,0.0,0.0,0.0,0.0,0.0,0.0,0.0,0.0,0.0,0.0,0.0,0.0,0.0,0.0,0.0,0.0,0.0,0.0,0.0,0.0,0.0,0.0,0.3438,0.2906,0.1657,0.0628,0.0,0.0,0.0,0.0,0.0,0.0,-0.0269,-0.0986,-0.1031,-0.1031,-0.1031,-0.1031,-0.0718,0.0,0.0,0.0,0.0,0.0,0.0,0.0,-0.0775,-0.1451,-0.2029,-0.3415,-0.4332,0.0,-0.5402,-0.562,-0.562,-0.562,-0.5933,0.0,0.0,0.0,0.0,0.0,-0.7095,-0.7095,0.0,0.0,0.0,0.0,0.0,0.0,0.0,0.0,3.2599,3.2648,3.2648,3.2648,3.2648,3.2599,3.2599,3.2648,3.2599,3.2599,3.2648,3.2679,3.2885,3.3299,3.3357,3.3368,3.3368,3.3368,3.316,3.2739,3.2709,3.2661,3.2613,3.2582,3.255,3.2484,3.2057,3.1573,3.1053,3.064,3.0112,2.9508,2.8808,2.736,2.5536,2.4661,2.389,2.3166,2.2287,2.1584,2.0844,1.9857,0.0,0.0,0.0,0.0,0.0,0.0,0.0,0.0,0.0,0.0,0.0,0.0,0.0,0.0,0.0,0.0,0.0,0.0,0.0,0.0,0.0,0.0,0.0,0.0,0.4776,0.5045,0.3972,0.1835,0.0359,0.0225,0.0225,0.0135,0.0,0.0,0.0,0.0,0.0,0.0,0.0,0.0,0.0,0.0,0.0,0.0,0.0,0.0,0.0,0.0,0.0,-0.0617,-0.1753,-0.1811,-0.2527,-0.3758,-0.378,-0.3881,-0.4014,-0.4014,-0.4641,-0.5672,-0.6694,-0.7095,-0.7095,-0.7095,-0.7095,-0.7095,0.0,0.0,0.0,0.0,0.0,0.0,0.0,0.0,3.3181,3.3522,3.355,3.355,3.355,3.3273,3.3199,3.3518,3.324,3.3196,3.3536,3.375,3.3907,3.4006,3.4258,3.4412,3.4412,3.4412,3.436,3.4266,3.4006,3.3721,3.3368,3.3174,3.2856,3.2501,3.2417,3.2298,3.2161,3.17,3.1159,3.056,3.0089,2.8732,2.6913,2.6177,2.5479,2.4839,2.4053,2.3715,2.3361,2.1892,2.1361,2.1078,1.9312,1.8914,0.0,0.0,0.0,0.0,0.0,0.0,0.0,0.0,0.0,0.0,0.0,0.0,0.0,0.0,0.0,0.0,0.0,0.0,0.0,0.629,0.5847,0.5314,0.509,0.3796,0.2547,0.1567,0.1433,0.1076,0.009,0.0,0.0,0.0,0.0,0.0,0.0,0.0,0.0,0.0,0.0,0.0,0.0,0.0,0.0,0.0,0.0,0.0,-0.0418,-0.1364,-0.2473,-0.3681,-0.465,-0.5578,-0.6425,-0.6425,-0.6558,-0.6786,-0.7007,-0.7095,-0.7095,-0.7095,-0.7095,-0.7095,0.0,0.0,0.0,0.0,0.0,0.0,0.0,0.0,3.4019,3.4213,3.4255,3.4255,3.4255,3.4074,3.4031,3.4225,3.4074,3.4031,3.4244,3.4375,3.4445,3.4445,3.4603,3.4694,3.4694,3.4694,3.4694,3.4694,3.4529,3.4349,3.4144,3.4006,3.3739,3.3352,3.3146,3.2973,3.2809,3.2349,3.1969,3.1667,3.1232,3.0294,2.9054,2.8175,2.7254,2.6342,2.5996,2.5425,2.4724,2.3907,2.342,2.2882,2.1525,2.0955,2.0413,0.0,0.0,0.0,0.0,0.0,0.0,0.0,0.0,0.0,0.0,0.0,0.0,0.0,0.0,0.7346,0.0,0.0,0.6428,0.7007,0.6605,0.6248,0.6248,0.5711,0.4683,0.2903,0.2147,0.1567,0.0941,0.0359,0.0,0.0,0.0,0.0,0.0,0.0,0.0,0.0,0.0,0.0,0.0,0.0,0.0,0.0,0.0,0.0,0.0,-0.0631,-0.121,-0.1835,-0.2416,-0.304,-0.3662,-0.4863,-0.5711,-0.6293,-0.6874,-0.7095,-0.7095,-0.7095,-0.7095,-0.7095,0.0,0.0,0.0,0.0,0.0,0.0,0.0,0.0,0.0,3.4694,3.4694,3.4694,3.4694,3.4694,3.4694,3.4694,3.4694,3.4694,3.4694,3.4744,3.4793,3.4793,3.4841,3.486,3.486,3.486,3.486,3.486,3.4793,3.4793,3.4793,3.4714,3.4551,3.4269,3.3882,3.3588,3.3354,3.2838,3.2632,3.2599,3.2127,3.1592,3.0992,3.0173,2.8993,2.7783,2.7644,2.6824,2.5782,2.5604,2.5092,2.4381,2.3706,2.2947,2.2099,2.0665,1.9651,0.0,0.0,0.0,0.0,0.0,0.0,0.0,0.0,1.2184,1.1246,1.1246,1.0178,0.9235,0.9235,0.8277,0.7445,0.7445,0.7272,0.7095,0.7095,0.7095,0.6378,0.4505,0.3217,0.2415,0.2191,0.1254,0.0583,0.0359,0.0359,0.0269,0.0,0.0,0.0,0.0,0.0,0.0,0.0,0.0,0.0,0.0,0.0,0.0,0.0,0.0,-0.0135,-0.0359,-0.0583,-0.0718,-0.0852,-0.2814,-0.433,-0.5492,-0.6425,-0.6918,-0.7095,-0.7095,-0.7095,-0.7095,0.0,0.0,0.0,0.0,0.0,0.0,0.0,0.0,0.0,3.4694,3.4694,3.4694,0.0,0.0,3.4694,3.4694,3.4694,3.4694,3.4694,3.4926,3.5062,3.5062,3.5289,3.5417,3.5417,3.5417,3.5417,3.5417,3.5182,3.5062,3.5062,3.4803,3.4674,3.4632,3.4281,3.4128,3.4056,3.3411,3.3105,3.3075,3.2616,3.2144,3.1699,3.1571,3.0549,2.9087,2.842,2.7746,2.7066,2.6428,2.5793,2.5259,2.5161,2.4639,2.3842,2.2912,2.2094,2.1186,1.9724,1.828,1.7237,1.7576,1.6927,1.6293,0.0,1.5107,1.3597,1.3597,1.1915,1.0394,1.0394,0.9492,0.8715,0.8715,0.7797,0.7095,0.7095,0.7095,0.7007,0.6738,0.5714,0.4554,0.3482,0.326,0.2769,0.17,0.1612,0.1121,0.0045,0.0,0.0,0.0,0.0,0.0,0.0,0.0,0.0,0.0,0.0,0.0,0.0,0.0,-0.0584,-0.1657,-0.2726,-0.3213,-0.3213,-0.3481,-0.433,-0.5403,-0.5536,-0.6204,-0.7095,-0.7095,-0.7095,-0.7095,0.0,0.0,0.0,0.0,0.0,0.0,0.0,0.0,0.0,0.0,0.0,0.0,0.0,3.5209,3.5249,3.5277,3.525,3.5229,3.5277,3.5355,3.5399,3.5455,3.5553,3.5621,3.5621,3.5621,3.5605,3.5556,3.5451,3.5378,3.532,3.5215,3.5088,3.4926,3.4624,3.4379,3.4164,3.3733,3.355,3.3508,3.3075,3.2793,3.2582,3.2315,3.1627,3.0687,2.9778,2.8848,0.0,0.0,2.6894,2.6041,2.6041,2.5536,2.4781,2.3979,2.3187,2.2194,2.0608,1.9881,1.9494,1.9173,1.876,1.8305,1.7966,1.6879,1.5906,1.5906,1.4142,1.259,1.259,1.1112,0.9879,0.0,0.9488,0.8921,0.8233,0.8149,0.7885,0.7183,0.6694,0.5935,0.4776,0.4016,0.3392,0.2903,0.2858,0.2637,0.2102,0.1433,0.1031,0.1031,0.0359,0.0,0.0,0.0,0.0,0.0,0.0,0.0,0.0,0.0,-0.0269,-0.0762,-0.1299,-0.1924,-0.2547,-0.2547,-0.326,-0.4374,-0.4374,-0.4639,-0.5218,-0.6602,-0.7095,-0.7095,0.0,0.0,0.0,0.0,0.0,0.0,0.0,0.0,0.0,0.0,0.0,0.0,0.0,3.5605,3.5642,3.57,3.5655,3.5642,3.57,3.5655,3.5646,3.5703,3.5707,3.5707,3.5707,3.5707,3.5671,3.5626,3.5606,3.5577,3.5534,3.5501,3.5361,3.5088,3.4813,3.4518,3.4176,3.3897,3.3807,3.3762,3.3494,3.3302,3.3169,3.2809,3.2315,3.1699,3.0993,2.9967,0.0,2.9012,2.8128,2.7056,2.7056,2.6428,2.5591,2.5063,2.4313,2.3357,2.1992,2.1649,2.1531,2.0796,2.0151,1.9568,1.9203,1.8326,1.762,1.7721,1.6234,1.4823,1.4532,1.2844,1.1413,1.1123,1.0826,1.0308,0.9492,0.9104,0.8584,0.7709,0.7316,0.677,0.5893,0.507,0.4417,0.4105,0.4105,0.3972,0.3614,0.2769,0.2147,0.179,0.0941,0.0314,0.0,0.0,0.0,0.0,0.0,0.0,0.0,0.0,0.0,0.0,0.0,-0.0485,-0.132,-0.132,-0.2022,-0.3115,-0.3115,-0.3291,-0.3816,-0.5526,-0.6361,-0.6691,0.0,0.0,0.0,0.0,0.0,0.0,0.0,0.0,0.0,0.0,0.0,0.0,0.0,3.57,3.5703,3.5707,3.5703,3.5703,3.5707,3.5703,3.5703,3.5707,3.5707,3.5707,3.5707,3.5707,3.5703,3.57,3.5635,3.5605,3.56,3.5522,3.5361,3.5088,3.4813,3.4518,3.4176,3.3897,3.3807,3.3807,3.3793,3.355,3.3199,3.3184,3.2598,3.1807,3.1771,0.0,3.0251,3.0251,2.9451,2.8439,2.8439,2.754,2.6457,2.6457,2.5906,2.5175,2.4394,2.3598,2.2848,2.2516,2.1163,2.0104,2.0928,1.9638,1.841,1.8836,1.8029,1.6887,1.5861,1.4705,1.3526,1.245,1.1338,1.0611,1.0567,0.9579,0.889,0.8846,0.7797,0.7045,0.0,0.6927,0.6514,0.5447,0.5359,0.4821,0.3659,0.357,0.2992,0.1835,0.1745,0.1165,0.0,0.0,0.0,0.0,0.0,0.0,0.0,0.0,0.0,0.0,0.0,0.0,-0.0042,-0.0042,-0.0758,-0.1848,-0.1848,-0.2561,-0.3612,-0.3695,-0.4441,-0.5609,0.0,0.0,0.0,0.0,0.0,0.0,0.0,0.0,0.0,0.0,0.0,0.0,0.0,0.0,0.0,0.0,3.5859,3.5853,3.5901,3.5857,3.5853,3.5902,3.5902,3.5902,3.5902,3.5902,3.5871,3.5836,3.5814,3.5721,3.5605,3.5577,3.5489,3.5354,3.4908,3.4643,3.4497,3.4018,3.3807,3.3807,3.3807,3.3721,3.3592,3.3592,3.3042,3.2247,0.0,0.0,3.0293,3.0293,2.9761,2.9104,2.9104,2.8795,2.8242,2.7364,2.6291,2.5231,2.4509,2.4092,2.359,2.2392,2.1864,2.1397,2.0533,2.0282,2.009,1.9659,1.8973,1.831,1.794,1.6373,1.5011,1.4601,1.3656,1.2644,1.1858,1.1386,1.0869,1.0139,0.8944,0.0,0.0,0.0,0.0,0.6299,0.6251,0.6078,0.569,0.4879,0.4282,0.3856,0.3085,0.2486,0.2059,0.2059,0.1709,0.1061,0.034,0.0,0.0,0.0,0.0,0.0,0.0,0.0,0.0,0.0,-0.0252,-0.0588,-0.0588,-0.0841,-0.1302,-0.2096,-0.2665,-0.3249,0.0,0.0,0.0,0.0,0.0,0.0,0.0,0.0,0.0,0.0,0.0,0.0,0.0,0.0,0.0,0.0,0.0,3.5918,3.5953,3.5878,3.5857,3.5882,3.5882,3.5882,3.5882,3.5949,3.5937,3.5895,3.5897,3.5814,3.5639,3.5611,3.547,3.5198,3.4841,3.458,3.4341,3.3967,3.3807,3.3807,3.3807,3.3807,3.3775,3.3634,3.3136,0.0,0.0,3.1551,3.0617,3.0617,3.023,2.9717,2.9717,2.9563,2.9187,2.8106,2.7187,2.6306,2.5356,2.5091,2.4711,2.3135,2.2714,2.2333,2.1119,2.1012,2.1001,2.0293,1.9952,1.958,1.8897,1.7726,1.6764,1.6355,1.5387,1.4384,1.3636,1.2747,1.1891,1.1128,0.9877,0.9017,0.0,0.0,0.0,0.6743,0.6702,0.6702,0.6702,0.5945,0.536,0.4902,0.4145,0.3517,0.3098,0.3098,0.2794,0.2111,0.1439,0.0902,0.0575,0.0575,0.037,0.0,0.0,0.0,0.0,0.0,0.0,0.0,0.0,0.0,-0.0082,-0.0861,-0.1147,-0.1476,0.0,0.0,0.0,0.0,0.0,0.0,0.0,0.0,0.0,0.0,0.0,0.0,0.0,0.0,0.0,0.0,0.0,0.0,3.5905,3.5797,3.5717,3.5713,3.5713,3.571,3.5707,3.5836,3.5901,3.5901,3.5895,3.5841,3.571,3.5644,3.5295,3.4754,3.4724,3.4386,3.3842,3.3829,3.3802,3.3807,3.3807,3.3807,3.3748,3.3394,3.2952,0.0,3.2004,3.1584,3.1269,3.121,3.0818,3.0351,3.0351,2.9935,2.9339,2.8756,2.8559,2.8255,2.6901,2.6549,2.6188,2.4724,2.3719,2.3017,2.2619,2.191,2.1207,2.0744,2.0994,2.072,0.0,0.0,1.8709,1.7577,1.6462,1.5756,1.5756,1.3652,1.2087,0.0,0.0,0.0,0.0,0.0,0.0,0.6949,0.0,0.6802,0.6761,0.6761,0.6217,0.5009,0.4968,0.4423,0.3255,0.3213,0.3179,0.3189,0.3118,0.2618,0.1685,0.1685,0.1137,0.0157,0.0157,0.0118,0.0079,0.0079,0.0039,0.0,0.0,0.0,0.0,0.0,0.0,-0.0315,0.0,0.0,0.0,0.0,0.0,0.0,0.0,0.0,0.0,0.0,0.0,0.0,0.0,0.0,0.0,0.0,0.0,0.0,3.5974,3.5931,3.59,3.5845,3.5843,3.5802,3.5707,3.5836,3.5901,3.5901,3.5956,3.5925,3.5843,3.573,3.5573,3.5361,3.5106,3.4803,3.4442,3.4195,3.3986,3.3807,3.3807,3.3807,3.3793,3.3694,3.339,3.2968,3.2501,3.2265,3.2074,3.1408,3.1112,3.0975,3.0975,3.0576,3.0038,2.9908,2.9518,2.8888,2.7525,2.7187,2.6854,2.5453,2.4965,2.4441,2.3158,2.2929,2.2718,2.1821,2.2017,2.206,2.1213,2.0506,0.0,1.874,1.7374,0.0,1.6437,1.5568,0.0,1.4005,0.0,1.165,1.0839,0.9897,0.0,0.0,0.8656,0.8307,0.7575,0.7536,0.7031,0.5975,0.5935,0.5814,0.5492,0.4693,0.4281,0.4295,0.3485,0.2968,0.2735,0.2735,0.2579,0.2306,0.2306,0.1878,0.1176,0.1176,0.0706,0.0,0.0,0.0,0.0,0.0,0.0,-0.0079,0.0,0.0,0.0,0.0,0.0,0.0,0.0,0.0,0.0,0.0,0.0,0.0,0.0,0.0,0.0,0.0,0.0,0.0,0.0,3.5837,3.5821,3.5809,3.5807,3.5755,3.5659,3.5821,3.5873,3.5807,3.5949,3.5948,3.5807,3.5746,3.5596,3.5373,3.5173,3.487,3.4475,3.4288,3.4043,0.0,0.0,3.3807,3.3762,3.339,3.309,3.2825,3.2349,3.2179,3.2127,3.1621,3.1351,3.119,3.119,3.0975,3.0638,3.0393,3.0059,2.9524,2.8227,2.7877,2.7555,2.6228,2.5864,2.5577,2.4343,2.3968,2.3626,2.2623,2.254,2.249,2.2096,2.1497,2.0859,0.0,0.0,0.0,1.7196,1.638,1.5622,0.0,1.4291,0.0,1.2368,1.1658,1.1044,0.0,0.9787,0.9074,0.8504,0.8466,0.8012,0.6984,0.6945,0.6756,0.63,0.5709,0.5395,0.5395,0.4805,0.4256,0.3787,0.3787,0.3552,0.3085,0.0,0.2773,0.2268,0.2268,0.1644,0.0706,0.0706,0.0432,0.0,0.0,0.0,0.0,0.0,0.0,0.0,0.0,0.0,0.0,0.0,0.0,0.0,0.0,0.0,0.0,0.0,0.0,0.0,0.0,0.0,0.0,0.0,0.0,3.5635,3.568,3.5697,3.5658,3.559,3.5773,3.5804,3.5697,3.5875,3.5851,3.5647,3.5636,3.5422,3.5058,3.5051,3.4726,3.42,3.42,3.4043,3.3807,3.3807,3.3807,3.3721,0.0,0.0,3.2534,3.2127,3.1879,3.1734,3.1861,3.1584,3.119,3.119,3.119,3.1112,3.0559,3.0414,3.0166,2.8966,2.863,2.8304,2.6967,2.6642,2.6443,2.5701,2.5035,2.4337,2.3471,2.3065,2.2716,2.2253,2.2115,2.195,2.1524,0.0,1.8848,1.8092,1.6786,1.5881,1.5771,1.5524,1.4985,1.3991,1.389,1.3528,1.2556,1.087,0.9782,0.9523,0.9485,0.9031,0.805,0.7859,0.7365,0.649,0.6377,0.63,0.63,0.63,0.5825,0.4921,0.4921,0.4414,0.3513,0.3513,0.0,0.3318,0.3318,0.2696,0.1802,0.1646,0.102,0.0196,0.0039,0.0,0.0,0.0,0.0,0.0,0.0,0.0,0.0,0.0,0.0,0.0,0.0,3.424,3.4812,0.0,0.0,0.0,0.0,0.0,0.0,0.0,0.0,0.0,3.5616,3.5616,3.5585,3.5519,3.5603,3.5631,3.5616,3.5706,3.5622,3.5379,3.5317,3.5126,3.4848,3.4785,3.4561,3.42,3.42,3.4043,3.3807,3.3807,3.3807,3.3775,0.0,0.0,0.0,3.2999,3.2248,3.1411,3.2144,3.1842,3.119,3.119,3.119,3.1171,3.1075,3.1035,3.0777,2.9563,2.9248,2.895,2.772,2.7408,2.7229,2.6469,2.6203,2.5868,2.4932,2.4697,2.4316,2.3271,2.3077,2.2797,2.1951,2.0658,1.9706,1.9532,1.8409,1.7294,0.0,1.6394,1.5965,1.5021,1.495,0.0,0.0,0.0,1.2228,1.064,1.0527,1.0078,0.9069,0.8237,0.7706,0.7557,0.6718,0.63,0.63,0.63,0.6222,0.6025,0.6025,0.5906,0.5747,0.5747,0.0,0.4414,0.4414,0.3787,0.2774,0.1919,0.1489,0.1215,0.0314,0.0,0.0,0.0,0.0,0.0,0.0,0.0,0.0,0.0,3.2905,3.3199,3.3199,3.3795,3.4292,3.4473,3.4633,3.4808,0.0,0.0,0.0,0.0,0.0,0.0,0.0,0.0,0.0,3.5132,3.5204,3.5216,3.5171,0.0,3.5201,3.5038,3.5004,3.4898,3.4746,3.4716,3.4518,3.42,3.42,3.4043,3.3807,3.3807,3.3662,0.0,0.0,0.0,0.0,3.2842,3.2265,3.1565,3.2004,3.1714,3.119,3.119,3.119,3.119,3.119,3.119,3.1015,3.0123,2.9651,2.918,2.8295,2.7835,2.7524,2.7152,2.6774,2.6369,2.5911,2.5212,2.4605,2.4287,2.3658,2.2999,2.2412,2.156,2.0599,1.9725,1.9044,1.8351,1.7423,1.732,1.6966,1.6,1.5939,1.5544,1.4557,0.0,1.3614,1.1687,1.1087,1.0596,1.0115,0.9102,0.858,0.858,0.7595,0.7099,0.7061,0.6567,0.6567,0.7099,0.7099,0.7099,0.7099,0.7099,0.0,0.555,0.555,0.4882,0.3904,0.34,0.2854,0.2308,0.18,0.1604,0.1526,0.0,0.0,0.0,0.0,0.0,0.0,0.0,3.2616,3.2903,3.2903,3.327,3.3611,3.3805,3.4235,3.4497,0.0,0.0,0.0,0.0,0.0,0.0,0.0,0.0,0.0,0.0,0.0,0.0,3.4636,3.4683,0.0,0.0,0.0,0.0,0.0,3.4232,3.4091,3.3843,3.3843,3.3723,0.0,0.0,3.3328,0.0,0.0,0.0,0.0,0.0,3.2057,3.1678,3.1771,3.1528,3.119,3.119,3.119,3.119,3.119,3.119,3.1055,3.0456,2.9935,2.9451,2.885,2.8222,2.7785,2.7785,2.724,2.6695,2.6537,2.5453,2.4627,2.4886,2.3927,2.3021,2.2817,2.2277,2.1428,2.0042,1.9694,1.9276,1.8371,1.8269,0.0,1.6991,1.6888,0.0,0.0,0.0,0.0,1.3018,1.1977,1.1415,1.1415,1.0265,0.9631,0.9631,0.8613,0.8122,0.8122,0.7326,0.7365,0.8122,0.8122,0.8122,0.8122,0.8122,0.0,0.0,0.6602,0.6015,0.5002,0.4805,0.4178,0.3396,0.3202,0.3085,0.2968,0.0,0.0,0.0,0.0,0.0,0.0,0.0,3.1677,3.1933,3.1933,3.2332,3.2632,3.2663,3.3382,3.3839,0.0,0.0,0.0,0.0,0.0,0.0,0.0,0.0,0.0,0.0,0.0,0.0,3.4072,3.4076,0.0,0.0,0.0,0.0,0.0,0.0,3.2677,3.2663,3.2663,0.0,0.0,0.0,0.0,0.0,0.0,0.0,0.0,0.0,3.1603,3.131,3.1678,3.1528,3.119,3.119,3.119,3.119,3.119,3.119,3.1055,3.0456,3.0251,3.0081,2.9473,2.8873,2.8415,2.8415,2.7944,2.7306,2.6642,2.5864,2.5105,2.4503,2.3688,2.309,2.308,2.2408,2.1846,2.169,2.0974,2.0171,1.9266,0.0,0.0,1.7964,1.7872,0.0,0.0,0.0,0.0,1.495,1.3983,1.3448,1.3448,1.1631,1.0677,1.0677,0.9669,0.915,0.9145,0.9069,0.9069,0.915,0.915,0.915,0.915,0.915,0.0,0.0,0.7668,0.7057,0.6064,0.5079,0.4647,0.4453,0.3474,0.3085,0.3085,0.0,0.0,0.0,0.0,0.0,0.0,3.119,3.1528,3.1807,3.1807,3.2196,3.2501,3.2501,3.2809,3.2993,3.2939,0.0,0.0,0.0,0.0,0.0,0.0,0.0,0.0,0.0,0.0,3.3284,3.3107,3.3107,0.0,0.0,0.0,0.0,0.0,0.0,3.2501,3.2501,3.2501,0.0,0.0,0.0,0.0,0.0,0.0,0.0,0.0,0.0,0.0,3.123,3.1372,3.1332,3.119,3.119,3.119,3.119,3.119,3.119,3.1151,3.0898,3.0597,3.0251,3.0,2.9203,2.8487,2.8487,2.8042,2.7524,2.7229,2.6575,2.5987,2.5673,2.4639,2.3826,2.3826,2.3143,2.2445,2.197,2.1596,2.1069,2.0171,2.0074,0.0,0.0,0.0,1.9189,0.0,0.0,0.0,1.6906,1.5446,1.4593,1.4593,1.3252,1.2558,1.2558,1.1007,1.019,1.019,0.9593,0.9631,1.019,1.019,1.019,1.019,1.019,0.0,0.0,0.8694,0.8122,0.7173,0.6738,0.6202,0.5628,0.5196,0.504,0.4924,0.0,0.0,0.0,0.0,0.0,3.119,3.119,3.1449,3.1623,3.1623,3.1914,3.2127,3.2127,3.1969,3.1845,3.1845,3.2109,0.0,0.0,0.0,0.0,0.0,0.0,0.0,0.0,0.0,3.2434,3.2281,3.2109,3.1969,0.0,0.0,3.1576,3.1576,0.0,0.0,0.0,0.0,0.0,0.0,0.0,0.0,0.0,0.0,0.0,0.0,0.0,0.0,0.0,0.0,0.0,3.119,3.119,3.119,3.119,3.119,3.119,3.119,3.119,3.0878,3.0576,3.0576,2.9783,2.8989,2.8803,2.8295,2.781,2.765,2.7008,2.651,2.651,2.5481,2.4624,2.4624,2.3972,2.3263,2.2695,2.2402,2.1939,2.1101,0.0,2.0878,0.0,2.059,0.0,0.0,0.0,0.0,1.8008,1.6759,1.5904,1.5623,1.4665,1.4135,1.4135,1.2478,1.1668,1.1638,1.0677,1.0714,1.1638,1.1385,1.1385,1.1638,1.1347,0.0,0.0,0.9744,0.914,0.8237,0.8237,0.7821,0.7173,0.7173,0.7173,0.7096,0.0,0.0,0.0,0.0,0.0,0.0,3.119,3.121,3.121,3.121,3.121,3.121,3.121,3.0679,3.0314,3.0314,3.123,0.0,0.0,0.0,0.0,0.0,0.0,0.0,0.0,0.0,3.2264,3.1807,3.1221,3.0711,3.0314,2.9717,2.9429,2.9429,0.0,0.0,0.0,0.0,0.0,0.0,0.0,0.0,0.0,0.0,0.0,0.0,0.0,0.0,0.0,0.0,0.0,0.0,0.0,3.119,3.119,3.119,3.119,3.119,3.119,3.119,3.119,3.119,3.072,3.0123,2.9518,2.8919,2.8319,2.771,2.7008,2.651,2.651,2.5892,2.5398,2.5398,2.4766,2.4292,2.4292,2.3603,2.2793,0.0,0.0,2.1553,2.0687,2.059,0.0,0.0,0.0,0.0,1.8042,1.7974,1.7545,1.6593,1.5685,1.5163,1.5163,1.4171,1.3673,1.3673,1.2732,1.2769,1.3637,1.2696,1.2806,0.0,0.0,0.0,0.0,1.0783,1.019,0.9296,0.9296,0.9263,0.9258,0.9258,0.9258,0.9258,0.0,0.0,0.0,0.0,0.0,0.0,0.0,3.058,3.074,3.1151,3.119,3.119,3.119,3.0658,3.0293,3.0293,3.0201,0.0,0.0,0.0,0.0,0.0,0.0,0.0,0.0,0.0,3.0319,3.0147,2.9977,2.98,2.9673,2.9496,2.9406,2.9406,2.9406,2.9496,0.0,0.0,0.0,0.0,0.0,0.0,0.0,0.0,0.0,0.0,0.0,0.0,0.0,0.0,0.0,0.0,0.0,0.0,0.0,3.119,3.119,3.119,3.119,3.119,3.119,3.119,3.0757,3.0251,3.0059,2.954,2.8927,2.8343,2.8027,2.774,2.7316,2.6654,2.6149,2.6149,2.5536,2.4879,0.0,0.0,0.0,2.2811,2.272,2.2598,0.0,0.0,0.0,0.0,0.0,0.0,1.8944,1.8877,1.8476,1.7569,1.6645,1.614,1.614,1.5199,1.4736,1.4736,1.4414,1.445,1.47,1.4414,1.445,0.0,0.0,0.0,0.0,1.2094,1.1242,1.034,1.034,0.9895,0.9296,0.9296,0.9296,0.9296,0.0,0.0,0.0,0.0,0.0,0.0,0.0,3.0293,3.0335,3.0497,3.0518,3.0518,3.0518,2.9978,2.9629,2.9629,2.9065,0.0,0.0,0.0,0.0,0.0,0.0,0.0,0.0,2.8986,2.8986,2.8986,2.8771,2.8787,2.9058,2.8834,2.8717,2.8717,2.8717,2.8857,0.0,0.0,0.0,0.0,0.0,0.0,3.119,0.0,0.0,0.0,0.0,0.0,0.0,0.0,0.0,0.0,0.0,0.0,0.0,0.0,3.119,3.119,3.119,3.119,3.119,3.119,3.0918,3.0597,3.0351,3.0016,2.9563,2.895,2.8677,2.8391,2.8018,2.7393,2.6904,2.6904,2.631,2.5646,0.0,0.0,0.0,2.3662,0.0,0.0,0.0,0.0,0.0,0.0,0.0,0.0,1.9857,1.9781,1.9529,1.9011,1.7789,1.7301,1.7624,1.6349,1.5728,1.572,1.5376,1.5376,1.572,1.5376,1.5411,0.0,0.0,0.0,0.0,1.3629,1.3033,1.2428,1.2037,1.152,1.0932,1.0571,1.0421,1.0421,0.0,0.0,0.0,0.0,0.0,0.0,0.0,3.0208,3.0059,2.954,2.9496,2.9518,2.9473,2.8919,2.8559,2.8511,0.0,0.0,0.0,0.0,0.0,0.0,0.0,0.0,0.0,2.8128,2.8104,2.8104,2.7515,2.7615,2.8255,2.772,2.7458,2.7524,2.7524,2.7894,0.0,0.0,0.0,0.0,3.1075,3.1075,0.0,0.0,0.0,0.0,0.0,0.0,0.0,0.0,0.0,0.0,0.0,0.0,0.0,0.0,0.0,0.0,0.0,3.119,3.119,3.119,3.119,3.1055,3.0497,3.0356,0.0,2.9585,2.9035,2.8614,2.8559,2.8067,2.766,2.766,2.706,2.6563,0.0,2.5864,0.0,0.0,2.3708,0.0,2.3275,0.0,0.0,0.0,0.0,0.0,2.0751,2.0687,2.0687,2.0687,1.9044,1.8553,1.9365,1.7716,1.6869,1.686,1.5992,1.5992,1.6766,1.5895,1.593,0.0,0.0,0.0,0.0,1.5234,1.5199,1.5128,1.4171,1.3818,1.3709,1.2842,1.2519,1.2519,0.0,0.0,0.0,0.0,0.0,0.0,0.0,0.0,0.0,0.0,3.0497,3.0601,3.0145,2.9563,2.8996,0.0,0.0,0.0,0.0,0.0,0.0,0.0,0.0,0.0,2.6935,2.6383,2.6076,2.6076,2.5943,2.5957,2.6133,2.5986,2.6215,2.6747,2.6747,2.7403,0.0,0.0,0.0,0.0,2.9827,2.9827,0.0,0.0,0.0,0.0,3.0518,3.0818,0.0,0.0,0.0,0.0,0.0,0.0,0.0,0.0,3.119,3.119,3.119,0.0,3.119,3.119,3.119,3.1171,0.0,3.0995,3.0818,3.0208,2.9995,2.9739,2.9271,2.8709,2.8286,2.8286,2.7745,2.7137,2.659,0.0,0.0,2.5147,2.4979,2.4866,0.0,0.0,0.0,0.0,0.0,2.2476,2.1659,2.1585,2.1585,2.1585,2.0558,2.0074,2.0301,1.9857,1.9651,1.9651,1.9444,1.9081,1.8657,1.8445,1.8085,0.0,0.0,0.0,1.621,1.5517,1.5199,1.5163,1.495,1.4843,1.4807,1.4593,1.4522,1.4522,0.0,0.0,0.0,0.0,0.0,0.0,0.0,0.0,0.0,0.0,0.0,0.0,0.0,0.0,0.0,0.0,0.0,0.0,0.0,0.0,0.0,0.0,0.0,2.6176,2.5508,2.5091,2.4908,2.4908,2.4908,2.5063,2.5398,2.5398,2.5618,2.6014,2.6336,2.7067,0.0,0.0,0.0,0.0,2.9406,0.0,0.0,0.0,0.0,0.0,3.0293,3.0679,0.0,3.119,3.119,3.119,0.0,0.0,0.0,0.0,3.119,3.119,3.119,3.119,3.119,3.119,3.119,3.119,3.119,3.119,3.1112,3.0777,3.0497,3.0208,2.987,2.9316,2.8919,2.8919,2.8638,0.0,0.0,0.0,2.5906,2.5906,2.5618,2.5398,0.0,0.0,0.0,0.0,0.0,2.3829,2.3027,2.2997,2.2816,2.2445,2.199,2.1585,2.1195,2.0814,2.059,2.059,2.059,2.0365,1.989,1.989,1.9628,0.0,0.0,0.0,1.8372,1.7468,1.7092,1.7023,1.6626,1.6453,1.6444,1.6373,1.6096,1.5738,0.0,0.0,0.0,0.0,0.0,0.0,0.0,0.0,0.0,0.0,0.0,0.0,0.0,0.0,0.0,0.0,0.0,0.0,0.0,0.0,0.0,0.0,0.0,2.5673,2.4321,2.4176,2.4118,2.4118,2.4118,2.4452,2.5063,2.5063,2.5119,2.5259,2.6122,2.6768,0.0,0.0,0.0,0.0,2.9134,0.0,0.0,0.0,0.0,0.0,0.0,0.0,0.0,3.119,3.119,3.119,3.119,0.0,0.0,0.0,0.0,0.0,3.119,3.1232,3.1271,3.121,3.119,3.119,3.119,3.119,3.119,3.119,3.0797,3.0435,3.0435,2.9935,2.954,2.954,0.0,0.0,2.8724,2.7575,2.6811,2.6811,2.6188,0.0,0.0,0.0,0.0,0.0,0.0,2.5119,2.4509,2.4452,2.4176,2.3471,2.3442,2.313,2.2439,2.1479,2.0974,2.0974,2.0974,2.091,2.0814,2.0814,2.0719,2.059,0.0,0.0,2.0526,1.9814,1.9497,1.942,1.8619,1.8298,1.8288,1.8175,1.7673,1.7058,0.0,0.0,0.0,0.0,0.0,0.0,0.0,0.0,0.0,0.0,0.0,0.0,0.0,0.0,0.0,0.0,0.0,0.0,0.0,0.0,0.0,2.6537,2.5906,2.5175,2.4321,2.3619,2.3275,2.3275,2.3275,2.3335,2.3442,2.3442,2.3826,2.4538,2.5892,2.6549,2.6692,2.7418,2.7785,2.787,2.787,0.0,0.0,0.0,0.0,0.0,0.0,0.0,0.0,3.119,3.119,3.119,3.119,0.0,0.0,0.0,0.0,0.0,3.119,3.1449,3.164,3.1291,3.119,3.119,3.119,3.119,3.119,3.119,3.1131,3.1055,3.1055,3.0559,3.0166,3.0166,0.0,2.9361,0.0,0.0,2.8183,2.8183,0.0,0.0,0.0,0.0,0.0,0.0,0.0,2.5342,2.5231,2.5231,2.5175,2.5063,2.5063,2.4993,2.4867,2.3446,2.272,2.272,2.272,2.2372,2.169,2.169,2.1302,2.059,0.0,2.059,2.059,2.0462,2.0398,2.0398,2.0246,2.0182,2.0171,2.016,2.0063,1.9966,0.0,0.0,0.0,0.0,0.0,0.0,0.0,0.0,0.0,0.0,0.0,0.0,0.0,0.0,0.0,0.0,0.0,0.0,0.0,0.0,0.0,2.5933,2.5203,2.4652,2.4321,2.3514,2.3108,2.3108,2.3108,2.3108,2.3108,2.3108,2.3305,2.3708,2.5217,2.5906,2.5987,2.7111,2.76,2.76,0.0,0.0,0.0,0.0,0.0,0.0,0.0,0.0,0.0,0.0,3.119,3.119,3.119,0.0,0.0,0.0,0.0,0.0,3.1468,3.166,3.1825,3.1896,3.1914,3.1914,3.1914,3.1914,3.1841,3.1582,3.1509,3.1468,3.1249,3.0975,3.0797,3.0797,0.0,2.9908,2.9908,2.9361,2.8989,0.0,0.0,0.0,0.0,0.0,0.0,0.0,0.0,0.0,2.6014,2.5987,2.581,2.5398,2.5398,2.5398,2.5398,2.4696,2.4352,2.4323,2.3943,2.3771,2.379,2.3374,2.3199,2.3179,0.0,2.2597,2.2537,2.1655,2.1549,2.1856,2.1467,2.1549,2.1856,2.1436,2.1302,2.129,0.0,0.0,0.0,0.0,0.0,0.0,0.0,0.0,0.0,0.0,0.0,0.0,0.0,0.0,0.0,0.0,0.0,0.0,0.0,0.0,2.6416,2.5673,2.4951,2.4394,2.4031,2.3424,2.3108,2.3108,2.3108,2.3108,2.3108,2.3108,2.3108,2.3155,2.4525,2.5231,2.5481,2.6785,2.7433,2.76,0.0,0.0,0.0,0.0,0.0,0.0,0.0,0.0,0.0,0.0,0.0,0.0,0.0,0.0,0.0,3.1332,3.1428,3.1564,3.1879,3.2039,3.2213,3.2583,3.2583,3.2501,3.2501,3.2501,3.2401,3.2039,3.1951,3.1877,3.1649,3.1543,0.0,3.1464,3.0918,3.0497,3.0497,2.9995,2.9607,2.9607,0.0,0.0,0.0,0.0,0.0,0.0,0.0,0.0,2.7004,2.7093,2.6846,2.616,2.6265,2.6265,2.6133,2.6133,2.5863,2.5398,2.4823,2.4851,2.537,2.4823,2.4879,2.537,2.4794,2.4567,2.4452,2.3212,2.3037,2.3517,2.296,2.3067,2.3475,2.293,2.2731,2.2688,0.0,0.0,0.0,0.0,0.0,0.0,0.0,0.0,0.0,0.0,0.0,0.0,0.0,0.0,0.0,0.0,0.0,0.0,0.0,0.0,2.7188,2.6443,2.5701,2.4639,2.3215,2.3138,2.3108,2.3108,2.3108,2.3108,2.3108,2.3108,2.3108,2.3138,2.4002,2.4766,2.5453,2.6229,2.6982,2.76,2.76,0.0,0.0,0.0,0.0,0.0,0.0,0.0,0.0,0.0,0.0,0.0,0.0,0.0,3.1752,3.1752,3.2074,3.2417,3.2451,3.2761,3.3105,3.3136,3.2809,3.2501,3.2501,3.2501,3.2484,3.2451,3.2451,3.2545,3.2814,3.251,3.2226,3.2226,3.161,3.1151,3.1151,0.0,3.023,0.0,0.0,0.0,0.0,0.0,0.0,0.0,0.0,0.0,2.8391,2.888,2.8911,2.8304,2.8818,2.8841,2.828,2.828,2.7318,2.5398,2.5342,2.5342,2.5398,2.5342,2.5342,2.5398,2.5342,2.5315,2.5315,2.5189,2.5189,2.5217,2.5161,2.5189,2.5217,2.5161,2.5161,2.5161,0.0,0.0,0.0,0.0,0.0,0.0,0.0,0.0,0.0,0.0,0.0,0.0,0.0,0.0,0.0,0.0,0.0,0.0,0.0,2.6733,2.6108,2.5837,2.4639,2.3708,2.3108,2.3108,2.3108,2.3108,2.3108,2.3108,2.3108,2.3108,2.3108,2.3168,2.441,2.5147,2.5481,2.668,2.7357,2.76,2.76,2.76,0.0,0.0,0.0,0.0,0.0,0.0,0.0,0.0,3.119,3.1249,3.1542,3.1695,3.1861,3.2144,3.2367,3.2567,3.2858,3.306,3.3258,3.3508,3.3815,3.3915,3.3408,3.3299,3.3385,3.3627,3.3277,3.3043,3.3371,0.0,3.2168,3.2706,3.1903,3.119,3.119,3.1015,0.0,0.0,0.0,0.0,0.0,0.0,0.0,0.0,0.0,0.0,2.9065,2.9271,2.9293,2.9081,2.9271,2.9293,2.9042,2.9042,2.8662,2.7881,2.703,2.6879,2.7318,2.7229,2.7465,2.7856,2.74,2.6986,2.6643,2.6556,2.657,2.6631,2.6631,2.6354,2.5914,2.5536,2.5398,2.5522,0.0,0.0,0.0,0.0,0.0,0.0,0.0,0.0,0.0,0.0,0.0,0.0,0.0,0.0,0.0,0.0,0.0,0.0,2.76,2.6443,2.5646,2.5398,2.4163,2.3365,2.3108,2.3108,2.3108,2.3108,2.3108,2.3108,2.3108,2.3108,2.3108,2.3138,2.4208,2.4951,2.5481,2.6481,2.7163,2.76,2.76,2.76,0.0,0.0,0.0,0.0,0.0,0.0,0.0,0.0,3.119,3.1288,3.173,3.1932,3.2109,3.2583,3.2809,3.2981,3.3302,3.3375,3.3465,3.3734,3.4211,3.4472,3.3935,3.4009,3.4183,3.4215,3.4051,3.3921,3.3883,0.0,0.0,0.0,3.2195,3.1389,3.1389,3.1291,0.0,0.0,0.0,0.0,0.0,0.0,0.0,0.0,0.0,0.0,0.0,2.9848,2.987,2.9695,2.987,2.987,2.9695,2.9673,2.9673,2.9673,2.874,2.8489,2.8779,2.8693,2.8925,2.9384,2.8879,2.8404,2.8027,2.7944,2.7935,2.8027,2.8027,2.7728,2.7235,2.681,2.6657,2.6773,0.0,0.0,0.0,0.0,0.0,0.0,0.0,0.0,0.0,0.0,0.0,0.0,0.0,0.0,0.0,0.0,0.0,0.0,2.7575,2.6878,2.6149,2.5425,2.4681,2.3914,2.3138,2.3108,2.3108,2.3108,2.3108,2.3108,2.3108,2.3108,2.3108,2.3108,2.3108,2.3959,2.5398,2.5398,2.6242,2.76,2.76,2.76,2.7735,0.0,0.0,0.0,0.0,0.0,0.0,0.0,3.121,3.1271,3.1678,3.2127,3.2599,3.306,3.3494,3.3807,3.3807,3.3807,3.3807,3.3807,3.3807,3.3807,3.3807,3.4417,3.4766,3.3972,3.4706,3.5245,3.4438,3.4561,0.0,3.374,3.2581,3.1807,3.1807,0.0,0.0,0.0,0.0,0.0,0.0,0.0,0.0,0.0,0.0,0.0,0.0,3.0878,3.0935,3.033,3.0878,3.0918,3.0314,3.0314,3.0314,3.0314,3.0314,2.9995,2.9406,2.9406,2.9406,2.9429,2.9429,2.9429,2.9406,2.9406,2.9429,2.9406,2.9406,2.9406,2.9406,2.9406,2.9406,2.9406,0.0,0.0,0.0,0.0,0.0,0.0,0.0,0.0,0.0,0.0,0.0,0.0,0.0,0.0,0.0,0.0,0.0,0.0,2.6054,2.537,2.4851,2.4652,2.3884,2.3335,2.3108,2.3108,2.3108,2.3108,2.3108,2.3108,2.3108,2.3108,2.3108,2.3138,2.3679,2.4192,2.4681,2.5728,2.6416,2.6878,2.7382,2.76,2.7735,0.0,0.0,0.0,0.0,0.0,0.0,0.0,0.0,0.0,3.2161,3.2616,3.3075,3.3508,3.3707,3.3807,3.3807,3.3807,3.3807,3.3807,3.4215,3.4491,3.3935,3.4417,3.4931,3.4692,3.4906,3.5075,3.4838,3.4178,0.0,3.4114,3.3096,3.2299,3.2299,0.0,0.0,0.0,0.0,0.0,0.0,0.0,0.0,0.0,0.0,0.0,0.0,3.1095,3.1131,3.0955,3.1112,3.1114,3.0918,3.1206,3.1363,3.1363,3.1363,3.0897,3.0059,3.0477,3.0679,3.0683,3.0977,3.085,3.0455,3.0455,3.0542,3.0621,3.0187,3.0038,2.9978,2.9563,2.9406,2.9502,0.0,0.0,0.0,0.0,0.0,0.0,0.0,0.0,0.0,0.0,2.4951,0.0,0.0,0.0,0.0,0.0,0.0,0.0,0.0,2.4709,2.4292,2.4292,2.3543,2.3108,2.3108,2.3108,2.3108,2.3108,2.3108,2.3108,2.3108,2.3108,2.3108,2.3138,2.3603,2.4002,2.4379,2.5563,2.6229,2.6563,2.7306,2.76,2.771,0.0,0.0,0.0,0.0,0.0,0.0,0.0,0.0,0.0,3.235,3.2809,3.3273,3.368,3.3807,3.3815,3.3923,3.3876,3.3855,3.4087,3.442,3.4657,3.4643,3.4576,3.4509,3.4509,3.4784,3.4912,3.4582,3.4195,0.0,3.4127,3.3381,3.2777,3.2777,0.0,0.0,0.0,0.0,0.0,0.0,0.0,0.0,0.0,0.0,0.0,0.0,3.1449,3.1449,3.1449,3.1449,3.1449,3.1449,3.1861,3.2074,3.2074,3.2074,3.1754,3.1174,3.1179,3.1291,3.1451,3.1879,3.1881,3.154,3.154,3.1609,3.1677,3.1325,3.1174,3.1118,3.0771,3.0634,3.0714,0.0,0.0,0.0,0.0,0.0,0.0,0.0,0.0,0.0,0.0,2.4205,2.4452,0.0,0.0,0.0,0.0,0.0,0.0,0.0,0.0,2.4205,2.4205,2.3484,2.3108,2.3108,2.3108,2.3108,2.3108,2.3108,2.3108,2.3108,2.3108,2.3108,2.3108,2.3108,2.3514,2.4234,2.4979,2.5728,2.6443,2.7188,2.7549,2.7675,2.8286,0.0,0.0,0.0,0.0,0.0,0.0,0.0,0.0,3.2417,3.2872,3.3332,3.3694,3.3815,3.3889,3.4135,3.4043,3.4018,3.4569,3.4456,3.4521,3.5545,3.4801,3.39,3.3973,3.4499,3.4711,3.3957,3.4435,3.4679,3.3917,3.3494,3.3258,3.3258,0.0,0.0,0.0,0.0,0.0,0.0,0.0,0.0,0.0,0.0,0.0,0.0,3.1862,3.1862,3.1862,3.1862,3.1862,3.1862,3.2333,3.2567,3.2567,3.2567,3.2567,3.2534,3.1694,3.1545,3.1951,3.2366,3.2567,3.2567,3.2567,3.2534,3.2501,3.2501,3.2501,3.2501,3.2501,3.2501,3.2501,0.0,0.0,0.0,0.0,0.0,0.0,0.0,0.0,0.0,0.0,0.0,0.0,0.0,0.0,0.0,0.0,0.0,0.0,0.0,0.0,2.3365,2.3365,2.3198,2.3108,2.3108,2.3108,2.3108,2.3108,2.3108,2.3108,2.3108,2.3108,2.3108,2.3108,2.3108,2.3198,2.3395,2.4192,2.4951,2.5701,2.6443,2.7086,2.7675,2.8286,2.8873,0.0,0.0,0.0,0.0,0.0,0.0,0.0,3.2905,3.3332,3.3694,3.3762,3.3948,3.4123,3.4176,3.4345,3.4548,3.4663,3.4653,3.466,3.49,3.4714,3.4685,3.533,3.4874,3.4333,3.4148,3.4259,3.4247,3.3847,3.3721,3.368,3.368,0.0,0.0,0.0,0.0,0.0,0.0,0.0,0.0,0.0,0.0,0.0,3.235,3.235,3.235,3.235,3.235,3.235,3.235,3.2809,3.3045,0.0,3.3045,3.3045,3.3029,3.2467,3.2467,3.2903,3.3014,3.3045,3.3045,3.3045,3.2825,3.2501,3.2501,3.2501,3.2501,3.2501,3.2501,3.255,0.0,0.0,0.0,0.0,0.0,0.0,0.0,0.0,0.0,0.0,0.0,0.0,0.0,0.0,0.0,0.0,0.0,0.0,0.0,0.0,0.0,2.3108,2.3108,2.3108,2.3108,2.3108,2.3108,2.3108,2.3108,2.3108,2.3108,2.3108,2.3108,2.3108,2.3108,2.3108,2.3155,2.3972,2.4738,2.5453,2.6203,2.693,2.7635,2.7944,2.8614,2.9451,2.9761,0.0,0.0,0.0,0.0,0.0,0.0,0.0,3.3807,3.3807,3.3902,3.4068,3.4357,3.4445,3.454,3.4822,3.4981,3.5088,3.5088,3.4981,3.504,3.5605,3.5038,3.4434,3.4434,3.4434,3.4379,3.4237,3.4099,3.3999,3.3999,0.0,0.0,0.0,0.0,0.0,0.0,0.0,0.0,0.0,0.0,3.2842,3.2842,3.2842,3.2842,3.2842,3.2842,3.2842,3.2842,3.3273,3.3494,3.3494,3.3494,3.3494,3.348,3.3045,3.2968,3.3214,3.339,3.3494,3.3494,3.3494,3.3346,3.3118,3.3118,3.3186,3.3306,3.3306,3.3306,3.3352,0.0,0.0,0.0,0.0,0.0,0.0,0.0,0.0,0.0,0.0,0.0,0.0,0.0,0.0,0.0,0.0,0.0,0.0,0.0,0.0,0.0,2.3108,2.3108,2.3108,2.3108,2.3258,2.3305,2.3305,2.3442,2.3501,2.3501,2.3215,2.3108,2.3108,2.3108,2.3108,2.3125,2.3796,2.4538,2.5259,2.6014,2.6733,2.7408,2.7534,2.828,2.9248,2.9248,3.0021,3.1055,3.1117,0.0,0.0,0.0,0.0,3.3707,3.3793,3.3829,3.4005,3.4559,3.4572,3.4545,3.5043,3.5346,3.55,3.55,3.5339,3.5231,3.5446,3.5113,3.4764,3.4764,3.4764,3.4744,3.4704,3.4475,3.43,0.0,0.0,0.0,0.0,0.0,0.0,0.0,0.0,0.0,0.0,0.0,3.3302,3.3302,3.3302,3.3302,3.3302,3.3302,3.3302,3.3302,3.3689,3.3863,3.3863,3.3915,3.3915,3.385,3.3584,3.3397,3.3317,3.3666,3.3807,3.3788,3.3855,3.3863,3.3863,3.3928,3.408,3.43,3.43,3.43,3.43,0.0,0.0,0.0,0.0,0.0,0.0,0.0,0.0,0.0,0.0,2.4612,0.0,0.0,0.0,0.0,0.0,0.0,0.0,2.3133,0.0,0.0,2.3108,2.3108,2.3108,2.3108,2.3767,2.4147,2.4147,2.4781,2.5091,2.5063,2.3725,2.3108,2.3108,2.3108,2.3108,2.3108,2.3215,2.3708,2.4509,2.5259,2.5987,2.6721,2.7357,2.8018,2.863,2.863,2.9406,3.0481,3.081,3.1352,0.0,0.0,0.0,3.3346,3.3694,3.3961,3.423,3.4612,3.5008,3.5342,3.5432,3.546,3.55,3.55,3.546,3.5453,0.0,3.5266,3.5053,3.5053,3.5053,3.4972,3.4734,3.4663,3.4643,0.0,0.0,0.0,0.0,0.0,0.0,0.0,0.0,0.0,0.0,3.3721,3.3721,3.3721,3.3721,3.3721,3.3721,3.3721,3.3721,3.3721,3.4006,3.4147,3.4159,3.4442,3.4431,3.4159,3.439,3.4206,3.3721,3.3793,3.3807,3.3815,3.4056,3.4147,3.4183,3.4464,3.4601,3.4643,3.4643,3.4643,3.4643,0.0,0.0,0.0,0.0,0.0,0.0,0.0,0.0,0.0,0.0,0.0,2.4788,0.0,0.0,0.0,2.4481,2.418,2.3753,2.3145,2.3108,2.3108,2.3108,2.3531,2.3767,2.3767,2.4538,2.4922,2.4922,2.5231,2.5398,2.5398,2.4724,2.4163,2.3738,2.3305,2.3108,2.3108,2.3108,2.356,2.435,2.5091,2.5837,2.659,2.7331,2.7968,2.8487,2.8487,2.9042,2.9854,3.0394,3.0906,3.1426,3.2178,0.0,0.0,0.0,3.3711,3.4068,3.458,3.4981,3.5304,3.5453,3.55,3.55,3.55,3.55,3.55,3.55,3.5417,3.532,3.532,3.532,3.5289,3.5174,3.5016,3.4926,0.0,0.0,0.0,0.0,0.0,0.0,0.0,0.0,0.0,0.0,3.3807,3.3807,3.3807,3.3807,3.3807,3.3807,3.3807,3.3863,3.4018,3.4147,3.4281,3.4467,3.4632,3.4632,3.4497,3.4643,3.4453,3.4031,3.4213,3.4295,3.4307,3.4431,3.4486,3.4478,3.4643,3.4784,3.4926,3.4926,3.4926,3.4926,0.0,0.0,0.0,0.0,0.0,0.0,0.0,0.0,0.0,0.0,0.0,0.0,0.0,0.0,0.0,0.0,2.4644,2.4104,2.3371,2.3183,2.3108,2.3108,2.3884,2.4292,2.4292,2.5203,2.5673,2.5673,2.5864,2.5973,2.5973,2.5783,2.5398,2.4823,2.3855,2.3395,2.3395,2.3198,2.3454,2.4089,2.5007,2.5728,2.631,2.7255,2.7885,2.8271,2.8271,2.8662,2.9248,2.987,3.0373,3.0873,3.1571,3.2281,0.0,0.0,0.0,3.3999,3.4453,3.4832,3.5138,3.5354,3.5446,3.55,3.55,3.55,3.55,0.0,3.55,3.55,3.55,3.55,3.55,3.55,3.532,3.5207,0.0,0.0,0.0,0.0,0.0,0.0,0.0,0.0,0.0,0.0,3.403,3.403,3.403,3.403,3.403,3.403,3.403,3.4117,3.4334,3.4383,3.4584,3.4908,3.4908,3.4879,3.4793,3.4879,3.4725,3.4438,3.4614,3.4694,3.4723,3.4764,3.4793,3.4822,3.4879,3.5035,3.5207,3.5207,3.5207,3.5207,0.0,0.0,0.0,0.0,0.0,0.0,0.0,0.0,0.0,0.0,0.0,0.0,2.6411,2.6411,2.6185,2.5598,2.5523,2.5071,2.4017,2.3409,2.3108,2.3108,2.3884,0.0,2.4292,2.5701,2.6457,2.6457,2.7137,2.7484,2.7458,2.6774,2.6431,2.631,2.4879,2.4234,2.4205,2.3424,2.3138,2.3305,2.4809,2.5425,2.5618,2.7045,2.7625,2.765,2.765,2.8042,2.8654,2.9248,2.9848,3.0506,3.1495,3.1826,3.2039,0.0,0.0,0.0,3.4211,3.4656,3.5105,3.5113,3.5304,3.55,3.55,3.55,3.55,3.55,3.55,3.55,3.55,3.55,3.55,3.55,3.5493,3.5486,0.0,0.0,0.0,0.0,0.0,0.0,0.0,0.0,0.0,0.0,3.4653,3.4653,3.4653,3.4653,3.4653,3.4653,3.4653,3.4653,3.4674,3.4935,3.5198,3.5453,3.5453,3.5339,3.5088,3.5327,3.5304,3.5034,3.4793,3.4694,3.4714,3.4972,3.5079,3.5105,3.5361,3.5479,3.5486,3.5486,3.5486,3.5486,0.0,0.0,0.0,0.0,0.0,0.0,0.0,0.0,0.0,0.0,0.0,0.0,0.0,2.6499,2.6411,2.6197,2.5812,2.5134,2.4067,2.3803,2.3496,2.312,2.4323,2.5007,2.5007,2.6455,2.7203,2.7203,2.7458,2.76,2.76,2.7331,2.7203,2.7111,2.5175,2.4292,2.4263,2.3454,2.3108,2.3245,2.4781,2.5398,2.5563,2.7034,2.76,2.76,2.76,2.7735,2.8018,2.8614,2.9225,2.9854,3.0595,3.1287,3.1986,3.2919,3.3372,3.3656,3.408,3.436,3.4626,3.5008,3.5182,3.5289,3.5453,3.55,3.55,3.55,3.55,3.55,3.55,3.55,3.55,3.55,3.55,3.55,0.0,0.0,0.0,0.0,0.0,0.0,0.0,0.0,0.0,0.0,0.0,3.4694,3.4694,3.4694,3.4694,3.4694,3.4694,3.4774,3.4954,3.5223,3.5398,3.55,3.55,3.5446,3.5361,3.5453,3.5446,3.5354,3.5266,3.5215,3.5215,3.5312,3.5361,3.5369,3.5453,3.55,3.55,3.55,3.5534,3.5568,0.0,0.0,0.0,0.0,0.0,0.0,0.0,0.0,0.0,2.6499,0.0,0.0,0.0,0.0,2.599,2.599,2.5756,2.5297,2.4582,2.4205,2.3828,2.3409,2.4443,2.5147,2.5398,2.6587,2.7357,2.76,2.76,2.76,2.76,2.76,2.76,2.7509,2.5796,2.5035,2.4951,2.393,2.3514,2.3619,2.4894,2.5398,2.5563,2.7034,2.76,2.76,2.76,2.76,2.771,2.8519,2.9081,2.954,3.0351,3.115,3.1951,3.2745,3.3075,3.3328,3.3899,3.4135,3.4292,3.4696,3.4944,3.5157,3.5339,3.5439,3.55,3.55,3.55,3.55,3.55,3.55,3.55,3.55,3.55,3.55,3.55,0.0,0.0,0.0,0.0,0.0,0.0,0.0,0.0,0.0,0.0,0.0,3.4972,3.4972,3.4972,3.4972,3.4972,3.5043,3.5231,3.5417,3.55,3.55,3.55,3.55,3.55,3.55,3.55,3.55,3.5528,3.5515,3.55,3.55,3.5515,3.5534,3.5534,3.5546,3.5574,3.5574,3.56,3.5635,0.0,0.0,0.0,0.0,0.0,0.0,0.0,0.0,2.6499,2.6499,0.0,0.0,0.0,0.0,0.0,2.504,2.5416,2.5611,2.5598,2.4607,2.4017,2.4004,2.4209,2.4681,2.537,2.6149,2.6878,2.76,2.76,2.76,2.76,2.76,2.76,2.7575,2.6852,2.6537,2.6457,2.4951,2.4321,2.4408,2.5147,2.5425,2.5591,2.706,2.76,2.76,2.76,2.76,2.7785,2.895,2.9361,2.9585,3.0797,3.1451,3.1879,3.235,3.2809,3.3273,0.0,0.0,0.0,3.4188,3.4646,3.5088,3.5096,0.0,3.5493,3.55,3.55,3.55,3.55,3.55,3.55,3.55,3.55,3.55,3.55,0.0,0.0,0.0,0.0,0.0,0.0,0.0,0.0,0.0,3.55,3.55,3.55,3.55,3.55,3.55,3.55,3.55,3.55,3.55,3.55,3.55,3.55,3.55,3.55,3.5507,3.5507,3.552,3.5571,3.5574,3.5514,3.5514,3.554,3.5596,3.5596,3.5633,3.5707,3.5707,3.5707,3.571,0.0,0.0,0.0,0.0,0.0,0.0,2.6499,2.6499,2.6499,0.0,0.0,0.0,2.6499,2.6233,2.6094,2.6094,2.6199,2.6084,2.5624,2.4971,2.4418,2.4017,2.4713,2.5175,2.5398,2.6654,2.7408,2.76,2.76,2.76,2.76,2.76,2.76,2.76,2.7382,2.7306,2.7188,2.5728,2.5091,2.5147,2.5906,2.6203,2.631,2.724,2.76,2.76,2.76,2.76,2.7635,2.7993,2.8391,2.8966,3.0166,3.0905,3.1449,3.1861,3.2315,3.2793,3.3225,0.0,0.0,0.0,0.0,0.0,0.0,0.0,3.5273,3.5453,3.55,3.55,3.55,3.55,3.55,3.55,3.55,3.55,3.55,0.0,0.0,0.0,0.0,0.0,0.0,0.0,0.0,0.0,3.55,3.55,3.55,3.55,3.55,3.55,3.55,3.55,3.55,3.55,3.55,3.55,3.55,3.55,3.5507,3.5552,3.5566,3.5577,3.5633,3.5667,3.5638,3.5638,3.5655,3.5663,3.5663,3.5682,3.5707,3.5707,3.5761,3.5843,0.0,0.0,0.0,0.0,0.0,2.6499,2.6499,2.6499,2.6499,0.0,0.0,0.0,2.5921,2.6233,2.6349,2.5908,2.6245,2.6348,2.6009,2.5448,2.4908,2.4368,2.4935,2.5322,2.5412,2.6549,2.728,2.76,2.76,2.76,2.76,2.76,2.76,2.76,2.76,2.76,2.7534,2.6666,2.6135,2.5906,2.6336,2.651,2.659,2.7331,2.76,2.76,2.76,2.76,2.765,2.7894,2.8367,2.9042,3.0,3.0539,3.0962,3.1605,3.1986,3.2349,3.3014,3.3361,3.3634,3.3943,0.0,0.0,3.4822,3.5016,3.5182,0.0,3.55,3.55,3.55,3.55,3.55,3.55,3.55,3.55,3.55,0.0,0.0,0.0,0.0,0.0,0.0,3.55,3.55,3.55,3.55,3.55,3.55,3.55,3.55,3.55,3.55,3.55,3.55,3.55,3.55,3.55,3.5541,3.5534,3.554,3.5611,3.5633,3.5657,3.5739,3.5775,3.5797,3.5804,3.5819,3.5775,3.5775,3.5792,3.5834,3.5834,3.5869,3.5945,0.0,0.0,2.6499,2.6499,2.6499,2.6499,2.6499,2.6499,2.6499,0.0,2.6499,2.6164,2.5264,2.5943,2.6129,2.5229,2.599,2.6499,2.6499,2.5946,2.536,2.4813,2.4991,2.5197,2.5384,2.6122,2.6852,2.76,2.76,2.76,2.76,2.76,2.76,2.76,2.76,2.76,2.76,2.76,2.7229,2.6616,2.6616,2.6616,2.6695,2.7357,2.76,2.76,2.76,2.76,2.7685,2.8238,2.8803,0.0,0.0,0.0,0.0,3.1363,3.1699,3.1986,3.2825,3.3121,3.3288,3.3634,3.3961,0.0,3.4561,3.4851,3.513,0.0,3.5486,3.55,3.55,3.5514,3.5508,3.5508,3.5508,3.5501,3.55,0.0,0.0,0.0,0.0,0.0,3.5508,3.5494,3.5507,3.5508,3.5494,3.55,3.55,3.55,3.55,3.55,3.55,3.55,3.55,3.5501,3.5508,3.5515,3.5582,3.5611,3.5616,3.5694,3.572,3.5723,3.5869,3.591,3.5913,3.5974,3.5953,3.591,3.591,3.5948,3.5996,3.5996,3.5996,3.5996,0.0,2.6499,2.6499,2.6499,2.6499,2.6499,2.6499,2.6499,2.6499,2.6499,2.6499,2.6418,2.6245,2.6383,2.6418,2.6233,2.6383,2.6499,2.6499,2.5946,2.536,2.4813,2.4991,2.5197,2.5384,2.6122,2.6852,2.76,2.76,2.76,2.76,2.76,2.76,2.76,2.76,2.76,2.76,2.76,2.7524,2.7382,2.7382,2.7382,2.7408,2.7549,2.76,2.76,2.76,2.76,2.7625,2.7735,2.8189,2.8701,0.0,0.0,0.0,3.0526,0.0,0.0,3.2022,3.2614,0.0,0.0,0.0,0.0,3.423,3.4551,3.4841,0.0,3.5354,3.55,3.55,3.554,3.5588,3.5588,3.5588,3.5562,3.5501,0.0,0.0,0.0,0.0,0.0,3.5577,3.5528,3.5522,3.5577,3.5522,3.55,3.55,3.55,3.55,3.55,3.55,3.55,3.55,3.5544,3.5588,3.5588,3.5642,3.5678,3.5678,3.5802,3.5869,3.5871,3.5948,3.5975,3.5975,3.5996,3.5996,3.5975,3.5975,3.5995,3.5996,3.5996,3.5996,3.5996,2.6499,2.6499,2.6499,2.6499,2.6499,2.6499,2.6499,2.6499,2.6499,2.6499,2.6499,2.6499,2.6499,2.6499,2.6499,2.6499,2.6499,2.6499,2.6499,2.6223,2.5774,2.5234,2.5752,2.5952,2.5797,2.6628,2.7229,2.76,2.76,2.76,2.76,2.76,2.776,2.8042,2.7735,2.776,2.8018,2.7735,2.76,2.76,2.76,2.76,2.76,2.76,2.76,2.76,2.76,2.76,2.76,2.76,2.781,0.0,2.8407,2.9111,2.9913,0.0,3.0868,3.1528,0.0,0.0,0.0,3.3075,0.0,0.0,0.0,3.4456,3.4783,3.5034,3.5312,3.55,3.55,3.5544,3.5611,3.5611,3.5611,3.5611,3.5611,3.5566,0.0,0.0,0.0,0.0,3.5642,3.5585,3.5552,3.5552,3.5552,3.5534,3.5507,3.5568,3.5574,3.5558,3.5568,3.5611,3.5611,3.5635,3.5646,3.5646,3.5746,3.5802,3.5805,3.5895,3.5948,3.5948,3.5995,3.5996,3.5996,3.5996,3.5996,3.5996,3.5996,3.5996,3.5996,3.5996,3.5996,3.5996,2.6499,2.6499,2.6499,2.6499,2.6499,2.6499,2.6499,2.6499,2.6499,2.6499,2.6499,2.6499,2.6499,2.6499,2.6499,2.6499,2.6499,0.0,2.6499,2.6499,2.6235,2.5624,2.6365,2.6581,2.6194,2.6973,2.7473,2.76,2.76,2.76,2.76,2.76,2.786,2.8295,2.7959,2.7968,2.8295,2.7919,2.771,2.76,2.76,2.76,2.76,2.76,2.76,2.76,2.76,2.766,2.776,2.765,2.76,2.77,2.8165,2.8826,0.0,0.0,0.0,0.0,0.0,0.0,0.0,0.0,0.0,3.3372,0.0,0.0,0.0,3.4963,3.5231,3.5439,0.0,0.0,0.0,0.0,0.0,0.0,0.0,3.5694,0.0,0.0,0.0,0.0,3.5749,3.5698,3.5631,3.554,3.5585,3.56,3.5534,3.5629,3.5687,3.5611,3.5663,3.5707,3.5707,3.5723,3.5749,3.5729,3.5855,3.5914,3.5916,3.5974,3.5996,3.5996,3.5996,3.5996,3.5996,3.5996,3.5996,3.5996,3.5996,3.5996,3.5996,3.5996,3.5996,3.5996,2.6499,2.6499,2.6499,2.6499,2.6499,2.6499,2.6499,2.6499,2.6499,2.6499,2.6499,2.6499,2.6499,2.6499,2.6499,2.6499,2.6499,2.6499,2.6499,2.6499,2.6235,2.5624,2.5875,2.6099,2.6194,2.6489,2.6956,2.76,2.76,2.76,2.76,2.76,2.765,2.771,2.8189,2.814,2.7735,2.8213,2.8091,2.76,2.76,2.76,0.0,2.76,2.76,2.76,2.76,2.7944,2.8334,0.0,2.76,2.761,0.0,2.8472,2.9406,2.9473,0.0,0.0,0.0,0.0,0.0,0.0,3.2887,0.0,3.3743,0.0,3.4357,3.4684,0.0,0.0,0.0,0.0,0.0,0.0,0.0,0.0,3.5932,3.5914,3.5829,3.5713,0.0,0.0,0.0,3.5869,3.5799,3.5698,3.5682,3.5686,3.5671,3.5693,3.57,3.5689,3.57,3.5707,3.5707,3.5809,3.5875,3.5875,3.595,3.5995,3.5995,3.5996,3.5996,3.5996,3.5996,3.5996,3.5996,3.5996,3.5996,3.5996,3.5996,3.5996,3.5996,3.5996,3.5996,3.5996,2.6679,2.6499,2.6499,2.6499,2.6499,2.6499,2.6499,2.6499,2.6499,2.6499,2.6499,2.6499,2.6499,2.6499,2.6499,2.6499,2.6499,2.6499,2.6499,2.6499,2.6386,2.6135,2.6767,2.6976,2.666,2.7374,2.768,2.76,2.76,2.76,2.76,2.76,2.7785,2.814,2.8391,2.8543,2.8638,2.8535,2.8343,0.0,0.0,2.8116,0.0,2.7735,2.781,2.8165,2.8519,2.881,2.8973,0.0,2.84,0.0,0.0,0.0,0.0,2.9827,0.0,0.0,0.0,0.0,0.0,0.0,0.0,0.0,3.3404,0.0,3.4235,0.0,0.0,0.0,0.0,0.0,0.0,0.0,3.5707,0.0,0.0,0.0,3.5885,0.0,0.0,0.0,0.0,0.0,0.0,0.0,3.5769,3.5772,3.5707,3.5806,3.5862,3.5812,3.5841,3.5875,3.5875,3.5926,3.5951,3.5951,3.5995,3.5996,3.5996,3.5996,3.5996,3.5996,3.5996,3.5996,3.5996,3.5996,3.5996,3.5996,3.5996,3.5996,3.5996,3.5996,3.5996,3.5996,2.7417,2.7196,2.7196,2.7196,2.7007,2.6748,2.6521,2.6499,2.6499,2.6499,2.6499,2.6549,2.67,2.6587,2.6549,2.6713,2.6587,2.6589,0.0,0.0,2.6714,2.7162,2.7714,2.7801,2.7357,2.8163,2.8263,2.76,2.76,2.76,2.76,2.76,2.7835,2.8262,2.8431,2.8732,2.9134,2.885,2.8756,2.8756,2.8756,2.8756,2.8685,2.8271,2.8472,2.9035,2.9293,2.9496,2.9629,2.9451,2.9111,0.0,2.9248,0.0,0.0,0.0,0.0,0.0,3.119,0.0,0.0,0.0,0.0,0.0,0.0,0.0,0.0,0.0,0.0,0.0,0.0,0.0,0.0,0.0,0.0,3.576,0.0,3.5951,0.0,0.0,0.0,0.0,0.0,0.0,0.0,3.5792,3.5864,3.5887,3.579,3.5928,3.5975,3.5939,3.5974,3.5996,3.5996,3.5996,3.5996,3.5996,3.5996,3.5996,3.5996,3.5996,3.5996,3.5996,3.5996,3.5996,3.5996,3.5996,3.5996,3.5996,3.5996,3.5996,3.5996,3.5996,3.5996,3.5996,2.8939,2.8907,2.8907,2.8907,2.8214,2.7384,2.6624,2.6499,2.6499,2.6499,2.6499,2.67,2.7241,2.6813,2.6713,0.0,0.0,2.685,2.7604,0.0,2.7229,0.0,0.0,2.8086,2.8254,2.8491,2.8263,2.76,2.76,2.76,2.76,2.76,2.7625,2.7635,2.8238,2.8511,2.8559,2.9134,2.9361,2.9361,2.9361,2.9361,2.9361,0.0,2.9717,3.0166,2.9607,0.0,0.0,2.9585,2.9384,0.0,0.0,0.0,0.0,0.0,0.0,0.0,0.0,0.0,0.0,3.1715,0.0,0.0,0.0,0.0,3.3889,0.0,0.0,0.0,0.0,0.0,0.0,3.5675,0.0,0.0,0.0,0.0,0.0,0.0,0.0,0.0,0.0,0.0,3.5996,3.5996,3.5996,3.5996,3.5996,3.5996,3.5996,3.5996,3.5996,3.5996,3.5996,3.5996,3.5996,3.5996,3.5996,3.5996,3.5996,3.5996,3.5996,3.5996,3.5996,3.5996,3.5996,3.5996,3.5996,3.5996,3.5996,3.5996,3.5996,3.5996,3.5996,3.5996,3.0644,3.0644,3.0299,2.9192,2.8748,2.846,2.8214,2.767,2.7517,2.8084,2.7637,2.7583,2.8351,2.8256,2.8229,0.0,0.0,2.8266,2.8524,2.8298,0.0,0.0,0.0,2.9351,0.0,0.0,2.8921,2.8248,2.7824,2.76,2.76,2.76,2.76,2.7625,2.8238,2.8709,2.9111,2.9316,0.0,0.0,0.0,3.023,3.0539,0.0,3.0123,3.033,3.0518,3.072,0.0,3.0658,3.033,3.0081,3.0477,3.0456,3.0393,3.0777,3.1035,0.0,0.0,0.0,3.2021,3.1843,0.0,0.0,0.0,0.0,0.0,0.0,0.0,0.0,0.0,0.0,3.5328,3.5597,3.5635,0.0,0.0,0.0,0.0,0.0,0.0,0.0,0.0,0.0,0.0,3.5996,3.5996,3.5996,3.5996,3.5996,3.5996,3.5996,3.5996,3.5996,3.5996,3.5996,3.5996,3.5996,3.5996,3.5996,3.5996,3.5996,3.5996,3.5996,3.5996,3.5996,3.5996,3.5996,3.5996,3.5996,3.5996,3.5974,3.5944,3.5975,3.5996,3.5996,3.1511,3.1511,3.1161,3.0072,2.9659,2.9348,2.9066,2.8524,2.8363,2.8939,2.8524,0.0,2.9532,0.0,2.9435,0.0,2.9476,2.9479,2.975,2.9303,0.0,3.0202,3.0293,3.0116,0.0,0.0,0.0,0.0,2.8184,2.7951,2.7919,2.7919,2.8042,2.8271,2.8638,2.9157,2.9717,2.9717,3.0081,0.0,0.0,3.0858,0.0,0.0,3.0617,3.0679,0.0,3.119,3.119,3.119,3.0938,3.0679,3.1092,3.0918,3.0699,3.1075,3.119,3.1291,3.1696,3.2022,0.0,3.2074,3.2631,0.0,3.2809,0.0,0.0,0.0,0.0,0.0,0.0,0.0,0.0,3.5544,3.5611,0.0,0.0,3.5951,0.0,0.0,0.0,0.0,0.0,0.0,3.5996,3.5996,3.5996,3.5996,0.0,0.0,3.5996,3.5996,3.5996,3.5996,3.5996,3.5996,3.5996,3.5996,3.5996,3.5996,3.5996,3.5996,3.5996,3.5996,3.5996,3.5996,3.5996,3.5996,3.5996,3.5996,3.5974,3.5944,3.5905,3.5948,3.5929,3.5897,3.1511,3.1525,3.1555,3.1555,3.091,3.0129,2.9296,0.0,2.918,0.0,2.918,2.9624,3.0807,3.0484,3.0373,3.089,3.0443,3.0435,3.1224,2.9921,0.0,0.0,3.1099,3.0411,3.0539,0.0,0.0,0.0,0.0,2.8632,2.8605,2.855,2.885,2.9406,2.9406,2.9739,3.0293,3.0293,3.0658,3.119,3.119,3.119,3.119,3.119,3.119,3.119,3.119,3.119,3.119,3.119,3.119,3.119,3.119,3.119,3.121,3.123,3.123,3.1312,3.1734,3.1879,3.1969,3.2434,0.0,0.0,0.0,0.0,3.378,0.0,0.0,0.0,0.0,0.0,0.0,0.0,0.0,0.0,0.0,0.0,3.5996,0.0,0.0,0.0,0.0,3.5996,3.5996,3.5996,3.5996,3.5996,0.0,0.0,3.5996,3.5996,3.5996,3.5996,3.5996,3.5996,3.5996,3.5996,3.5996,3.5996,3.5996,3.5996,3.5996,3.5996,3.5996,3.5996,3.5996,3.5996,3.5996,3.5996,3.5938,3.59,3.5894,3.5898,3.5807,3.5703,3.1511,3.1899,3.2228,3.2228,3.2065,3.1871,0.0,0.0,0.0,0.0,3.176,3.1749,3.2713,3.2673,3.2674,3.2805,3.2232,0.0,0.0,0.0,0.0,3.1721,3.1396,3.1203,3.1241,3.0776,0.0,3.0832,0.0,2.9524,2.9973,2.9418,2.9248,2.9406,2.9406,2.9739,3.0293,3.0293,3.0658,3.119,3.119,3.119,3.119,0.0,3.119,3.119,3.119,3.119,3.119,3.119,3.119,3.119,3.119,3.119,3.1252,3.1547,3.1641,3.1807,3.2614,3.284,3.2872,3.2999,3.3105,3.3199,0.0,0.0,0.0,0.0,0.0,0.0,0.0,0.0,0.0,0.0,0.0,0.0,0.0,0.0,0.0,3.5996,0.0,0.0,3.5996,3.5996,3.5996,3.5996,3.5996,3.5996,3.5996,0.0,0.0,3.5996,3.5996,3.5996,3.5996,3.5996,3.5996,3.5996,3.5996,3.5996,3.5996,3.5996,3.5996,3.5996,3.5996,3.5996,3.5996,3.5996,3.5996,3.5996,3.5938,3.5808,3.5678,3.5733,3.5723,3.5696,3.2831,3.3466,3.3942,3.3942,0.0,0.0,3.3036,3.2847,0.0,3.3423,3.3053,0.0,3.3857,3.3918,3.3918,3.3918,3.3589,0.0,3.2961,0.0,0.0,3.2361,3.241,3.2407,3.2407,3.2048,0.0,3.2043,0.0,3.0887,3.0871,3.0459,3.0228,3.0187,3.0187,3.0393,3.0699,3.0699,3.0878,3.119,3.119,3.119,0.0,3.1408,3.1451,3.1488,3.1677,3.1638,3.1451,3.1451,3.1601,3.1786,3.1786,3.1786,3.1805,3.2039,3.2109,3.2264,3.2999,3.3199,3.3243,3.3422,3.3465,3.3465,3.3465,3.3465,3.3522,0.0,0.0,0.0,0.0,0.0,0.0,0.0,0.0,0.0,0.0,0.0,0.0,0.0,3.5996,0.0,3.5996,3.5996,3.5996,3.5996,3.5996,3.5996,0.0,0.0,0.0,3.5996,3.5996,3.5996,3.5996,3.5996,3.5996,3.5996,3.5996,3.6191,3.6562,3.6562,3.6777,3.7148,3.7148,3.7148,3.7148,3.7148,3.7148,3.7128,3.7008,3.6856,3.672,3.6711,3.6231,3.5606,3.4718,3.5415,3.5915,0.0,0.0,0.0,0.0,3.3893,0.0,3.3893,0.0,3.4165,3.4862,3.4922,3.4922,3.4922,0.0,3.4499,3.3849,3.3692,3.3612,3.3519,3.3562,3.3582,3.3582,3.3582,3.337,0.0,0.0,3.2422,3.1797,3.1598,3.1454,3.1326,3.1241,3.123,0.0,3.1271,3.131,3.137,3.137,3.137,3.1408,3.177,3.188,3.195,3.2349,3.223,3.188,3.188,3.2161,3.2501,3.2501,3.2501,3.2517,3.2567,3.2599,3.2697,3.3151,3.3273,3.3361,3.3707,3.3807,3.3807,3.3807,3.3807,3.3802,3.3855,3.4068,3.4368,0.0,0.0,0.0,0.0,0.0,0.0,0.0,0.0,0.0,0.0,0.0,0.0,0.0,0.0,3.5996,3.5996,3.5996,0.0,0.0,0.0,0.0,3.5996,3.6113,3.6172,3.6172,0.0,3.6348,3.6348,3.6348,3.6738,3.7461,3.7461,3.7871,3.8594,3.8594,3.8594,3.8594,3.8594,3.8594,3.8552,3.8383,3.8272,3.8199,3.8087,3.7121,3.5862,3.5568,3.6169,3.6625,0.0,0.0,3.7322,3.7094,3.5953,3.5371,3.5968,3.6061,3.6335,3.7148,3.7223,3.7223,3.7223,3.6714,0.0,0.0,0.0,0.0,3.3608,3.3594,3.3582,3.3582,3.3582,3.3797,0.0,0.0,3.3551,3.392,3.2706,3.2144,3.209,3.1461,3.1372,3.1696,3.1696,0.0,3.2265,3.2265,3.2265,3.2282,3.235,3.2384,3.2401,3.2467,3.2451,3.2384,3.2384,3.2434,3.2501,3.2501,3.2501,3.2583,3.2968,3.3075,3.3184,3.3578,3.3694,3.3707,3.3775,3.3807,3.3807,3.3807,3.3807,3.385,3.4074,3.4379,3.4704,3.4981,0.0,0.0,0.0,0.0,0.0,0.0,0.0,0.0,0.0,0.0,3.5996,0.0,0.0,0.0,0.0,0.0,0.0,0.0,0.0,0.0,0.0,3.6699,0.0,0.0,0.0,3.8144,3.8144,3.8144,3.8223,3.8379,3.8379,3.8457,3.8594,3.8594,3.8594,3.8594,3.8594,3.8532,3.8434,3.8397,3.8336,3.8284,3.8264,3.8062,3.7784,3.74,3.8017,3.8504,0.0,0.0,0.0,0.0,3.7427,3.6829,3.7189,3.7203,3.7368,3.7764,3.7793,3.7793,3.7793,3.7486,3.6858,3.5774,3.5722,3.5249,3.4185,3.4447,3.4633,3.4633,3.4633,3.48,3.5121,0.0,0.0,3.4493,3.4062,3.3431,3.2623,3.2114,3.1986,0.0,0.0,0.0,3.2501,3.2501,3.2501,3.2534,3.2761,3.2856,3.2887,3.3087,3.3163,3.3133,3.2919,3.2996,3.3163,3.3163,3.3163,3.3225,3.3433,3.3508,3.355,3.3748,3.3807,3.3807,3.3807,3.3902,3.4006,3.4006,3.4129,3.4295,3.4423,3.4695,3.499,3.5266,3.5398,0.0,0.0,0.0,0.0,0.0,0.0,0.0,0.0,0.0,0.0,0.0,0.0,0.0,0.0,0.0,0.0,0.0,0.0,0.0,0.0,0.0,0.0,0.0,0.0,0.0,3.8594,3.8594,3.8848,3.9277,3.9277,3.9512,3.9941,3.9941,3.9941,3.9941,3.9941,3.9901,3.9855,3.9777,3.9735,3.9686,3.9623,3.9602,3.9455,3.9166,3.9662,0.0,0.0,3.9584,3.9166,3.9166,3.8652,3.8234,3.8064,3.8035,3.8092,3.8262,3.829,3.8241,3.8068,3.8051,3.7436,3.6038,3.6434,3.6133,3.4873,3.5316,3.56,3.56,3.56,3.56,0.0,0.0,0.0,0.0,3.5212,0.0,0.0,0.0,0.0,0.0,0.0,3.2697,3.2777,3.2777,3.2777,3.2825,3.3181,3.3332,3.3361,3.3694,3.3807,3.3748,3.3419,3.3536,3.3807,3.3807,3.3807,3.3807,3.3807,3.3807,3.3807,3.3807,3.3842,3.3889,3.3889,3.4093,3.4311,3.4311,3.4518,3.4733,3.4764,3.499,3.5239,3.5453,3.55,0.0,0.0,0.0,0.0,0.0,0.0,0.0,0.0,0.0,0.0,3.6269,0.0,0.0,0.0,0.0,0.0,3.7539,0.0,0.0,0.0,0.0,3.8887,3.8887,0.0,3.9141,3.9141,3.9141,3.9512,4.0176,4.0176,4.0547,4.1191,4.1191,4.1191,4.1191,4.1191,4.1191,4.1191,4.1081,4.1049,4.1026,4.092,4.0899,4.0704,0.0,0.0,0.0,0.0,0.0,3.9995,3.9995,3.9927,3.961,3.8881,3.8799,3.9059,3.9825,3.9876,3.9623,3.8967,3.8899,3.8276,3.6794,3.6757,3.6392,3.5549,3.5577,3.56,3.56,3.56,3.56,0.0,0.0,3.5932,0.0,0.0,0.0,0.0,0.0,0.0,0.0,3.3121,3.3346,3.3694,3.3694,3.3694,3.3675,3.3721,3.3734,3.3748,3.3793,3.3807,3.3788,3.3748,3.3762,3.3807,3.3807,3.3807,3.3807,3.3807,3.3807,3.3807,3.3807,3.3986,3.4152,3.4152,3.4401,3.4653,3.4653,3.4674,3.4764,3.5008,3.5281,3.546,3.55,3.55,3.55,0.0,0.0,0.0,0.0,0.0,3.5996,3.5996,0.0,0.0,0.0,3.7187,0.0,0.0,3.7617,0.0,0.0,0.0,0.0,3.8594,0.0,3.9785,3.9785,4.0566,4.0957,4.0957,4.0957,4.0996,4.1074,4.1074,4.1113,4.1191,4.1191,4.1191,4.1191,4.1191,4.1191,4.1191,4.1191,4.1171,4.1171,4.1171,4.1151,4.1132,0.0,0.0,0.0,0.0,0.0,0.0,0.0,4.0096,3.9978,3.9662,3.961,3.9756,4.007,3.9706,3.9309,3.9022,3.8599,3.7889,3.688,3.6795,3.6434,3.5633,3.592,3.6075,3.6075,3.6416,3.6563,0.0,0.0,0.0,0.0,0.0,0.0,0.0,0.0,3.3844,3.3564,3.3564,3.3648,3.3807,3.3807,3.3807,3.3807,3.3807,3.3807,3.3807,3.3807,3.3807,3.3807,3.3807,3.3807,3.3807,3.3807,3.3807,3.3807,3.3807,3.3897,3.4043,3.4043,3.4272,3.4508,3.4508,3.4715,3.4944,3.4944,3.5051,3.5207,3.5312,3.5432,3.55,3.55,3.55,3.55,0.0,0.0,0.0,0.0,0.0,0.0,3.75,0.0,3.7695,0.0,0.0,0.0,0.0,0.0,0.0,0.0,0.0,0.0,4.0137,0.0,4.0684,4.0684,4.1035,4.1191,4.1191,4.1191,4.1191,4.1191,4.1191,4.1191,4.1191,4.1191,4.1191,4.1191,4.1191,4.1191,4.1191,4.1191,4.1191,4.1191,4.1191,4.1191,4.1191,4.0594,0.0,4.0594,0.0,4.0594,4.0594,4.0594,4.0594,4.0594,4.0594,4.0381,4.0134,3.9799,3.9106,3.8638,3.8567,3.808,3.7536,3.695,3.6921,3.6663,3.6092,3.6419,0.0,3.6641,3.7018,3.7209,3.7209,3.7341,0.0,0.0,0.0,0.0,0.0,3.5481,3.4674,3.4137,3.3899,3.3807,3.3807,3.3807,3.3807,3.382,3.3889,3.3928,3.3928,3.3928,3.3992,3.4037,3.3954,3.3974,3.4055,3.3954,3.3928,3.3941,3.4043,3.4201,3.4345,3.4345,3.4582,3.4832,3.4832,3.5016,3.5215,3.5215,3.5369,3.55,3.55,3.55,3.5577,3.5808,3.5846,3.5942,3.6192,0.0,0.0,0.0,0.0,0.0,0.0,3.8594,3.8691,3.8965,3.8984,0.0,0.0,0.0,0.0,0.0,0.0,0.0,0.0,0.0,0.0,4.1191,4.1191,4.1191,4.1191,4.1191,4.1191,4.1191,4.1191,4.1191,4.1191,4.1191,4.1191,4.1191,4.1191,4.1191,4.1191,4.1191,4.1191,4.1191,4.1191,4.1191,4.1171,4.1789,4.1789,4.1789,4.1789,4.1789,4.1789,4.1789,4.1789,4.1789,4.1789,4.1092,4.0206,3.9134,3.8362,3.7819,3.7543,3.7517,3.7422,3.7206,3.7208,3.719,0.0,0.0,3.7173,3.7173,3.7209,3.7209,3.7209,0.0,0.0,3.6705,0.0,3.6743,3.7419,3.5738,3.5004,3.4931,3.4137,3.3807,3.3807,3.3807,3.3807,3.3829,3.4086,3.4206,3.4206,3.4206,3.4401,3.4643,3.4311,3.4412,3.4632,3.4311,3.4206,3.4246,3.4582,3.4684,3.4684,3.4684,3.4898,3.5096,3.5096,3.5297,3.55,3.55,3.55,3.55,3.55,3.55,3.5731,3.6538,3.6692,3.6962,3.7834,0.0,0.0,0.0,0.0,0.0,3.8594,3.8594,3.8945,3.9805,3.9883,0.0,0.0,0.0,0.0,0.0,0.0,0.0,4.1191,4.1191,0.0,4.1191,4.1191,4.1191,4.1191,4.1191,4.1191,4.1191,4.1191,4.1191,4.1191,4.1191,4.1191,4.1191,4.1191,4.1191,4.1191,4.1191,4.1191,4.1191,4.1191,4.1191,4.1171,4.181,4.181,4.181,4.181,4.181,4.181,4.181,4.181,4.1595,4.1043,4.0321,3.9506,3.8622,3.8318,3.8157,0.0,3.7589,3.7265,0.0,3.7209,3.7209,3.7209,3.7506,3.7685,3.7685,3.8033,3.8218,3.8218,0.0,0.0,0.0,3.7986,3.7771,3.7474,3.6942,3.6395,3.5826,3.4968,3.475,3.4909,3.4303,3.4213,3.4409,3.4508,3.454,3.454,3.454,3.4622,3.4684,3.4572,3.4603,3.4714,3.4784,3.4695,3.4561,3.4663,3.4841,3.4972,3.4972,3.5174,3.5369,3.5369,3.5439,3.55,3.55,3.5923,3.6481,3.7084,3.7199,3.7276,3.7546,3.7656,3.7814,3.8084,3.8268,0.0,0.0,0.0,0.0,0.0,4.0371,4.0488,4.0762,4.0781,0.0,0.0,0.0,0.0,0.0,0.0,0.0,0.0,4.1191,0.0,4.1191,4.1191,4.1191,4.1191,4.1191,4.1191,4.1191,4.1191,4.1191,4.1191,4.1191,4.1191,4.1191,4.1191,4.1191,4.1191,4.1191,4.1191,4.1191,4.1102,4.1056,4.1046,4.2426,4.2426,4.2426,4.2426,4.2426,4.2426,4.2426,4.2426,4.2157,4.1328,4.0575,3.9804,3.8995,3.8636,0.0,3.8164,3.7737,3.756,3.7756,3.7773,3.7773,3.7773,3.8032,3.82,3.82,3.853,0.0,3.8707,3.8707,3.8707,3.8707,3.8707,3.8489,3.8079,3.7784,3.7442,3.7039,3.6185,3.5957,3.6091,3.5548,3.5453,3.5649,3.575,3.5789,3.5789,3.5789,3.5847,3.5931,3.5818,3.5866,3.5967,3.6143,3.6073,3.5826,3.5189,3.5113,3.5239,3.5239,3.5587,3.5942,3.5942,3.6192,3.6442,3.6442,3.6827,3.7334,3.7892,3.8007,3.8106,3.8452,3.8599,3.878,3.9122,3.9289,3.9573,4.0102,0.0,0.0,0.0,0.0,0.0,0.0,4.1191,4.1191,0.0,0.0,0.0,0.0,0.0,0.0,4.1191,4.1191,0.0,4.1191,4.1191,4.1191,4.1191,4.1191,4.1191,4.1191,4.1191,4.1191,4.1191,4.1191,4.1191,4.1191,4.1191,4.1191,4.1191,4.1191,4.1191,4.1191,4.1104,4.103,4.0962,4.3515,4.3515,4.3515,0.0,4.3515,0.0,4.3515,4.346,4.313,4.2323,4.1534,4.0726,3.99,3.9148,3.8496,3.7997,0.0,0.0,0.0,3.8707,3.8707,3.8707,3.8707,3.8707,3.8707,3.8707,3.8707,3.8707,3.8719,3.8719,3.8735,3.875,3.8898,3.9101,3.835,3.819,3.8433,3.7616,3.7297,3.7308,3.7261,3.7234,3.7275,3.7537,3.7637,3.7637,3.7637,3.7803,3.7959,3.7698,3.7784,3.8007,3.8007,3.8007,3.77,3.6135,3.5673,3.5673,3.5673,3.6212,3.6788,3.6788,3.7411,3.8027,3.8084,3.8099,3.8106,3.8164,3.819,3.8452,3.9348,3.9497,3.9796,4.0676,4.0922,4.1002,4.1002,0.0,0.0,0.0,0.0,0.0,0.0,4.1191,4.1191,0.0,0.0,0.0,0.0,0.0,4.1191,4.1191,4.1191,4.1191,4.1191,4.1191,4.1191,4.1191,4.1191,4.1191,4.1191,4.1191,4.1191,4.1191,4.1191,4.1191,4.1191,4.1191,4.1191,4.1191,4.1191,4.1171,4.1171,4.117,4.1099,4.0955,0.0,0.0,4.3515,4.3515,4.3515,4.3515,4.3515,4.2983,4.2304,4.148,4.0689,3.9882,3.9074,3.8817,3.8643,3.853,3.8496,3.8562,3.8692,3.8707,3.8707,3.8707,3.8707,3.8707,3.8707,3.8707,3.8707,3.8707,3.8909,3.9013,3.9013,3.9275,3.942,3.9474,3.9286,3.9239,3.9271,3.8452,3.8241,3.8375,3.7747,3.7637,3.7819,3.7886,3.7901,3.7901,3.7901,3.7951,3.7981,3.7936,3.7951,3.8007,3.8007,3.8007,3.7911,3.7526,3.7411,3.7411,3.7411,3.7546,3.77,3.77,3.7853,3.8161,3.8834,3.9032,3.9262,3.9914,4.0103,4.0203,4.0429,4.0558,4.0686,4.0913,4.1076,4.115,4.115,4.1171,0.0,0.0,4.1191,4.1191,4.1191,4.1191,4.1191,0.0,0.0,0.0,0.0,4.1191,4.1191,4.1191,4.1191,4.1191,4.1191,4.1191,4.1191,4.1191,4.1191,4.1191,4.1191,4.1191,4.1191,4.1191,4.1191,4.1191,4.1191,4.1191,4.1149,4.1051,4.1051,4.099,4.0896,4.0839,4.081,4.0742,4.3515,4.3515,4.3515,4.3515,4.3515,4.3515,4.3515,4.2818,4.2011,4.1205,4.0396,3.9588,3.8799,3.8707,3.8707,3.8707,3.8707,3.8707,3.8707,3.8707,3.8707,3.8707,3.8707,3.8762,3.8884,3.8884,3.8952,3.91,3.9262,3.9327,3.9327,3.9498,3.9679,3.9819,3.9819,3.9893,3.9976,3.9547,3.9432,3.954,3.9097,3.9018,3.9142,3.9142,3.9142,3.9142,3.9142,3.9142,3.9142,3.9142,3.9142,3.9142,3.9142,3.9142,3.9142,3.9142,3.8604,3.8007,3.8007,3.8296,3.8681,3.9046,3.9196,3.9347,3.983,3.9987,4.0165,4.0645,4.0775,4.0813,4.0877,4.0955,4.1023,4.108,4.115,4.1191,4.1191,4.1191,0.0,4.1191,4.1191,4.1191,4.1191,4.1191,4.1191,4.1191,4.1191,0.0,4.1191,4.1191,4.1191,4.1191,4.1191,4.1191,4.1191,4.1191,4.1191,4.1191,4.1191,4.1191,4.1191,4.1191,4.1191,4.1191,4.1191,4.1191,4.1191,4.1129,4.1076,4.0994,4.0925,4.0864,4.0793,4.0767,4.074,4.0686,4.3515,4.3515,4.3515,4.3515,4.3515,4.3515,4.3515,4.2818,4.2011,4.1205,4.0396,3.9619,3.8839,3.8762,3.8777,3.8818,3.8833,3.8803,3.8762,3.8822,3.8833,3.8833,3.8833,3.8937,3.9178,3.9192,3.9314,3.9599,3.9645,3.9668,3.9668,3.9712,3.9882,4.0158,4.0158,4.0295,4.0496,4.0496,4.0496,4.0496,4.0496,4.0496,4.0496,4.0496,4.0496,4.0496,4.0496,4.0496,4.0496,4.0496,4.0496,4.0496,4.0496,4.0496,4.0496,4.0496,3.9496,3.8373,3.8373,3.8934,3.9675,4.0369,4.0617,4.0713,4.0713,4.0761,4.082,4.082,4.0854,4.0905,4.1019,4.1026,4.1076,4.1171,4.1191,4.1191,4.1191,0.0,4.1191,4.1191,4.1191,4.1191,4.1191,4.1191,4.1191,4.1191,4.1191,4.1191,4.1191,4.1191,4.1191,4.1191,4.1191,4.1191,4.1191,4.1191,4.1191,4.1191,4.1191,4.1191,4.1171,4.1191,4.1191,4.1171,4.1191,4.1191,4.1151,4.1051,4.0986,4.0942,4.0828,4.0764,4.0746,4.0746,4.0717,4.0661,4.3515,4.3515,4.3515,4.3515,4.3515,4.3515,4.3515,4.2818,4.2011,4.1205,4.0396,3.9691,3.9101,3.9036,3.9139,3.9451,3.9457,3.9333,3.9063,3.9295,3.9457,3.9457,3.9457,3.9481,3.9529,3.951,3.9552,3.9599,3.9891,4.0022,4.0022,4.0248,4.0397,4.0449,4.0449,4.0465,4.0496,4.0496,4.0496,4.0496,4.0496,4.0496,4.0496,4.0496,4.0496,4.0496,4.0496,4.0496,4.0496,4.0496,4.0496,4.0496,4.0496,4.0496,4.0496,4.0496,4.0323,4.0112,4.0112,4.0286,4.0507,4.0642,4.0736,4.0773,4.0773,4.087,4.0964,4.0964,4.1055,4.1149,4.1171,4.1171,4.1171,4.1191,4.1191,4.1191,4.1191,0.0,4.1191,4.1191,4.1191,4.1191,4.1191,4.1191,4.1191,4.1191,4.1191,4.1191,4.1191,4.1191,4.1191,4.1191,4.1191,4.1191,4.1191,4.1191,4.1191,4.1191,4.1191,4.1149,4.1028,4.115,4.1149,4.1048,4.115,4.1148,4.1026,4.1019,4.0906,4.0745,4.0724,4.0655,4.0547,4.0547,4.0545,4.0523,4.3515,4.3646,4.371,4.3531,4.3823,4.402,4.3804,4.3237,4.2547,4.1749,4.0943,4.0171,3.9446,3.9364,3.9426,3.9587,3.9765,3.9797,3.9645,3.9611,3.9599,3.9599,3.9599,3.9679,3.987,4.0004,4.0082,4.0082,4.025,4.0321,4.0321,4.0449,4.0496,4.0496,4.0496,4.0496,4.0496,4.0496,4.0496,4.0496,4.0496,4.0496,4.0496,4.0496,4.0496,4.0496,4.0496,4.0496,4.0496,4.0496,4.0496,4.0496,4.0496,4.0496,4.0496,4.0496,4.0552,4.0603,4.0603,4.069,4.0757,4.0757,4.0824,4.0911,4.0911,4.1019,4.1104,4.1104,4.115,4.1191,4.1191,4.1191,4.1191,4.1191,4.1191,0.0,0.0,4.1191,4.1191,4.1191,4.1191,4.1191,4.1191,4.1191,4.1191,4.1191,4.1191,4.1191,4.1191,4.1191,4.1191,4.1191,4.1191,4.1191,4.1191,4.1191,4.1191,4.1191,4.1127,4.1055,4.0996,4.0992,4.0955,4.0905,4.0957,4.0955,4.0899,4.0848,4.0781,4.0692,4.0623,4.0552,4.0496,4.0496,4.0496,4.0496,4.3761,4.3958,4.4061,4.3807,4.4209,4.4501,4.4175,4.3823,4.3309,4.2486,4.185,4.1092,4.011,3.9996,3.9943,3.9819,4.0043,4.0186,4.0186,3.9944,3.981,3.981,3.981,3.9934,4.0186,4.0389,4.0496,4.0496,4.0496,4.0496,4.0496,4.0496,4.0496,4.0496,4.0496,4.0496,4.0496,4.0496,4.0496,4.0496,4.0496,4.0496,4.0496,4.0496,4.0496,4.0496,4.0496,4.0496,4.0496,4.0496,4.0496,4.0496,4.0496,4.0527,4.0545,4.0545,4.0661,4.0752,4.0721,4.077,4.0854,4.0854,4.0952,4.1051,4.1051,4.1127,4.1191,4.1191,4.1191,4.1191,4.1191,4.1191,4.1191,4.1191,0.0,0.0,0.0,4.1191,4.1191,4.1191,4.1191,4.1191,4.1191,4.1191,4.1191,4.1191,4.1191,4.1191,4.1191,4.1191,4.1191,4.1191,4.1191,4.1191,4.115,4.115,4.1149,4.1104,4.0996,4.0947,4.0931,4.0843,4.0785,4.0779,4.0789,4.0785,4.077,4.0729,4.068,4.063,4.0537,4.0496,4.0496,4.0496,4.0496,4.0496,4.4514,4.454,4.454,4.4514,4.4553,4.458,4.4553,4.4542,4.4196,4.3341,4.3152,4.2638,4.1308,4.1167,4.0979,4.0491,4.0465,4.0473,4.0473,4.0457,4.043,4.043,4.043,4.0457,4.0473,4.0489,4.0496,4.0496,4.0496,4.0496,4.0496,4.0496,4.0496,4.0496,4.0496,4.0496,4.0496,4.0496,4.0496,4.0496,4.0496,4.0496,4.0496,4.0496,4.0496,4.0496,4.0496,4.0496,4.0496,4.0496,4.0496,4.0496,4.0496,4.0595,4.068,4.068,4.0812,4.095,4.0832,4.0896,4.099,4.099,4.1081,4.1191,4.1191,4.1191,4.1191,4.1191,4.1191,4.1191,4.1191,4.1191,4.1191,4.1191,0.0,0.0,4.1191,4.1191,4.1191,4.1191,4.1191,4.1191,4.1191,4.1191,4.1191,4.1191,4.1191,4.1191,4.1191,4.1191,4.1191,4.1191,4.1191,4.1149,4.1021,4.1002,4.0955,4.082,4.0813,4.0775,4.0718,4.0775,4.0781,4.0701,4.077,4.0757,4.0715,4.0703,4.063,4.0519,4.0504,4.0496,4.0496,4.0496,4.0496,4.0496,4.4593,4.4776,4.4849,4.465,4.4943,4.515,4.4943,4.5096,4.4907,4.4028,4.3932,4.3541,4.2524,4.192,4.1532,4.1327,4.0804,4.0496,4.0496,4.0496,4.0496,4.0496,4.0496,4.0496,4.0496,4.0496,4.0496,4.0496,4.0496,4.0496,4.0496,4.0496,4.0496,4.0496,4.0496,4.0496,4.0496,4.0496,4.0496,4.0496,4.0496,4.0496,4.0496,4.0496,4.0496,4.0496,4.0496,4.0496,4.0496,4.0496,4.0552,4.063,4.063,4.0682,4.0785,4.0855,4.0939,4.1017,4.1049,4.1081,4.1127,4.1127,4.1151,4.1191,4.1191,4.1191,4.1191,4.1191,4.1191,4.1191,4.1191,4.1191,4.1191,4.1191,0.0,4.1191,4.1191,4.1191,4.1191,4.1191,4.1191,4.1191,4.1191,4.1191,4.1191,4.1191,4.1191,4.1191,4.1191,4.1191,4.1151,4.108,4.1078,4.1052,4.0996,4.0996,4.0925,4.0797,4.0762,4.0715,4.0697,4.0642,4.0591,4.0588,4.0597,4.061,4.0581,4.0581,4.0545,4.0496,4.0496,4.0496,4.0573,4.1104,4.1316,4.1373,4.4919,4.5107,4.5171,4.4954,4.5283,4.5513,4.5302,4.5448,4.5383,4.4778,4.4701,4.4393,4.3566,4.2951,4.2489,4.2239,4.1412,4.0912,4.0912,4.065,4.0496,4.0496,4.0496,4.0496,4.0496,4.0496,4.0496,4.0496,4.0496,4.0496,4.0496,4.0496,4.0496,4.0496,4.0496,4.0496,4.0496,4.0537,4.053,4.0504,4.0545,4.053,4.0504,4.0545,4.0566,4.0574,4.059,4.0591,4.0591,4.0591,4.0666,4.0731,4.0731,4.0779,4.088,4.1025,4.1055,4.108,4.1171,4.1191,4.1191,4.1191,4.1191,4.1191,4.1191,4.1191,4.1191,4.1191,4.1191,4.1191,4.1191,4.1191,4.1191,4.1191,4.1191,4.1191,4.1191,4.1191,4.1191,4.1191,4.1191,4.1191,4.1191,4.1191,4.1191,4.1191,4.1191,4.1191,4.1191,4.1151,4.1102,4.0996,4.0959,4.1053,4.1318,4.1046,4.0844,4.0703,4.066,4.0643,4.0636,4.0826,4.0912,4.0912,4.1208,4.1324,4.1324,4.1324,4.1324,4.1324,4.1324,4.1324,4.1401,4.1989,4.222,4.2297,4.5594,4.5594,4.5594,4.5594,4.5594,4.5594,4.5594,4.5594,4.5594,4.5594,4.5594,4.5267,4.4393,4.4297,4.397,4.3181,4.2316,4.1808,4.1808,4.0989,4.0516,4.0516,4.0496,4.0496,4.0496,4.0496,4.0496,4.0496,4.0496,4.0496,4.0496,4.0496,4.0496,4.0496,4.0496,4.0496,4.0512,4.063,4.063,4.0519,4.0655,4.0623,4.0519,4.0642,4.0697,4.0701,4.0779,4.0797,4.0797,4.0797,4.0797,4.0801,4.0801,4.0883,4.1025,4.1151,4.1191,4.1191,4.1191,4.1191,4.1191,4.1191,4.1191,4.1191,4.1191,4.1191,4.1191,4.1191,4.1191,4.1191,4.1191,4.1191,4.1191,4.1191,4.1191,4.1191,4.1191,4.1191,4.1191,4.1191,4.1191,4.1191,4.1191,4.1191,4.1191,4.1191,4.1211,4.1211,4.1211,4.1097,4.1016,4.1014,4.0887,4.1208,4.1989,4.1143,4.0655,4.0516,4.0516,4.0516,4.0554,4.1412,4.1808,4.1865,4.272,4.3104,4.3104,4.3104,4.3104,4.3104,4.3104,4.3104,4.3104,4.3104,4.3104,4.3104,4.5594,4.5594,4.5594,4.5594,4.5594,4.5594,4.5594,4.5594,4.5594,4.5594,4.5594,4.5498,4.5248,4.4662,4.4201,4.3951,4.3181,4.272,4.272,4.247,4.2047,4.145,4.0843,4.0496,4.0496,4.0496,4.0496,4.0496,4.0496,4.0496,4.0496,4.0496,4.0496,4.0504,4.0596,4.0649,4.0655,4.0732,4.0747,4.0718,4.0752,4.0747,4.0718,4.0752,4.0766,4.077,4.0785,4.0797,4.0797,4.0797,4.0864,4.0957,4.1052,4.1105,4.115,4.1191,4.1191,4.1191,4.1191,4.1191,4.1191,4.1191,4.1191,4.1191,4.1191,4.1191,4.1191,4.1191,4.1191,4.1191,4.1191,4.1191,4.1191,4.1191,4.1191,4.1191,4.1191,4.1191,4.1191,4.1191,4.1191,4.1191,4.1191,4.1191,4.1191,4.1191,4.1719,4.2029,4.197,4.2502,4.2743,4.2549,4.2507,4.2582,4.2769,4.1989,4.1853,4.2316,4.2316,4.2316,4.2335,4.2585,4.272,4.2739,4.2989,4.3104,4.3104,4.3104,4.3104,4.3104,4.3104,4.3104,4.3162,4.372,4.3932,4.4028,4.5594,4.5594,4.5594,4.5594,4.5594,4.5594,4.5594,4.5594,4.5594,4.5594,4.5594,4.5594,4.5594,4.5133,4.4797,4.4797,4.4047,4.3431,4.3124,4.3104,4.2854,4.2335,4.1816,4.1208,4.0516,4.0496,4.0496,4.0496,4.0552,4.0588,4.0588,4.0604,4.0616,4.0623,4.069,4.0747,4.0757,4.0836,4.0854,4.0801,4.086,4.0854,4.0801,4.086,4.0874,4.0899,4.095,4.0957,4.0957,4.0957,4.1,4.1083,4.1171,4.1191,4.1191,4.1191,4.1191,4.1191,4.1191,4.1191,4.1191,4.1191,4.1191,4.1191,4.1191,4.1191,4.1191,4.1191,4.1191,4.1191,4.1191,4.1191,4.1191,4.1191,4.1191,4.1191,4.1191,4.1191,4.1191,4.1191,4.1191,4.1328,4.1641,4.1657,4.1765,4.2041,4.2529,4.2789,4.2743,4.3178,4.3369,4.3214,4.3162,4.3281,4.3566,4.3127,4.2972,4.3104,4.3104,4.3104,4.3104,4.3431,4.3566,4.3585,4.3932,4.4085,4.4085,4.4085,4.4085,4.4085,4.4085,4.4085,4.4143,4.4624,4.4797,4.4893,4.5594,4.5594,4.5594,4.5594,4.5594,4.5594,4.5594,4.5594,4.5594,4.5594,4.5594,4.5594,4.5594,4.5594,4.5594,4.5594,4.4874,4.4105,4.3374,4.3316,4.3297,4.3201,4.3217,4.2444,4.0777,4.0735,4.0696,4.0635,4.0765,4.0781,4.0701,4.077,4.0797,4.0797,4.0809,4.0813,4.0839,4.0959,4.0952,4.0854,4.0962,4.0933,4.0854,4.0964,4.1021,4.1028,4.115,4.1191,4.1191,4.1191,4.1191,4.1191,4.1191,4.1191,4.1191,4.1191,4.1191,4.1191,4.1191,4.1191,4.1191,4.1191,4.1191,4.1191,4.1191,4.1191,4.1191,4.1191,4.1191,4.1191,4.1191,4.1191,4.1191,4.1191,4.1191,4.1191,4.1191,4.1269,4.1308,4.1308,4.1387,4.1719,4.2441,4.2466,4.269,4.337,4.349,4.3525,4.3525,4.3463,4.344,4.3421,4.3366,4.3687,4.4412,4.4412,4.4047,4.3316,4.3316,4.3316,4.3355,4.4085,4.4412,4.4451,4.5267,4.5594,4.5594,4.5594,4.5594,4.5594,4.5594,4.5594,4.5594,4.5594,4.5594,4.5594,4.5594,4.5594,4.5594,4.5594,4.5594,4.5594,4.5594,4.5594,4.5594,4.5594,4.5594,4.5594,4.5594,4.5594,4.5594,4.5594,4.5441,4.5248,4.5075,4.5056,4.4739,4.4066,4.4136,4.3698,4.2634,4.2564,4.2241,4.1674,4.1705,4.1394,4.0784,4.0789,4.0797,4.0801,4.0914,4.0957,4.0962,4.1103,4.1149,4.1126,4.1149,4.1149,4.1126,4.1149,4.115,4.1151,4.1191,4.1191,4.1191,4.1191,4.1191,4.1191,4.1191,4.1191,4.1191,4.1191,4.1191,4.1191,4.1191,4.1191,4.1191,4.1191,4.1191,4.1191,4.1191,4.1191,4.1191,4.1191,4.1191,4.1191,4.1191,4.1191,4.1191,4.1191,4.1191,4.1191,4.1191,4.1738,4.2148,4.2148,4.2734,4.3223,4.3398,4.3417,4.3453,4.3624,4.4161,4.4504,4.4504,4.5025,4.5287,4.5241,4.5221,4.5244,4.5325,4.5325,4.5229,4.5056,4.5056,4.5056,4.5056,4.5248,4.5325,4.5325,4.5518,4.5594,4.5594,4.5594,4.5594,4.5594,4.5594,4.5594,4.5594,4.5594,4.5594,4.5594,4.5594,4.5594,4.5594,4.5594,4.5594,4.5594,4.5594,4.5594,4.5594,4.5594,4.5594,4.5594,4.5594,4.5594,4.5594,4.5594,4.5648,4.5692,4.5692,4.5742,4.5538,4.5073,4.514,4.4946,4.4505,4.4445,4.3858,4.268,4.2736,4.2556,4.2139,4.2171,4.2184,4.2186,4.2267,4.2295,4.2275,4.1913,4.1777,4.1738,4.1348,4.1191,4.1191,4.1191,4.1191,4.1191,4.1191,4.1191,4.1191,4.1191,4.1191,4.1191,4.1191,4.1191,4.1191,4.1191,4.1191,4.1191,4.1191,4.1191,4.1191,4.1191,4.1191,4.1191,4.1191,4.1191,4.1191,4.1191,4.1191,4.1191,4.1191,4.1504,4.1777,4.1777,4.2129,4.2383,4.2383,4.2754,4.3027,4.3027,4.3418,4.3847,4.419,4.4599,4.4827,4.4747,4.5103,4.5313,4.5313,4.5662,4.5845,4.5859,4.5743,4.57,4.5692,4.5627,4.5594,4.5594,4.5594,4.5594,4.5594,4.5594,4.5594,4.5594,4.5594,4.5594,4.5594,4.5594,4.5594,4.5594,4.5594,4.5594,4.5594,4.5594,4.5594,4.5594,4.5594,4.5594,4.5594,4.5594,4.5594,4.5594,4.5594,4.5594,4.5594,4.5594,4.5594,4.5594,4.5594,4.5629,4.5635,4.5635,4.5742,4.5821,4.5821,4.5862,4.5899,4.5899,4.592,4.5928,4.5928,4.5967,4.5191,4.3642,4.3746,4.3736,4.3627,4.3669,4.3691,4.3691,4.3691,4.3691,4.3652,4.293,4.2617,4.2558,4.1894,4.1621,4.1621,4.1621,4.1621,4.1621,4.1621,4.1621,4.1621,4.1621,4.1621,4.1621,4.1621,4.1621,4.1621,4.1621,4.1621,4.1621,4.1621,4.1621,4.1621,4.1621,4.1621,4.1621,4.1621,4.1504,4.1445,4.1601,4.1621,4.1621,4.1621,4.2168,4.2617,4.2617,4.3223,4.3691,4.3691,4.3828,4.3926,4.3926,4.4043,4.4373,4.4992,4.5712,4.6084,4.5981,4.592,4.5907,4.5928,4.5847,4.5826,4.5886,4.5715,4.568,4.5756,4.5668,4.5594,4.5594,4.5594,4.5594,4.5594,4.5594,4.5594,4.5594,4.5594,4.5594,4.5594,4.5594,4.5594,4.5594,4.5594,4.5594,4.5594,4.5594,4.5594,4.5594,4.5594,4.5594,4.5594,4.5594,4.5594,4.5594,4.5594,4.5594,4.5594,4.5594,4.5594,4.5594,4.5594,4.57,4.5763,4.5763,4.5839,4.5896,4.5896,4.589,4.5899,4.5899,4.6005,4.6077,4.6077,4.6196,4.5709,4.4612,4.4621,4.4314,4.3691,4.3691,4.3691,4.3691,4.3691,4.3691,4.3691,4.3574,4.3516,4.3516,4.3418,4.3359,4.3359,4.3359,4.3359,4.3359,4.3359,4.3359,4.3359,4.3359,4.3359,4.3359,4.3359,4.3359,4.3359,4.3359,4.3359,4.3359,4.3359,4.3359,4.3359,4.3359,4.3359,4.3359,4.3359,4.2773,4.2441,4.3203,4.3359,4.3359,4.3359,4.3457,4.3516,4.3516,4.3613,4.3691,4.3691,4.4355,4.4824,4.4824,4.5488,4.5996,4.6093,4.6191,4.6268,4.6247,4.6036,4.594,4.6075,4.5901,4.579,4.5815,4.579,4.5737,4.5618,4.5612,4.5594,4.5594,4.5594,4.5594,4.5594,4.5594,4.5594,4.5594,4.5594,4.5594,4.5594,4.5594,4.5594,4.5594,4.5594,4.5594,4.5594,4.5594,4.5594,4.5594,4.5594,4.5594,4.5594,4.5594,4.5594,4.5594,4.5594,4.5657,4.5715,4.5715,4.575,4.577,4.577,4.5817,4.5855,4.5855,4.5948,4.6005,4.6005,4.6082,4.6119,4.6119,4.6175,4.6202,4.6202,4.6268,4.6073,4.5636,4.5636,4.5465,4.5156,4.5156,4.5156,4.5156,4.5156,4.5156,4.5117,4.4629,4.4433,4.4375,4.3906,4.3691,4.3691,4.3691,4.3691,4.3691,4.3691,4.3691,4.3691,4.3691,4.3691,4.3691,4.3691,4.3691,4.3691,4.3691,4.3691,4.3691,4.3691,4.3691,4.3691,4.3691,4.3691,4.3828,4.4316,4.4121,4.3828,4.3711,4.3691,4.3691,4.3691,4.4101,4.4433,4.4433,4.4824,4.5156,4.5156,4.5488,4.5723,4.5723,4.5991,4.6223,4.6289,4.6226,4.6198,4.6198,4.608,4.5998,4.5988,4.5864,4.5821,4.585,4.5756,4.5692,4.5715,4.5635,4.5594,4.5594,4.5594,4.5594,4.5594,4.5594,4.5594,4.5594,4.5594,4.5594,4.5594,4.5594,4.5594,4.5594,4.5594,4.5594,4.5594,4.5594,4.5594,4.5594]}]]